[[{"header":{"parameterUnit":"m.s-1","parameterCategory":1,"la1":31.0,"la2":29.5877,"lo1":-88.7671,"lo2":-86.6584,"dy":0.0162,"dx":0.0185,"nx":115,"ny":88,"refTime":"2024-06-11T18:00:00:Z","depth":0,"parameterNumber":2,"parameterNumberName":"U-component_of_WINDS"},"data":[0.0,0.0,0.0,0.0,0.0,0.0,0.0,0.0,0.0,0.0,0.0,0.0,0.0,0.0,0.0,0.0,0.0,0.0,0.0,0.0,0.0,0.0,0.0,0.0,0.0,0.0,0.0,0.0,0.0,0.0,0.0,0.0,0.0,0.0,0.0,0.0,0.0,0.0,0.0,0.0,0.0,0.0,0.0,0.0,0.0,0.0,0.0,0.0,0.0,0.0,0.0,0.0,0.0,0.0,0.0,0.0,0.0,0.0,0.0,0.0,0.0,0.0,0.0,0.0,0.0,0.0,0.0,0.0,0.0,0.0,0.0,0.0,0.0,0.0,0.0,0.0,0.0,0.0,0.0,0.0,0.0,0.0,0.0,0.0,0.0,0.0,0.0,0.0,0.0,0.0,0.0,0.0,0.0,0.0,0.0,0.0,0.0,0.0,0.0,0.0,0.0,0.0,0.0,0.0,0.0,0.0,0.0,0.0,0.0,0.0,0.0,0.0,0.0,0.0,0.0,0.0,0.0,0.0,0.0,0.0,0.0,0.0,0.0,0.0,0.0,0.0,0.0,0.0,0.0,0.0,0.0,0.0,0.0,0.0,0.0,0.0,0.0,0.0,0.0,0.0,0.0,0.0,0.0,0.0,0.0,0.0,0.0,0.0,0.0,0.0,0.0,0.0,0.0,0.0,0.0,0.0,0.0,0.0,0.0,0.0,0.0,0.0,0.0,0.0,0.0,0.0,0.0,0.0,0.0,0.0,0.0,0.0,0.0,0.0,0.0,0.0,0.0,0.0,0.0,0.0,0.0,0.0,0.0,0.0,0.0,0.0,0.0,0.0,0.0,0.0,0.0,0.0,0.0,0.0,0.0,0.0,0.0,0.0,0.0,0.0,0.0,0.0,0.0,0.0,0.0,0.0,0.0,0.0,0.0,0.0,0.0,0.0,0.0,0.0,0.0,0.0,0.0,0.0,0.0,0.0,0.0,0.0,0.0,0.0,0.0,0.0,0.0,0.0,0.0,0.0,0.0,0.0,0.0,0.0,0.0,0.0,0.0,0.0,0.0,0.0,0.0,0.0,0.0,0.0,0.0,0.0,0.0,0.0,0.0,0.0,0.0,0.0,0.0,0.0,0.0,0.0,0.0,0.0,0.0,0.0,0.0,0.0,0.0,0.0,0.0,0.0,0.0,0.0,0.0,0.0,0.0,0.0,0.0,0.0,0.0,0.0,0.0,0.0,0.0,0.0,0.0,0.0,0.0,0.0,0.0,0.0,0.0,0.0,0.0,0.0,0.0,0.0,0.0,0.0,0.0,0.0,0.0,0.0,0.0,0.0,0.0,0.0,0.0,0.0,0.0,0.0,0.0,0.0,0.0,0.0,0.0,0.0,0.0,0.0,0.0,0.0,0.0,0.0,0.0,0.0,0.0,0.0,0.0,0.0,0.0,0.0,0.0,0.0,0.0,0.0,0.0,0.0,0.0,0.0,0.0,0.0,0.0,0.0,0.0,0.0,0.0,0.0,0.0,0.0,0.0,0.0,0.0,0.0,0.0,0.0,0.0,0.0,0.0,0.0,0.0,0.0,0.0,0.0,0.0,0.0,0.0,0.0,0.0,0.0,0.0,0.0,0.0,0.0,0.0,0.0,0.0,0.0,0.0,0.0,0.0,0.0,0.0,0.0,0.0,0.0,0.0,0.0,0.0,0.0,0.0,0.0,0.0,0.0,0.0,0.0,0.0,0.0,0.0,0.0,0.0,0.0,0.0,0.0,0.0,0.0,0.0,0.0,0.0,0.0,0.0,0.0,0.0,0.0,0.0,0.0,0.0,0.0,0.0,0.0,0.0,0.0,0.0,0.0,0.0,0.0,0.0,0.0,0.0,0.0,0.0,0.0,0.0,0.0,0.0,0.0,0.0,0.0,0.0,0.0,0.0,0.0,0.0,0.0,0.0,0.0,0.0,0.0,0.0,0.0,0.0,0.0,0.0,0.0,0.0,0.0,0.0,0.0,0.0,0.0,0.0,0.0,0.0,0.0,0.0,0.0,0.0,0.0,0.0,0.0,0.0,0.0,0.0,0.0,0.0,0.0,0.0,0.0,0.0,0.0,0.0,0.0,0.0,0.0,0.0,0.0,0.0,0.0,0.0,0.0,0.0,0.0,0.0,0.0,0.0,0.0,0.0,0.0,0.0,0.0,0.0,0.0,0.0,0.0,0.0,0.0,0.0,0.0,0.0,0.0,0.0,0.0,0.0,0.0,0.0,0.0,0.0,0.0,0.0,0.0,0.0,0.0,0.0,0.0,0.0,0.0,0.0,0.0,0.0,0.0,0.0,0.0,0.0,0.0,0.0,0.0,0.0,0.0,0.0,0.0,0.0,0.0,0.0,0.0,0.0,0.0,0.0,0.0,0.0,0.0,0.0,0.0,0.0,0.0,0.0,0.0,0.0,0.0,0.0,0.0,0.0,0.0,0.0,0.0,0.0,0.0,0.0,0.0,0.0,0.0,0.0,0.0,0.0,0.0,0.0,0.0,0.0,0.0,0.0,0.0,0.0,0.0,0.0,0.0,0.0,0.0,0.0,0.0,0.0,0.0,0.0,0.0,0.0,0.0,0.0,0.0,0.0,0.0,0.0,0.0,0.0,0.0,0.0,0.0,0.0,0.0,0.0,0.0,0.0,0.0,0.0,0.0,0.0,0.0,0.0,0.0,0.0,0.0,0.0,0.0,0.0,0.0,0.0,0.0,0.0,0.0,0.0,0.0,0.0,0.0,0.0,0.0,0.0,0.0,0.0,0.0,0.0,0.0,0.0,0.0,0.0,0.0,0.0,0.0,0.0,0.0,0.0,0.0,0.0,0.0,0.0,0.0,0.0,0.0,0.0,0.0,0.0,0.0,0.0,0.0,0.0,0.0,0.0,0.0,0.0,0.0,0.0,0.0,0.0,0.0,0.0,0.0,0.0,0.0,0.0,0.0,0.0,0.0,0.0,0.0,0.0,0.0,0.0,0.0,0.0,0.0,0.0,0.0,0.0,0.0,0.0,0.0,0.0,0.0,0.0,0.0,0.0,0.0,0.0,0.0,0.0,0.0,0.0,0.0,0.0,0.0,0.0,0.0,0.0,0.0,0.0,0.0,0.0,0.0,0.0,0.0,0.0,0.0,0.0,0.0,0.0,0.0,0.0,0.0,0.0,0.0,0.0,0.0,0.0,0.0,0.0,0.0,0.0,0.0,0.0,0.0,0.0,0.0,0.0,0.0,0.0,0.0,0.0,0.0,0.0,0.0,0.0,0.0,0.0,0.0,0.0,0.0,0.0,0.0,0.0,0.0,0.0,0.0,0.0,0.0,0.0,0.0,0.0,0.0,0.0,0.0,0.0,0.0,0.0,0.0,0.0,0.0,0.0,0.0,0.0,0.0,0.0,0.0,0.0,0.0,0.0,0.0,0.0,0.0,0.0,0.0,0.0,0.0,0.0,0.0,0.0,0.0,0.0,0.0,0.0,0.0,0.0,0.0,0.0,0.0,0.0,0.0,0.0,0.0,0.0,0.0,0.0,0.0,0.0,0.0,0.0,0.0,0.0,0.0,0.0,0.0,0.0,0.0,0.0,0.0,0.0,0.0,0.0,0.0,0.0,0.0,0.0,0.0,0.0,0.0,0.0,0.0,0.0,0.0,0.0,0.0,0.0,0.0,0.0,0.0,0.0,0.0,0.0,0.0,0.0,0.0,0.0,0.0,0.0,0.0,0.0,0.0,0.0,0.0,0.0,0.0,0.0,0.0,0.0,0.0,0.0,0.0,0.0,0.0,0.0,0.0,0.0,0.0,0.0,0.0,0.0,0.0,0.0,0.0,0.0,0.0,0.0,0.0,0.0,0.0,0.0,0.0,0.0,0.0,0.0,0.0,0.0,0.0,0.0,0.0,0.0,0.0,0.0,0.0,0.0,0.0,0.0,0.0,0.0,0.0,0.0,0.0,0.0,0.0,0.0,0.0,0.0,0.0,0.0,0.0,0.0,0.0,0.0,0.0,0.0,0.0,0.0,0.0,0.0,0.0,0.0,0.0,0.0,0.0,0.0,0.0,0.0,0.0,0.0,0.0,0.0,0.0,0.0,0.0,0.0,0.0,0.0,0.0,0.0,0.0,0.0,0.0,0.0,0.0,0.0,0.0,0.0,0.0,0.0,0.0,0.0,0.0,0.0,0.0,0.0,0.0,0.0,0.0,0.0,0.0,0.0,0.0,0.0,0.0,0.0,0.0,0.0,0.0,0.0,0.0,0.0,0.0,0.9633,0.0,0.0,0.0,0.0,0.0,0.0,0.0,0.0,0.0,0.0,0.0,0.0,0.0,0.0,0.0,0.0,0.0,0.0,0.0,0.0,0.0,0.0,0.0,0.0,0.0,0.0,0.0,0.0,0.0,0.0,0.0,0.0,0.0,0.0,0.0,0.0,0.0,0.0,0.0,0.0,0.0,0.0,0.0,0.0,0.0,0.0,0.0,0.0,0.0,0.0,0.0,0.0,0.0,0.0,0.0,0.0,0.0,0.0,0.0,0.0,0.0,0.0,0.0,0.0,0.0,0.0,0.0,0.0,0.0,0.0,0.0,0.0,0.0,0.0,0.0,0.0,0.0,0.0,0.0,0.0,0.0,0.0,0.0,0.0,0.0,0.0,0.0,0.0,0.0,0.0,0.0,0.0,0.0,0.0,0.0,0.0,0.0,0.0,0.0,0.0,0.0,0.0,0.0,0.0,0.0,0.0,0.0,0.0,0.0,0.0,0.9888,0.9881,0.9109,0.8781,0.8997,0.0,0.0,0.0,0.0,0.0,0.0,0.0,0.0,0.0,0.0,0.0,0.0,0.0,0.0,0.0,0.0,0.0,0.0,0.0,0.0,0.0,0.0,0.0,0.0,0.0,0.0,0.0,0.0,0.0,0.0,0.0,0.0,0.0,0.0,0.0,0.0,0.0,0.0,0.0,0.0,0.0,0.0,0.0,0.0,0.0,0.0,0.0,0.0,0.0,0.0,0.0,0.0,0.0,0.0,0.0,0.0,0.0,0.0,0.0,0.0,0.0,0.0,0.0,0.0,0.0,0.0,0.0,0.0,0.0,0.0,0.0,0.0,0.0,0.0,0.0,0.0,0.0,0.0,0.0,0.0,0.0,0.0,0.0,0.0,0.0,0.0,0.0,0.0,0.0,0.0,0.0,0.0,0.0,0.0,0.0,0.0,0.0,0.0,0.0,0.0,0.0,0.0,0.0,0.0,0.0,0.0,0.0,0.0,0.0,0.0,0.0,0.0,0.8159,0.7835,0.8183,0.0,0.0,0.0,0.0,0.0,0.0,0.0,0.0,0.0,0.0,0.0,0.0,0.0,0.0,0.0,0.0,0.0,0.0,0.0,0.0,0.0,0.0,0.0,0.0,0.0,0.0,0.0,0.0,0.0,0.0,0.0,0.0,0.0,0.0,0.0,0.0,0.0,0.0,0.0,0.0,0.0,0.0,0.0,0.0,0.0,0.0,0.0,0.0,0.0,0.0,0.0,0.0,0.0,0.0,0.0,0.0,0.0,0.0,0.0,0.0,0.0,0.0,0.0,0.0,0.0,0.0,0.0,0.0,0.0,0.0,0.0,0.0,0.0,0.0,0.0,0.0,0.0,0.0,0.0,0.0,0.0,0.0,0.0,0.0,0.0,0.0,0.0,0.0,0.0,0.0,0.0,0.0,0.0,0.0,0.0,0.0,0.0,0.0,0.0,0.0,0.0,0.0,0.0,0.0,0.0,0.0,0.0,0.0,0.0,0.0,0.8161,0.8299,0.8178,0.0,0.7623,0.0,0.0,0.0,0.0,0.0,0.0,0.0,0.0,0.0,0.0,0.0,0.0,0.0,0.0,0.0,0.0,0.0,0.0,0.0,0.0,0.0,0.0,0.0,0.0,0.0,0.0,0.0,0.0,0.0,0.0,0.0,0.0,0.0,0.0,0.0,0.0,0.0,0.0,0.0,0.0,0.0,0.0,0.0,0.0,0.0,0.0,0.0,0.0,0.0,0.0,0.0,0.0,0.0,0.0,0.0,0.0,0.0,0.0,0.0,0.0,0.0,0.0,0.0,0.0,0.0,0.0,0.0,0.0,0.0,0.0,0.0,0.0,0.0,0.0,0.0,0.0,0.0,0.0,0.0,0.0,0.0,0.0,0.0,0.0,0.0,0.0,0.0,0.0,0.0,0.0,0.0,0.0,0.0,0.0,0.0,0.0,0.0,0.0,0.0,0.0,0.0,0.0,0.0,0.0,0.0,0.0,0.0,0.0,0.0,0.0,0.7366,0.7414,0.7151,0.6696,0.0,0.0,0.0,0.0,0.0,0.0,0.0,0.0,0.0,0.0,0.0,0.0,0.0,0.0,0.0,0.0,0.0,0.0,0.0,0.0,0.0,0.0,0.0,0.0,0.0,0.0,0.0,0.0,0.0,0.0,0.0,0.0,0.0,0.0,0.0,0.0,0.0,0.0,0.0,0.0,0.0,0.0,0.0,0.0,0.0,0.0,0.0,0.0,0.0,0.0,0.0,0.0,0.0,0.0,0.0,0.0,0.0,0.0,0.0,0.0,0.0,0.0,0.0,0.0,0.0,0.0,0.0,0.0,0.0,0.0,0.0,0.0,0.0,0.0,0.0,0.0,0.0,0.0,0.0,0.0,0.0,0.0,0.0,0.0,0.0,0.0,0.0,0.0,0.0,0.0,0.0,0.0,0.0,0.0,0.0,0.0,0.0,0.0,0.0,0.0,0.0,0.0,0.0,0.0,0.0,0.0,0.0,0.0,0.0,0.0,0.6551,0.6112,0.6101,0.5855,0.5517,0.5077,0.0,0.0,0.0,0.0,0.0,0.0,0.0,0.0,0.0,0.0,0.0,0.0,0.0,0.0,0.0,0.0,0.0,0.0,0.0,0.0,0.0,0.0,0.0,0.0,0.0,0.0,0.0,0.0,0.0,0.0,0.0,0.0,0.0,0.0,0.0,0.0,0.0,0.0,0.0,0.0,0.0,0.0,0.0,0.0,0.0,0.0,0.0,0.0,0.0,0.0,0.0,0.0,0.0,0.0,0.0,0.0,0.0,0.0,0.0,0.0,0.0,0.0,0.0,0.0,0.0,0.0,0.0,0.0,0.0,0.0,0.0,0.0,0.0,0.0,0.0,0.0,0.0,0.0,0.0,0.0,0.0,0.0,0.0,0.0,0.0,0.0,0.0,0.0,0.0,0.0,0.0,0.0,0.0,0.0,0.0,0.0,0.0,0.0,0.0,0.0,0.0,0.0,0.0,0.0,0.0,0.0,0.0,0.0,0.0,0.476,0.4149,0.4189,0.4414,0.4677,0.0,0.0,0.0,0.0,0.0,0.0,0.0,0.0,0.0,0.0,0.0,0.0,0.0,0.0,0.0,0.0,0.0,0.0,0.0,0.0,0.0,0.0,0.0,0.0,0.0,0.0,0.0,0.0,0.0,0.0,0.0,0.0,0.0,0.0,0.0,0.0,0.0,0.0,0.0,0.0,0.0,0.0,0.0,0.0,0.0,0.0,0.0,0.0,0.0,0.0,0.0,0.0,0.0,0.0,0.0,0.0,0.0,0.0,0.0,0.0,0.0,0.0,0.0,0.0,0.0,0.0,0.0,0.0,0.0,0.0,0.0,0.0,0.0,0.0,0.0,0.0,0.0,0.0,0.0,0.0,0.0,0.0,0.0,0.0,0.0,0.0,0.0,0.0,0.0,0.0,0.0,0.0,0.0,0.0,0.0,0.0,0.0,0.0,0.0,0.0,0.0,0.0,0.0,0.0,0.0,0.0,0.0,0.0,0.0,0.3785,0.3472,0.3335,0.34,0.3364,0.3619,0.0,0.0,0.0,0.0,0.0,0.0,0.0,0.0,0.0,0.0,0.0,0.0,0.0,0.0,0.0,0.0,0.0,0.0,0.0,0.0,0.0,0.0,0.0,0.0,0.0,0.0,0.0,0.0,0.0,0.0,0.0,0.0,0.0,0.0,0.0,0.0,0.0,0.0,0.0,0.0,0.0,0.0,0.0,0.0,0.0,0.0,0.0,0.0,0.0,0.0,0.0,0.0,0.0,0.0,0.0,0.0,0.0,0.0,0.0,0.0,0.0,0.0,0.0,0.0,0.0,0.0,0.0,0.0,0.0,0.0,0.0,0.0,0.0,0.0,0.0,0.0,0.0,0.0,0.0,0.0,0.0,0.0,0.0,0.0,0.0,0.0,0.0,0.0,0.0,0.0,0.0,0.0,0.0,0.0,0.0,0.0,0.0,0.0,0.0,0.0,0.0,0.0,0.0,0.0,0.0,0.0,0.0,0.0,0.0,0.1786,0.0,0.1986,0.0,0.1885,0.2286,0.0,0.0,0.0,0.0,0.0,0.0,0.0,0.0,0.0,0.0,0.0,0.0,0.0,0.0,0.0,0.0,0.0,0.0,0.0,0.0,0.0,0.0,0.0,0.0,0.0,0.0,0.0,0.0,0.0,0.0,0.0,0.0,0.0,0.0,0.0,0.0,0.0,0.0,0.0,0.0,0.0,0.0,0.0,0.0,0.0,0.0,0.0,0.0,0.0,0.0,0.0,0.0,0.0,0.0,0.0,0.0,0.0,0.0,0.0,0.0,0.0,0.0,0.0,0.0,0.0,0.0,0.0,0.0,0.0,0.0,0.0,0.0,0.0,0.0,0.0,0.0,0.0,0.0,0.0,0.0,0.0,0.0,0.0,0.0,0.0,0.0,0.0,0.0,0.0,0.0,0.0,0.0,0.0,0.0,0.0,0.0,0.0,0.0,0.0,0.0,0.0,0.0,0.0,0.0,0.0,0.0,0.0,0.0,0.1649,-0.0108,-0.0074,-0.0147,-0.0419,-0.0104,0.0694,0.0,0.0,0.0,0.0,0.0,0.0,0.0,0.0,0.0,0.0,0.0,0.0,0.0,0.0,0.0,0.0,0.0,0.0,0.0,0.0,0.0,0.0,0.0,0.0,0.0,0.0,0.0,0.0,0.0,0.0,0.0,0.0,0.0,0.0,0.0,0.0,0.0,0.0,0.0,0.0,0.0,0.0,0.0,0.0,0.0,0.0,0.0,0.0,0.0,0.0,0.0,0.0,0.0,0.0,0.0,0.0,0.0,0.0,0.0,0.0,0.0,0.0,0.0,0.0,0.0,0.0,0.0,0.0,0.0,0.0,0.0,0.0,0.0,0.0,0.0,0.0,0.0,0.0,0.0,0.0,0.0,0.0,0.0,0.0,0.0,0.0,0.0,0.0,0.0,0.0,0.0,0.0,0.0,0.0,0.0,0.0,0.0,0.0,0.0,0.0,0.0,0.0,0.0,0.0,0.0,0.0,0.0,0.0,0.0,-0.2047,-0.2137,-0.2168,-0.2241,-0.1501,-0.0633,0.0,0.0,0.0,0.0,0.0,0.0,0.0,0.0,0.0,0.0,0.0,0.0,0.0,0.0,0.0,0.0,0.0,0.0,0.0,0.0,0.0,0.0,0.0,0.0,0.0,0.0,0.0,0.0,0.0,0.0,0.0,0.0,0.0,0.0,0.0,0.0,0.0,0.0,0.0,0.0,0.0,0.0,0.0,0.0,0.0,0.0,0.0,0.0,0.0,0.0,0.0,0.0,0.0,0.0,0.0,0.0,0.0,0.0,0.0,0.0,0.0,0.0,0.0,0.0,0.0,0.0,0.0,0.0,0.0,0.0,0.0,0.0,0.0,0.0,0.0,0.0,0.0,0.0,0.0,0.0,0.0,0.0,0.0,0.0,0.0,0.0,0.0,0.0,0.0,0.0,0.0,0.0,0.0,0.0,0.0,0.0,0.0,0.0,0.0,0.0,0.0,0.0,0.0,0.0,0.0,0.0,0.0,0.0,0.0,-0.5151,-0.4228,-0.3707,-0.3693,-0.3035,-0.2087,-0.0888,0.0,0.0,0.0,0.0,0.0,0.0,0.0,0.0,0.0,0.0,0.0,0.0,0.0,0.0,0.0,0.0,0.0,0.0,0.0,0.0,0.0,0.0,0.0,0.0,0.0,0.0,0.0,0.0,0.0,0.0,0.0,0.0,0.0,0.0,0.0,0.0,0.0,0.0,0.0,0.0,0.0,0.0,0.0,0.0,0.0,0.0,0.0,0.0,0.0,0.0,0.0,0.0,0.0,0.0,0.0,0.0,0.0,0.0,0.0,0.0,0.0,0.0,0.0,0.0,0.0,0.0,0.0,0.0,0.0,0.0,0.0,0.0,0.0,0.0,0.0,0.0,0.0,0.0,0.0,0.0,0.0,0.0,0.0,0.0,0.0,0.0,0.0,0.0,0.0,0.0,0.0,0.0,0.0,0.0,0.0,0.0,0.0,0.0,0.0,0.0,0.0,0.0,0.0,0.0,0.0,0.0,0.0,0.0,-0.9046,-0.6359,-0.4931,-0.4868,-0.4671,-0.3682,0.0,0.0,0.0,0.0,0.0,0.0,0.0,0.0,0.0,0.0,0.0,0.0,0.0,0.0,0.0,0.0,0.0,0.0,0.0,0.0,0.0,0.0,0.0,0.0,0.0,0.0,0.0,0.0,0.0,0.0,0.0,0.0,0.0,0.0,0.0,0.0,0.0,0.0,0.0,0.0,0.0,0.0,0.0,0.0,0.0,0.0,0.0,0.0,0.0,0.0,0.0,0.0,0.0,0.0,0.0,0.0,0.0,0.0,0.0,0.0,0.0,0.0,0.0,0.0,0.0,0.0,0.0,0.0,0.0,0.0,0.0,0.0,0.0,0.0,0.0,0.0,0.0,0.0,0.0,0.0,0.0,0.0,0.0,0.0,0.0,0.0,0.0,0.0,0.0,0.0,0.0,0.0,0.0,0.0,0.0,0.0,0.0,0.0,0.0,0.0,0.0,0.0,0.0,0.0,0.0,0.0,0.0,0.0,0.0,-0.8695,-0.8075,-0.7476,-0.6969,-0.6089,-0.5034,0.0,0.0,0.0,0.0,0.0,0.0,0.0,0.0,0.0,0.0,0.0,0.0,0.0,0.0,0.0,0.0,0.0,0.0,0.0,0.0,0.0,0.0,0.0,0.0,0.0,0.0,0.0,0.0,0.0,0.0,0.0,0.0,0.0,0.0,0.0,0.0,0.0,0.0,0.0,0.0,0.0,0.0,0.0,0.0,0.0,0.0,0.0,0.0,0.0,0.0,0.0,0.0,0.0,0.0,0.0,0.0,0.0,0.0,0.0,0.0,0.0,0.0,0.0,0.0,0.0,0.0,0.0,0.0,0.0,0.0,0.0,0.0,0.0,0.0,0.0,0.0,0.0,0.0,0.0,0.0,0.0,0.0,0.0,0.0,0.0,0.0,0.0,0.0,0.0,0.0,0.0,0.0,0.0,0.0,0.0,0.0,0.0,0.0,0.0,0.0,0.0,0.0,0.0,0.0,0.0,0.0,0.0,0.0,-1.0242,-1.0495,-1.0484,-1.004,-0.9207,-0.7367,-0.5992,0.0,0.0,0.0,0.0,0.0,0.0,0.0,0.0,0.0,0.0,0.0,0.0,0.0,0.0,0.0,0.0,0.0,0.0,0.0,0.0,0.0,0.0,0.0,0.0,0.0,0.0,0.0,0.0,0.0,0.0,0.0,0.0,0.0,0.0,0.0,0.0,0.0,0.0,0.0,0.0,0.0,0.0,0.0,0.0,0.0,0.0,0.0,0.0,0.0,0.0,0.0,0.0,0.0,0.0,0.0,0.0,0.0,0.0,0.0,0.0,0.0,0.0,0.0,0.0,0.0,0.0,0.0,0.0,0.0,0.0,0.0,0.0,0.0,0.0,0.0,0.0,0.0,0.0,0.0,0.0,0.0,0.0,0.0,0.0,0.0,0.0,0.0,0.0,0.0,0.0,0.0,0.0,0.0,0.0,0.0,0.0,0.0,0.0,0.0,0.0,0.0,0.0,0.0,0.0,0.0,0.0,0.0,0.0,-1.2326,-1.3172,-1.2927,-1.2263,-1.1201,-0.8581,-0.6826,0.0,0.0,0.0,0.0,0.0,0.0,0.0,0.0,0.0,0.0,0.0,0.0,0.0,0.0,0.0,0.0,0.0,0.0,0.0,0.0,0.0,0.0,0.0,0.0,0.0,0.0,0.0,0.0,0.0,0.0,0.0,0.0,0.0,0.0,0.0,0.0,0.0,0.0,0.0,0.0,0.0,0.0,0.0,0.0,0.0,0.0,0.0,0.0,0.0,0.0,0.0,0.0,0.0,0.0,0.0,0.0,0.0,0.0,0.0,0.0,0.0,0.0,0.0,0.0,0.0,0.0,0.0,0.0,0.0,0.0,0.0,0.0,0.0,0.0,0.0,0.0,0.0,0.0,0.0,0.0,0.0,0.0,0.0,0.0,0.0,0.0,0.0,0.0,0.0,0.0,0.0,0.0,0.0,0.0,0.0,0.0,0.0,0.0,0.0,0.0,0.0,0.0,0.0,0.0,0.0,0.0,0.0,0.0,-1.3892,-1.3872,-1.3493,-1.2841,-1.1989,-1.0122,-0.8324,0.0,0.0,0.0,0.0,0.0,0.0,0.0,0.0,0.0,0.0,0.0,0.0,0.0,0.0,0.0,0.0,0.0,0.0,0.0,0.0,0.0,0.0,0.0,0.0,0.0,0.0,0.0,0.0,0.0,0.0,0.0,0.0,0.0,0.0,0.0,0.0,0.0,0.0,0.0,0.0,0.0,0.0,0.0,0.0,0.0,0.0,0.0,0.0,-0.265,0.0,0.0,0.0,0.0,0.0,0.0,0.0,0.0,0.0,0.0,0.0,0.0,0.0,0.0,0.0,0.0,0.0,0.0,0.0,0.0,0.0,0.0,0.0,0.0,0.0,0.0,0.0,0.0,0.0,0.0,0.0,0.0,0.0,0.0,0.0,0.0,0.0,0.0,0.0,0.0,0.0,0.0,0.0,0.0,0.0,0.0,0.0,0.0,0.0,0.0,0.0,0.0,0.0,0.0,0.0,0.0,0.0,0.0,0.0,-1.4804,-1.4663,-1.409,-1.356,-1.3109,-1.1535,-0.9896,0.0,0.0,0.0,0.0,0.0,0.0,0.0,0.0,0.0,0.0,0.0,0.0,0.0,0.0,0.0,0.0,0.0,0.0,0.0,0.0,0.0,0.0,0.0,0.0,0.0,0.0,0.0,0.0,0.0,0.0,0.0,0.0,0.0,0.0,0.0,0.0,0.0,0.0,0.0,0.0,0.0,0.0,0.0,0.0,0.0,0.0,0.0,0.0,0.0,0.0,0.0,0.0,0.0,0.0,0.0,0.0,0.0,0.0,0.0,0.0,0.0,0.0,0.0,0.0,0.0,0.0,0.0,0.0,0.0,0.0,0.0,0.0,0.0,0.0,0.0,0.0,0.0,0.0,0.0,0.0,0.0,0.0,0.0,0.0,0.0,0.0,0.0,0.0,0.0,0.0,0.0,0.0,0.0,0.0,0.0,0.0,0.0,0.0,0.0,0.0,0.0,0.0,0.0,0.0,0.0,0.0,0.0,-1.4768,-1.5643,-1.5638,-1.5058,-1.461,-1.4373,-1.3036,-1.1657,-1.0221,0.0,0.0,0.0,0.0,0.0,0.0,0.0,0.0,0.0,0.0,0.0,0.0,0.0,0.0,0.0,0.0,0.0,0.0,0.0,0.0,0.0,0.0,0.0,0.0,0.0,0.0,0.0,0.0,0.0,0.0,0.0,0.0,0.0,0.0,0.0,0.0,0.0,0.0,-0.3111,-0.3586,0.0,0.0,0.0,0.0,0.0,0.0,0.0,0.0,-0.4522,0.0,0.0,0.0,0.0,0.0,0.0,0.0,0.0,0.0,0.0,0.0,0.0,0.0,0.0,0.0,0.0,0.0,0.0,0.0,0.0,0.0,0.0,0.0,0.0,0.0,0.0,0.0,0.0,0.0,0.0,0.0,0.0,0.0,0.0,0.0,0.0,0.0,0.0,0.0,0.0,0.0,0.0,0.0,0.0,0.0,0.0,0.0,0.0,0.0,0.0,0.0,0.0,0.0,0.0,0.0,0.0,-1.4409,-1.6037,-1.7042,-1.7389,-1.7154,-1.6419,-1.5168,-1.4867,-1.4019,-1.2467,0.0,0.0,0.0,0.0,0.0,0.0,0.0,0.0,0.0,0.0,0.0,0.0,0.0,0.0,0.0,0.0,0.0,0.0,0.0,0.0,0.0,0.0,0.0,0.0,0.0,0.0,0.0,0.0,0.0,0.0,0.0,0.0,0.0,0.0,0.0,0.0,0.0,0.0,0.0,-0.5644,-0.6714,0.0,0.0,0.0,0.0,0.0,0.0,0.0,0.0,-0.8729,0.0,0.0,0.0,0.0,0.0,0.0,0.0,0.0,0.0,0.0,0.0,0.0,0.0,0.0,0.0,0.0,0.0,0.0,0.0,0.0,0.0,0.0,0.0,0.0,0.0,0.0,0.0,0.0,0.0,0.0,0.0,0.0,0.0,0.0,0.0,0.0,0.0,0.0,0.0,0.0,0.0,0.0,0.0,0.0,0.0,0.0,0.0,0.0,0.0,0.0,0.0,0.0,0.0,0.0,0.0,-1.5169,-1.6699,-1.7602,-1.779,-1.7693,-1.7086,-1.5946,-1.5524,-1.4769,0.0,0.0,0.0,0.0,0.0,0.0,0.0,0.0,0.0,0.0,0.0,0.0,0.0,0.0,0.0,0.0,0.0,0.0,0.0,0.0,0.0,0.0,0.0,0.0,0.0,0.0,0.0,0.0,0.0,0.0,0.0,0.0,0.0,0.0,0.0,0.0,0.0,0.0,0.0,0.0,-0.8122,-0.8761,-0.9613,0.0,0.0,0.0,0.0,0.0,0.0,-1.0388,-1.0221,0.0,0.0,0.0,0.0,0.0,0.0,0.0,0.0,0.0,0.0,0.0,0.0,0.0,0.0,0.0,0.0,0.0,0.0,0.0,0.0,0.0,0.0,0.0,0.0,0.0,0.0,0.0,0.0,0.0,0.0,0.0,0.0,0.0,0.0,0.0,0.0,0.0,0.0,0.0,0.0,0.0,0.0,0.0,0.0,0.0,0.0,0.0,0.0,0.0,0.0,0.0,0.0,0.0,0.0,0.0,-1.5396,-1.6907,-1.7747,-1.7867,-1.7855,-1.7468,-1.6736,-1.6118,-1.5361,0.0,0.0,0.0,0.0,0.0,0.0,0.0,0.0,0.0,0.0,0.0,0.0,0.0,0.0,0.0,0.0,0.0,0.0,0.0,0.0,0.0,0.0,0.0,0.0,0.0,0.0,0.0,0.0,0.0,0.0,0.0,0.0,0.0,0.0,0.0,0.0,0.0,0.0,0.0,0.0,0.0,-1.0942,-1.1736,-1.1535,0.0,0.0,0.0,0.0,-1.167,-1.1876,0.0,0.0,0.0,0.0,0.0,0.0,0.0,0.0,0.0,0.0,0.0,0.0,0.0,0.0,0.0,0.0,0.0,0.0,0.0,0.0,0.0,0.0,0.0,0.0,0.0,0.0,0.0,0.0,0.0,0.0,0.0,0.0,0.0,0.0,0.0,0.0,0.0,0.0,0.0,0.0,0.0,0.0,0.0,0.0,0.0,0.0,0.0,0.0,0.0,0.0,0.0,0.0,0.0,0.0,0.0,0.0,-1.5027,-1.6467,-1.7581,-1.8198,-1.8439,-1.8221,-1.7495,-1.7374,-1.6676,0.0,0.0,0.0,0.0,0.0,0.0,0.0,0.0,0.0,0.0,0.0,0.0,0.0,0.0,0.0,0.0,0.0,0.0,0.0,0.0,0.0,0.0,0.0,0.0,0.0,0.0,0.0,0.0,0.0,0.0,0.0,0.0,0.0,0.0,0.0,0.0,0.0,0.0,0.0,0.0,0.0,-1.3945,-1.5761,-1.6071,-1.6102,0.0,0.0,-1.6102,-1.615,-1.638,0.0,0.0,0.0,0.0,0.0,0.0,0.0,0.0,0.0,0.0,0.0,0.0,0.0,0.0,0.0,0.0,0.0,0.0,0.0,0.0,0.0,0.0,0.0,0.0,0.0,0.0,0.0,0.0,0.0,0.0,0.0,0.0,0.0,0.0,0.0,0.0,0.0,0.0,0.0,0.0,0.0,0.0,0.0,0.0,0.0,0.0,0.0,0.0,0.0,0.0,0.0,0.0,0.0,0.0,0.0,-1.5118,-1.5619,-1.7044,-1.7991,-1.8304,-1.8961,-1.8768,-1.7633,-1.7605,-1.6912,0.0,0.0,0.0,0.0,0.0,0.0,0.0,0.0,0.0,0.0,0.0,0.0,0.0,0.0,0.0,0.0,0.0,0.0,0.0,0.0,0.0,0.0,0.0,0.0,0.0,0.0,0.0,0.0,0.0,0.0,0.0,0.0,0.0,0.0,0.0,0.0,0.0,0.0,0.0,0.0,0.0,0.0,-1.6869,-1.6944,0.0,0.0,0.0,-1.6917,-1.7101,0.0,0.0,0.0,0.0,0.0,0.0,0.0,0.0,0.0,0.0,0.0,0.0,0.0,0.0,0.0,0.0,0.0,0.0,0.0,0.0,0.0,0.0,0.0,0.0,0.0,0.0,0.0,0.0,0.0,0.0,0.0,0.0,0.0,0.0,0.0,0.0,0.0,0.0,0.0,0.0,0.0,0.0,0.0,0.0,0.0,0.0,0.0,0.0,0.0,0.0,0.0,0.0,0.0,0.0,0.0,0.0,0.0,-1.5928,-1.7139,-1.7857,-1.8125,-1.8863,-1.8794,-1.7907,-1.7677,0.0,0.0,0.0,0.0,0.0,0.0,0.0,0.0,0.0,0.0,0.0,0.0,0.0,0.0,0.0,0.0,0.0,0.0,0.0,0.0,0.0,0.0,0.0,0.0,0.0,0.0,0.0,-0.3137,0.0,0.0,0.0,0.0,0.0,0.0,0.0,0.0,0.0,0.0,0.0,0.0,0.0,0.0,-1.7179,-1.7854,-1.8088,-1.8248,0.0,0.0,-1.8574,-1.8635,-1.8474,-1.8246,0.0,0.0,0.0,0.0,0.0,0.0,0.0,0.0,0.0,0.0,0.0,0.0,0.0,0.0,0.0,0.0,0.0,0.0,0.0,0.0,0.0,0.0,0.0,0.0,0.0,0.0,0.0,0.0,0.0,0.0,0.0,0.0,0.0,0.0,0.0,0.0,0.0,0.0,0.0,0.0,0.0,0.0,0.0,0.0,0.0,0.0,0.0,0.0,0.0,0.0,0.0,0.0,0.0,0.0,0.0,-1.5469,-1.5969,-1.6748,-1.7617,-1.7699,-1.8031,-1.8608,-1.7961,-1.7066,0.0,0.0,0.0,0.0,0.0,0.0,0.0,0.0,0.0,0.0,0.0,0.0,0.0,0.0,0.0,0.0,0.0,0.0,0.0,0.0,0.0,0.0,0.0,0.0,0.0,0.0,0.0,0.0,0.0,0.0,0.0,0.0,0.0,0.0,0.0,0.0,0.0,0.0,0.0,0.0,0.0,-1.9033,-1.9649,-2.0843,-2.1645,0.0,-2.2472,-2.2901,-2.2374,-2.1643,-2.074,-1.9618,0.0,0.0,0.0,0.0,0.0,0.0,0.0,0.0,0.0,0.0,0.0,0.0,0.0,0.0,0.0,0.0,0.0,0.0,0.0,0.0,0.0,0.0,0.0,0.0,0.0,0.0,0.0,0.0,0.0,0.0,0.0,0.0,0.0,0.0,0.0,0.0,0.0,0.0,0.0,0.0,0.0,0.0,0.0,0.0,0.0,0.0,0.0,0.0,0.0,0.0,0.0,0.0,0.0,-1.5375,-1.6065,-1.6707,-1.7422,-1.8244,-1.8715,-1.865,-1.8043,-1.777,-1.6965,0.0,0.0,0.0,0.0,0.0,0.0,0.0,0.0,0.0,0.0,0.0,0.0,0.0,0.0,0.0,0.0,0.0,0.0,0.0,0.0,0.0,0.0,0.0,0.0,0.0,0.0,0.0,0.0,-0.6661,-0.6908,-0.75,0.0,0.0,0.0,0.0,0.0,0.0,0.0,0.0,0.0,0.0,-1.9765,-2.0255,-2.0786,0.0,0.0,-2.2659,-2.2956,-2.2348,-2.2317,-2.1845,-2.0466,-1.921,0.0,0.0,0.0,0.0,0.0,0.0,0.0,0.0,0.0,0.0,0.0,0.0,0.0,0.0,0.0,0.0,0.0,0.0,0.0,0.0,0.0,0.0,0.0,0.0,0.0,0.0,0.0,0.0,0.0,0.0,0.0,0.0,0.0,0.0,0.0,0.0,0.0,0.0,0.0,0.0,0.0,0.0,0.0,0.0,0.0,0.0,0.0,0.0,0.0,0.0,0.0,0.0,-1.5244,-1.6169,-1.6894,-1.7633,-1.8367,-1.9097,-1.9071,-1.8313,-1.8031,-1.739,0.0,0.0,0.0,0.0,0.0,0.0,0.0,0.0,0.0,0.0,0.0,0.0,0.0,0.0,0.0,0.0,0.0,0.0,0.0,0.0,0.0,0.0,0.0,0.0,0.0,0.0,0.0,0.0,-0.8022,-0.8409,-0.8849,0.0,0.0,0.0,0.0,0.0,0.0,0.0,0.0,0.0,0.0,-2.0225,-2.0556,-2.1088,-2.1707,-2.2366,-2.3453,-2.3853,-2.2841,-2.3015,-2.2804,-2.1225,0.0,0.0,0.0,0.0,0.0,0.0,0.0,0.0,0.0,0.0,0.0,0.0,0.0,0.0,0.0,0.0,0.0,0.0,0.0,0.0,0.0,0.0,0.0,0.0,0.0,0.0,0.0,-0.8746,0.0,0.0,-0.8726,0.0,0.0,0.0,0.0,0.0,0.0,0.0,0.0,0.0,0.0,0.0,0.0,0.0,0.0,0.0,0.0,0.0,0.0,0.0,0.0,0.0,0.0,-1.5019,-1.5429,-1.6179,-1.6894,-1.7633,-1.834,-1.9018,-1.9605,-1.9044,-1.8451,-1.7952,0.0,0.0,0.0,0.0,0.0,0.0,0.0,0.0,0.0,0.0,0.0,0.0,0.0,0.0,0.0,0.0,0.0,0.0,0.0,0.0,0.0,0.0,0.0,0.0,0.0,0.0,-0.7819,-0.8777,-0.9619,0.0,0.0,0.0,0.0,0.0,0.0,0.0,0.0,0.0,0.0,-1.9696,-2.0586,-2.0605,-2.2199,-2.3305,-2.3427,-2.5517,-2.6447,-2.4457,-2.421,-2.3709,0.0,0.0,0.0,0.0,0.0,0.0,0.0,0.0,0.0,0.0,0.0,0.0,0.0,0.0,0.0,0.0,0.0,0.0,0.0,0.0,0.0,0.0,0.0,0.0,0.0,0.0,0.0,-1.0088,-1.0232,0.0,0.0,0.0,0.0,0.0,0.0,0.0,0.0,0.0,0.0,0.0,-1.1269,-1.1082,0.0,0.0,0.0,0.0,0.0,0.0,0.0,0.0,0.0,0.0,0.0,0.0,-1.5244,-1.6102,-1.6379,-1.6877,-1.7578,-1.7841,-1.7841,-1.7605,-1.7825,-1.7402,-1.6218,0.0,0.0,0.0,0.0,0.0,0.0,0.0,0.0,0.0,0.0,0.0,0.0,0.0,0.0,0.0,0.0,0.0,0.0,0.0,0.0,0.0,0.0,0.0,0.0,0.0,-1.0044,0.0,0.0,0.0,0.0,0.0,0.0,0.0,0.0,0.0,0.0,0.0,-1.8443,-1.9754,-2.0314,-2.0615,-2.0615,-2.1165,-2.2153,0.0,0.0,0.0,0.0,0.0,0.0,0.0,0.0,0.0,0.0,0.0,0.0,0.0,0.0,-1.554,-1.3067,-1.2589,-1.2273,-1.1306,0.0,0.0,0.0,0.0,0.0,0.0,0.0,0.0,0.0,0.0,0.0,0.0,0.0,0.0,-1.1089,0.0,-1.0995,0.0,0.0,0.0,0.0,0.0,0.0,0.0,0.0,-1.1349,-1.1496,-1.1577,-1.149,-1.155,0.0,-1.1536,-1.1202,0.0,0.0,0.0,0.0,0.0,0.0,0.0,0.0,-1.5393,-1.6083,-1.6379,-1.6736,-1.7191,-1.7468,-1.7385,-1.6922,-1.7594,-1.7176,-1.55,-1.5236,-1.454,0.0,0.0,0.0,0.0,0.0,0.0,0.0,0.0,0.0,0.0,0.0,0.0,0.0,0.0,0.0,0.0,0.0,0.0,0.0,0.0,0.0,0.0,0.0,-1.1109,0.0,0.0,0.0,0.0,0.0,0.0,0.0,0.0,0.0,-1.7294,-1.816,-1.9192,-2.0624,-2.0703,-2.0664,-2.0781,0.0,0.0,0.0,0.0,0.0,0.0,0.0,-2.5225,-2.3958,-2.2554,-2.1582,-2.1239,-2.0671,-1.9838,-1.8579,0.0,0.0,-1.4998,-1.4462,-1.4042,-1.2767,-1.3372,-1.385,-1.3225,-1.3554,-1.3926,0.0,0.0,0.0,0.0,0.0,0.0,0.0,0.0,-1.1429,-1.1303,0.0,-1.1042,0.0,0.0,0.0,0.0,0.0,-1.1611,0.0,0.0,-1.1997,-1.2144,-1.1946,-1.2158,-1.2291,-1.2305,-1.2285,-1.2138,-1.1893,-1.159,0.0,0.0,0.0,0.0,0.0,0.0,-1.542,-1.5469,-1.6124,-1.6485,-1.6492,-1.7146,-1.7523,-1.755,-1.8205,-1.7699,-1.6009,-1.6497,-1.6025,-1.4194,-1.3714,0.0,0.0,0.0,0.0,0.0,0.0,0.0,0.0,0.0,0.0,0.0,0.0,0.0,0.0,0.0,0.0,0.0,0.0,0.0,0.0,-1.0861,0.0,0.0,0.0,0.0,0.0,0.0,0.0,0.0,0.0,0.0,-1.8386,-1.8858,-1.9608,-2.1002,0.0,0.0,0.0,0.0,-2.2498,-2.4058,-2.5506,-2.6489,-2.6586,-2.649,-2.5901,-2.4448,0.0,0.0,-2.1337,-2.1562,-2.1281,-1.9752,-1.9713,-1.9193,-1.6665,-1.6172,-1.5716,-1.4481,-1.4989,-1.5674,-1.5707,-1.536,-1.5409,-1.3,0.0,0.0,0.0,0.0,-1.2231,-1.2171,-1.2388,-1.2138,-1.1891,-1.1651,-1.1651,0.0,0.0,0.0,0.0,0.0,0.0,-1.1623,-1.1785,-1.1917,-1.2094,-1.2178,-1.2265,-1.2305,-1.2305,-1.2305,-1.2258,-1.2178,-1.2098,-1.1991,-1.1866,0.0,0.0,0.0,0.0,-1.5507,-1.5898,-1.6108,-1.6038,-1.5729,-1.5911,-1.6273,-1.6793,-1.65,-1.6186,-1.59,-1.5611,-1.5008,-1.416,-1.3987,0.0,0.0,0.0,0.0,0.0,0.0,0.0,0.0,0.0,0.0,0.0,0.0,0.0,0.0,0.0,0.0,0.0,0.0,0.0,-1.1136,-1.1069,-1.1356,0.0,0.0,0.0,0.0,0.0,0.0,0.0,0.0,0.0,-1.9124,-2.0052,-2.0724,0.0,0.0,-2.0977,-2.0781,-2.0907,-2.1649,-2.3463,-2.4111,0.0,-2.6308,-2.5584,-2.4794,-2.4651,-2.3232,-2.1875,-2.1288,-2.1074,-2.0819,-2.031,-2.0356,-1.9946,-1.851,-1.7705,-1.7114,-1.6523,-1.6444,-1.6509,-1.675,-1.6293,-1.5899,-1.3721,-1.352,-1.3106,-1.3039,-1.316,-1.2685,-1.2616,-1.2757,-1.2432,-1.2204,-1.2074,-1.2074,-1.1913,-1.1603,-1.1603,0.0,0.0,0.0,-1.187,-1.2037,-1.2074,-1.2131,-1.2298,-1.2305,-1.2305,-1.2305,-1.2305,-1.2305,-1.2305,-1.2305,-1.2221,-1.208,0.0,0.0,-1.4179,-1.4921,-1.546,-1.5782,-1.6164,-1.6113,-1.5684,-1.5498,-1.5613,-1.6026,-1.5921,-1.579,-1.5685,-1.5555,-1.5211,-1.4648,-1.4455,-1.4277,0.0,0.0,0.0,0.0,0.0,0.0,0.0,0.0,0.0,0.0,0.0,-1.0955,-1.078,0.0,0.0,0.0,-1.0835,-1.1136,-1.1717,-1.1724,0.0,0.0,0.0,0.0,0.0,0.0,0.0,-1.5535,-1.6555,-1.767,-1.8943,-2.0214,-2.1116,-2.1432,-2.1298,-2.1201,-2.1094,0.0,-2.1491,-2.3238,-2.3503,-2.4148,-2.5913,-2.5068,-2.4116,-2.371,-2.2559,-2.1525,-2.1045,-2.0742,-2.0615,-2.0615,-2.0615,-2.0391,-1.9766,-1.9236,-1.8516,-1.7538,-1.7315,-1.7305,-1.7198,-1.6765,-1.6507,-1.4088,-1.4041,-1.35,-1.3267,-1.322,-1.2951,-1.2804,-1.2764,-1.2496,-1.2331,-1.2305,-1.2305,-1.2164,-1.198,-1.1973,0.0,-1.1993,-1.2254,-1.2318,-1.2305,-1.2305,-1.2305,-1.2305,-1.2305,-1.2305,-1.2305,-1.2305,-1.2305,-1.2305,-1.2305,-1.2171,-1.1946,-1.2678,-1.3044,-1.3182,-1.448,-1.5231,-1.5366,-1.6175,-1.6468,-1.6153,-1.5684,-1.5459,-1.5469,-1.6085,-1.6093,-1.5468,-1.6036,-1.6093,-1.542,-1.5077,-1.4842,-1.4793,0.0,0.0,0.0,0.0,0.0,0.0,0.0,0.0,0.0,0.0,0.0,0.0,0.0,0.0,0.0,-1.1323,0.0,-1.2251,-1.261,0.0,0.0,0.0,-1.3367,-1.364,-1.3955,-1.4537,-1.5529,0.0,0.0,-1.8197,-1.9644,-2.0875,-2.1633,-2.1461,-2.1406,-2.1738,-2.1435,-2.172,-2.3007,-2.3322,-2.3852,-2.4986,-2.4523,-2.3454,-2.2203,-2.1463,-2.1064,-2.0693,-2.0625,-2.0615,-2.0615,-2.0615,-2.0566,-2.0615,-2.0508,-1.9962,-1.8029,-1.8,-1.8115,-1.735,-1.7182,-1.7225,-1.4088,-1.4117,-1.3935,-1.3748,-1.3473,-1.3227,-1.2959,-1.2784,-1.271,-1.2556,-1.2305,-1.2305,-1.2422,-1.2569,-1.2576,-1.2576,-1.2576,-1.265,-1.2556,-1.2311,-1.2305,-1.2305,-1.2305,-1.2305,-1.2305,-1.2305,-1.2305,-1.2305,-1.2305,-1.2305,-1.2271,-1.2204,-1.2374,-1.2727,-1.3247,-1.3812,-1.462,-1.5761,-1.5969,-1.6244,-1.6519,-1.6133,-1.5928,-1.5938,-1.5762,-1.5584,-1.542,-1.5584,-1.5584,-1.54,-1.5312,-1.5117,-1.4823,-1.459,0.0,0.0,0.0,0.0,0.0,0.0,0.0,0.0,0.0,-1.147,-1.1029,0.0,-1.1692,0.0,-1.1924,-1.2151,-1.2285,-1.2572,0.0,0.0,-1.35,-1.3706,-1.4255,-1.4376,-1.4589,-1.5112,-1.6284,-1.7176,-1.7444,-1.8819,-1.9927,-2.0407,-2.118,-2.1533,-2.1036,-2.1103,-2.131,-2.1699,-2.2099,-2.2379,-2.2798,-2.2622,-2.2236,-2.1505,-2.1259,-2.1044,-2.0683,-2.0615,-2.0615,-2.0615,-2.0615,-2.0615,-2.0615,-2.0615,-2.045,-1.9905,-1.9421,-1.8891,-1.8224,-1.7953,-1.7688,-1.4088,-1.4088,-1.4088,-1.3915,-1.3586,-1.3433,-1.3153,-1.2804,-1.2931,-1.2705,-1.2311,-1.2438,-1.263,-1.2746,-1.237,-1.2226,-1.2214,-1.2055,-1.1878,-1.1765,-1.2129,-1.2305,-1.2305,-1.2305,-1.2305,-1.2305,-1.2305,-1.2305,-1.2305,-1.2305,-1.2402,-1.2536,-1.2371,-1.2535,-1.3092,-1.3477,-1.4106,-1.4919,-1.558,-1.6039,-1.6327,-1.6353,-1.6269,-1.6095,-1.6025,-1.5781,-1.543,-1.5586,-1.5605,-1.543,-1.542,-1.5187,-1.4778,-1.4551,-1.4218,0.0,0.0,0.0,0.0,0.0,0.0,0.0,0.0,0.0,0.0,0.0,-1.2154,-1.2288,-1.2532,-1.2721,-1.2847,-1.3166,-1.3514,-1.3766,-1.3841,-1.4075,-1.4656,-1.4716,-1.483,-1.5169,-1.5917,-1.6404,-1.6418,-1.7591,-1.8462,-1.8473,-1.9579,-2.0472,-2.0855,-2.124,-2.1465,-2.1239,-2.1602,-2.1807,-2.1641,-2.1592,-2.1514,-2.1239,-2.1074,-2.084,-2.0654,-2.0615,-2.0615,-2.0615,-2.0615,-2.0615,-2.0615,-2.0615,-2.0489,-1.9964,-1.9716,-1.9088,-1.7866,-1.7615,-1.7404,-1.387,-1.3864,-1.3695,-1.3442,-1.3143,-1.3216,-1.2986,-1.2659,-1.289,-1.257,-1.1956,-1.2246,-1.2369,-1.2383,-1.1665,-1.133,-1.1318,-1.1022,-1.0885,-1.0855,-1.1596,-1.1924,-1.1892,-1.1892,-1.1959,-1.2114,-1.2114,-1.2187,-1.2305,-1.2305,-1.2489,-1.2795,-1.2529,-1.2529,-1.2802,-1.3327,-1.3601,-1.3702,-1.5118,-1.5808,-1.5799,-1.6216,-1.6255,-1.5932,-1.6141,-1.594,-1.5203,-1.5549,-1.5568,-1.5194,-1.5174,-1.5014,-1.4626,-1.4219,-1.3768,0.0,-1.2404,0.0,0.0,0.0,0.0,0.0,0.0,0.0,0.0,-1.2265,-1.2565,-1.2824,-1.3159,-1.3407,-1.358,-1.3915,-1.4088,-1.4088,-1.4088,-1.4352,-1.4874,-1.4955,-1.5068,-1.5304,-1.5337,-1.5351,-1.5483,-1.6327,-1.6831,-1.6906,-1.768,-1.8888,-2.0419,-2.1135,-2.1327,-2.114,-2.1465,-2.1494,-2.123,-2.1152,-2.1143,-2.1094,-2.085,-2.0615,-2.0615,-2.0615,-2.0615,-2.0615,-2.0615,-2.0615,-2.0615,-2.0479,-2.005,-1.9234,-1.9245,-1.8636,-1.6889,-1.6818,-1.6696,-1.2632,-1.2553,-1.1649,-1.1086,-1.0888,-1.107,-1.1383,-1.1738,-1.1786,-1.1157,-1.0059,-1.0101,-1.0218,-1.045,-1.0444,-1.0429,-1.0429,-1.0383,-1.0121,-0.9805,-0.9958,-0.9991,-0.9868,-0.9863,-1.0308,-1.105,-1.1087,-1.1502,-1.2305,-1.2305,-1.2489,-1.2777,-1.2723,-1.273,-1.2815,0.0,0.0,0.0,-1.477,-1.5337,-1.5329,-1.5044,-1.4892,-1.4807,-1.4298,0.0,-1.3791,-1.385,-1.389,-1.3791,-1.4039,0.0,0.0,0.0,0.0,0.0,0.0,0.0,0.0,0.0,0.0,0.0,-1.2164,-1.2158,-1.2238,-1.29,-1.3273,-1.316,-1.3607,-1.3848,-1.3626,-1.3915,-1.4088,-1.4088,-1.4088,-1.4222,-1.4563,-1.4603,-1.4716,-1.5003,-1.5089,-1.5182,-1.5403,-1.5621,-1.6032,-1.6763,-1.7116,-1.7692,-1.8649,-1.954,-2.0195,-2.0594,-2.0721,-2.0781,-2.0703,-2.0635,-2.0536,-2.0723,-2.0683,-2.0527,-2.0489,-2.0527,-2.0566,-2.0527,-2.0615,-2.0527,-2.0527,-1.9923,-1.9204,-1.9036,-1.8184,-1.6977,-1.5466,-1.6225,-1.6552,-1.1472,0.0,-1.0826,-1.0502,0.0,-1.0522,-1.0441,-1.024,-1.082,-1.0536,-0.9697,-0.9692,-0.9757,-0.9877,-0.9667,-0.9557,-0.9548,-0.9366,-0.9156,-0.8903,-0.9306,-0.9421,-0.9296,-0.9296,-0.9556,-1.004,-1.0045,-1.0308,-1.0801,-1.0838,-1.1304,-1.2251,-1.208,-1.2357,-1.2959,-1.2717,-1.2706,-1.3032,-1.3991,-1.445,-1.4478,-1.4736,-1.4731,-1.4516,-1.4377,0.0,0.0,0.0,0.0,0.0,0.0,0.0,0.0,0.0,0.0,-1.3125,-1.3105,-1.2937,-1.2537,-1.2635,-1.2715,-1.2573,-1.2792,-1.2927,-1.2927,-1.3347,-1.36,-1.3654,-1.3921,-1.4028,-1.3888,-1.4001,-1.4088,-1.4088,-1.4088,-1.4202,-1.4462,-1.4516,-1.4636,-1.4948,-1.5015,-1.5122,-1.5357,-1.5398,-1.5621,-1.6106,-1.619,-1.653,-1.7329,-1.8458,-1.9295,-1.9465,-1.9304,-1.9173,-1.8984,-1.8988,-1.8988,-1.8948,-1.8988,-1.8988,-1.8988,-1.8948,-1.8988,-1.8957,-1.8988,-1.8948,-1.8948,-1.8501,-1.802,-1.7503,-1.7108,-1.6196,-1.4565,-1.4994,-1.5463,-1.0308,-1.0265,-1.0091,-0.9956,-0.9961,-1.0005,-0.9444,-0.8667,0.0,0.0,0.0,-0.9351,-0.9346,-0.9333,-0.882,-0.8588,-0.8575,-0.8303,-0.808,-0.7959,-0.8644,-0.8921,-0.877,-0.877,-0.8879,-0.9031,-0.9031,-0.9145,-0.9296,-0.9296,-1.0027,-1.1232,-1.1083,-1.1528,-1.2501,-1.2252,-1.2033,-1.207,-1.2981,-1.3462,-1.3484,-1.4235,-1.4486,-1.413,-1.4457,-1.4271,-1.3579,-1.385,-1.3873,-1.3571,-1.3603,-1.3435,-1.301,-1.2969,-1.2763,-1.2352,-1.2305,-1.2305,-1.2311,-1.2616,-1.2831,-1.2938,-1.3414,-1.366,-1.3613,-1.3653,-1.378,-1.4068,-1.4088,-1.4088,-1.4088,-1.4088,-1.4088,-1.4088,-1.4088,-1.4146,-1.4093,-1.4135,-1.4114,-1.4289,-1.4372,-1.4747,-1.4969,-1.5252,-1.5424,-1.5464,-1.5584,-1.5661,-1.6452,-1.7744,-1.8663,-1.8511,-1.833,-1.787,-1.759,-1.7564,-1.74,-1.7629,-1.7481,-1.7302,-1.7302,-1.7302,-1.7302,-1.7504,-1.7302,-1.7383,-1.7334,-1.7212,-1.6723,-1.5861,-1.5994,-1.5692,-1.384,-1.3687,-1.3992,-0.9148,-0.9061,-0.8013,-0.7573,-0.7573,-0.7573,-0.7489,-0.7349,-0.7397,-0.74,-0.7314,-0.7314,-0.7314,-0.7325,-0.7323,-0.7356,-0.7356,-0.7291,-0.7132,-0.6909,-0.7042,-0.6962,-0.6725,-0.6718,-0.7173,-0.797,-0.8012,-0.8466,-0.9221,-0.9296,-0.9596,-1.0089,-1.0109,-1.019,-1.0386,-1.0812,-1.1007,-1.105,-1.199,-1.2482,-1.2519,-1.2629,-1.2675,-1.259,-1.2498,-1.2317,-1.2199,-1.2269,-1.2233,-1.2199,-1.2391,-1.2483,-1.2414,-1.2421,-1.2368,-1.2298,-1.2305,-1.2305,-1.2311,-1.2616,-1.3012,-1.3474,-1.3834,-1.3921,-1.3633,-1.3881,-1.4041,-1.4088,-1.3997,-1.4088,-1.4088,-1.3997,-1.3955,-1.3997,-1.4046,-1.3708,-1.2765,-1.2778,-1.253,-1.1741,-1.2524,-1.3391,-1.3716,-1.4598,-1.5272,-1.5604,-1.5287,-1.5678,-1.5865,-1.7296,-1.8167,-1.8208,-1.8167,-1.8102,-1.7758,-1.7826,-1.7537,-1.7721,-1.7343,-1.7041,-1.7017,-1.7017,-1.7058,-1.722,-1.7058,-1.7139,-1.7131,-1.6519,-1.5944,-1.5523,-1.4993,-1.3986,-1.3287,-1.3212,-1.3,-0.7929,-0.7837,-0.7312,-0.7095,-0.7095,-0.7095,-0.7095,-0.7092,-0.7028,-0.6957,-0.6889,-0.6886,-0.6886,-0.69,-0.7034,-0.7095,-0.7095,-0.7095,-0.694,-0.6712,-0.6702,-0.6542,-0.6317,-0.63,-0.6528,-0.6984,-0.6984,-0.7253,-0.7629,-0.7672,-0.816,-0.9063,-0.9614,-0.9898,-0.9908,-0.9967,-0.997,-1.0002,-1.1508,-1.2305,-1.2305,-1.2305,-1.2305,-1.2298,-1.2171,-1.2104,-1.2104,-1.2104,-1.2104,-1.2104,-1.1697,-1.1502,-1.1465,-1.0981,-1.0651,-1.0651,-1.0651,-1.0709,-1.0798,-1.1134,-1.1554,-1.196,-1.2099,-1.2128,-1.197,-1.2656,-1.3118,-1.3075,-1.2601,-1.2217,-1.2217,-1.2211,-1.2211,-1.2217,-1.2217,-1.2006,-1.1609,-1.158,-1.1436,-1.1116,-1.1681,-1.2231,-1.2339,-1.3042,-1.3499,-1.3674,-1.3692,-1.3692,-1.374,-1.4321,-1.5323,-1.6406,-1.6691,-1.661,-1.6514,-1.6374,-1.6197,-1.607,-1.588,-1.5703,-1.5612,-1.5602,-1.5602,-1.5553,-1.5587,-1.556,-1.5602,-1.5179,-1.4894,-1.4789,-1.4248,-1.3594,-1.3427,-1.3119,-1.2886,-0.7125,-0.7095,-0.7095,-0.7095,-0.7095,-0.7095,-0.7095,-0.7095,-0.7095,-0.7038,-0.6943,-0.6933,-0.6933,-0.6947,-0.7048,-0.7095,-0.7095,-0.7095,-0.7,-0.677,-0.6749,-0.6614,-0.6412,-0.6368,-0.6347,-0.634,-0.6317,-0.63,-0.63,-0.63,-0.6878,-0.8004,-0.8855,-0.9219,-0.9167,-0.9091,-0.9004,-0.9074,-1.0726,-1.1626,-1.1626,-1.1626,-1.1626,-1.1626,-1.162,-1.1626,-1.162,-1.1626,-1.1626,-1.1589,-1.087,-1.0453,-1.0409,-0.9707,-0.9296,-0.9301,-0.9342,-0.945,-0.9672,-1.0003,-1.0293,-1.0595,-1.0567,-1.0611,-1.0654,-1.1128,-1.1638,-1.1772,-1.1224,-1.072,-1.0727,-1.0765,-1.0698,-1.0658,-1.0693,-1.0711,-1.0502,-1.0474,-1.0428,-1.0459,-1.083,-1.1149,-1.123,-1.1588,-1.1978,-1.2037,-1.1896,-1.1896,-1.1896,-1.1896,-1.2737,-1.3997,-1.4827,-1.5034,-1.4813,-1.5045,-1.506,-1.4743,-1.4677,-1.4638,-1.4412,-1.4233,-1.413,-1.425,-1.4208,-1.4292,-1.4166,-1.4166,-1.4166,-1.4195,-1.395,-1.368,-1.3467,-1.3019,-1.2825,-0.722,-0.7105,-0.7007,-0.7095,-0.7007,-0.7051,-0.7007,-0.7007,-0.7095,-0.7088,-0.6936,-0.7078,-0.7024,-0.7078,-0.7044,-0.7051,-0.7007,-0.7095,-0.692,-0.6784,-0.6866,-0.6778,-0.6514,-0.6475,-0.6451,-0.6394,-0.6247,-0.6074,-0.6103,-0.6232,-0.6489,-0.685,-0.7088,-0.7211,-0.7146,-0.7769,-0.8056,-0.794,-0.9031,-0.9561,-0.9561,-0.9561,-0.9566,-0.9604,-0.9599,-0.9566,-0.9712,-0.9599,-0.9599,-0.9561,-0.9518,-0.9448,-0.941,-0.9296,-0.9263,-0.9273,-0.9362,-0.9692,-1.0041,-1.0178,-1.0214,-1.0537,-1.0481,-1.0481,-1.0438,-0.9705,-0.9666,-1.0391,-1.0715,-1.0553,-1.0623,-1.0731,-1.0684,-1.0498,-1.066,-1.0627,-0.9646,-0.9515,-0.9251,-0.8213,-0.9409,-1.0111,-1.0196,-1.0951,-1.1653,-1.1458,-1.1409,-1.1458,-1.1458,-1.1458,-1.1556,-1.2249,-1.3165,-1.3867,-1.3981,-1.4793,-1.4864,-1.5009,-1.4761,-1.4257,-1.3983,-1.393,-1.4039,-1.3434,-1.3828,-1.3737,-1.3822,-1.4088,-1.3913,-1.3597,-1.3597,-1.3736,-1.332,-1.2704,-1.2394,-0.5091,-0.4999,-0.5038,-0.5041,-0.5041,-0.5038,-0.5041,-0.5038,-0.5038,-0.5041,-0.5041,-0.5041,-0.5398,-0.6071,-0.6115,-0.5711,-0.5038,-0.5038,-0.4941,-0.4765,-0.4758,-0.4704,-0.4564,-0.452,-0.451,-0.4489,-0.4445,-0.4434,-0.4562,-0.518,-0.5962,-0.666,-0.6812,-0.6895,-0.6827,-0.7091,-0.717,-0.7053,-0.7434,-0.762,-0.768,-0.8694,-0.9296,-0.9296,-0.9296,-0.9296,-0.9296,-0.9296,-0.9296,-0.9258,-0.8727,-0.8389,-0.8389,-0.7855,-0.7559,-0.763,-0.7858,-0.8034,-0.8221,-0.8322,-0.8411,-0.8528,-0.8532,-0.8528,-0.8528,-0.8101,-0.8095,-0.8597,-0.8763,-0.8808,-0.8857,-0.8944,-0.8993,-0.894,-0.8989,-0.8882,-0.8515,-0.8438,-0.827,-0.7979,-0.8439,-0.8825,-0.8871,-0.9262,-0.9558,-0.9608,-0.9604,-0.9752,-0.9653,-0.9604,-0.9604,-0.9752,-1.0725,-1.1843,-1.2565,-1.2993,-1.3288,-1.3152,-1.2831,-1.258,-1.2468,-1.2163,-1.1997,-1.2083,-1.2217,-1.2217,-1.1912,-1.204,-1.204,-1.2109,-1.1953,-1.178,-1.1307,-1.1483,-1.1563,-0.3641,-0.3604,-0.358,-0.3614,-0.3614,-0.3614,-0.3614,-0.3614,-0.3614,-0.3614,-0.3614,-0.3614,-0.3883,-0.4376,-0.4732,-0.4372,-0.366,-0.3614,-0.3542,-0.3408,-0.3406,-0.3335,-0.3241,-0.3175,-0.3185,-0.3176,-0.3174,-0.3127,-0.3213,-0.4059,-0.5035,-0.5714,-0.5918,-0.5961,-0.5924,-0.583,-0.5895,-0.6053,-0.6009,-0.6102,-0.6521,-0.7731,-0.8466,-0.8466,-0.8466,-0.8466,-0.8461,-0.8466,-0.8466,-0.8466,-0.7744,-0.7403,-0.7365,-0.6715,-0.6443,-0.6586,-0.6803,-0.6903,-0.6943,-0.7038,-0.7095,-0.7095,-0.7095,-0.7115,-0.7149,-0.7159,-0.7295,-0.7561,-0.7492,-0.7633,-0.7577,-0.7668,-0.7702,-0.7672,-0.7685,-0.7763,-0.7858,-0.7872,-0.7919,-0.7968,-0.8081,-0.7988,-0.7988,-0.8088,-0.8184,-0.8184,-0.8088,-0.7988,-0.7988,-0.8088,-0.8088,-0.8038,-0.892,-0.9895,-1.1116,-1.1881,-1.1704,-1.166,-1.162,-1.144,-1.0945,-1.0818,-1.0611,-1.1262,-1.074,-1.0654,-1.1042,-1.0869,-1.0557,-1.0555,-1.0393,-1.0243,-1.0258,-1.0476,-1.0691,-0.3718,-0.3538,-0.3555,-0.3439,-0.357,-0.3482,-0.3525,-0.3349,-0.3481,-0.3525,-0.3436,-0.3436,-0.2948,-0.2147,-0.3126,-0.3614,-0.3525,-0.3392,-0.3344,-0.3337,-0.3428,-0.3517,-0.3556,-0.3404,-0.3239,-0.304,-0.2858,-0.2922,-0.3036,-0.3356,-0.3472,-0.363,-0.3875,-0.3749,-0.3694,-0.3766,-0.4063,-0.4856,-0.4844,-0.5261,-0.6241,-0.6364,-0.6419,-0.6409,-0.649,-0.6563,-0.6528,-0.649,-0.649,-0.6454,-0.649,-0.6416,-0.6391,-0.6476,-0.66,-0.6812,-0.6876,-0.6947,-0.7058,-0.7088,-0.7095,-0.7095,-0.7095,-0.72,-0.7322,-0.7339,-0.7461,-0.7753,-0.7753,-0.7723,-0.7672,-0.7841,-0.7923,-0.7828,-0.7877,-0.7948,-0.7968,-0.7955,-0.7975,-0.7988,-0.7988,-0.7988,-0.7988,-0.7988,-0.7988,-0.7988,-0.7988,-0.7988,-0.7988,-0.7988,-0.7988,-0.7988,-0.8184,-0.8581,-0.985,-1.0578,-1.1356,-1.1236,-1.0707,-1.0997,-1.1076,-1.0959,-1.0626,-1.0394,-1.0091,-1.0091,-1.0438,-1.0476,-1.0245,-1.0014,-0.9675,-0.9514,-0.9071,-0.9325,-0.959,-0.1341,-0.1292,-0.1282,-0.1315,-0.13,-0.1299,-0.13,-0.1299,-0.1299,-0.1299,-0.1299,0.0,-0.1076,-0.0673,-0.1076,-0.1299,0.0,-0.1299,-0.1299,-0.1299,-0.1299,-0.1299,-0.1298,-0.12,-0.1187,-0.1214,-0.1154,-0.1471,-0.2118,-0.2286,-0.2706,-0.3296,-0.3534,-0.3554,-0.349,-0.3532,-0.3671,-0.3858,-0.3817,-0.396,-0.434,-0.4292,-0.4246,-0.4336,-0.5592,-0.63,-0.63,-0.63,-0.63,-0.63,-0.63,-0.634,-0.6446,-0.663,-0.6807,-0.6876,-0.697,-0.7041,-0.7088,-0.7095,-0.7095,-0.7095,-0.7095,-0.7118,-0.7333,-0.738,-0.7495,-0.7688,-0.7766,-0.7814,-0.7843,-0.7934,-0.7971,-0.7931,-0.7955,-0.7988,-0.7988,-0.7988,-0.7988,-0.7988,-0.7988,-0.7988,-0.7889,-0.7988,-0.7988,-0.7988,-0.7988,-0.7988,-0.7988,-0.7988,-0.7988,-0.7988,-0.7988,-0.8137,-0.8531,-0.897,-0.9337,-0.9258,-0.906,-0.8965,-0.8957,-0.8902,-0.8584,-0.8667,-0.8703,-0.8746,-0.8834,-0.879,-0.8773,-0.8567,-0.8263,-0.8343,-0.7725,-0.8134,-0.8473,0.0,0.0,0.0,0.0,0.0,0.0,0.0,0.0,0.0,0.0,0.0,0.0,0.0,0.0,0.0,0.0,0.0,0.0,0.0,0.0,0.0,0.0,0.0,0.0,0.0,0.0,0.0,0.0,-0.1022,-0.1163,-0.1567,-0.2192,-0.24,-0.2458,-0.2458,-0.2458,-0.2529,-0.2718,-0.2782,-0.2855,-0.3111,-0.312,-0.3128,-0.3325,-0.4517,-0.5255,-0.526,-0.5255,-0.5277,-0.5277,-0.5277,-0.5333,-0.5459,-0.5659,-0.5774,-0.586,-0.5885,-0.5977,-0.5977,-0.5974,-0.5933,-0.598,-0.5975,-0.6045,-0.6213,-0.6221,-0.6345,-0.6494,-0.6548,-0.6642,-0.6702,-0.6675,-0.703,-0.7736,-0.7988,-0.7786,-0.7437,-0.7332,-0.7083,-0.6675,-0.6526,-0.6778,-0.7282,-0.7332,-0.7537,-0.7889,-0.7988,-0.7988,-0.7988,-0.7988,-0.7988,-0.7988,-0.7988,-0.7988,-0.8184,-0.8379,-0.8428,-0.8315,-0.8348,-0.7855,-0.7553,-0.7343,-0.7152,-0.7115,-0.7095,-0.7095,-0.7095,-0.7095,-0.7018,-0.6943,-0.7098,-0.7319,-0.7082,-0.7027,-0.7521,0.0,0.0,0.0,0.0,0.0,0.0,0.0,0.0,0.0,0.0,0.0,0.0,0.0,0.0,0.0,0.0,0.0,0.0,0.0,0.0,0.0,0.0,0.0,0.0,0.0,0.0,0.0,0.0,0.0,0.0,0.0,0.0,0.0,0.0,0.0,0.0,-0.0762,-0.1514,-0.1666,-0.2123,-0.3152,-0.292,-0.2801,-0.2879,-0.3047,-0.3104,-0.3125,-0.3222,-0.3371,-0.3335,-0.3293,-0.3214,-0.356,-0.3684,-0.3585,-0.3861,-0.3748,-0.3703,-0.3748,-0.3881,-0.397,-0.3981,-0.377,-0.4025,-0.4246,-0.4185,-0.4213,-0.4432,-0.4405,-0.4264,-0.4314,-0.4366,-0.522,-0.7385,-0.7484,-0.7033,-0.6279,-0.5979,-0.5525,-0.4618,-0.4416,-0.4668,-0.5575,-0.5979,-0.6329,-0.7182,-0.7484,-0.7431,-0.7332,-0.7282,-0.7736,-0.7736,-0.7332,-0.6977,-0.7431,-0.7885,-0.7836,-0.7813,-0.7885,-0.775,-0.76,-0.7414,-0.7255,-0.719,-0.7098,-0.7095,-0.7095,-0.7082,-0.6994,-0.6879,-0.6787,-0.6634,-0.6617,-0.6705,-0.6902,0.0,0.0,0.0,0.0,0.0,0.0,0.0,0.0,0.0,0.0,0.0,0.0,0.0,0.0,0.0,0.0,0.0,0.0,0.0,0.0,0.0,0.0,0.0,0.0,0.0,0.0,0.0,0.0,0.0,0.0,0.0,0.0,0.0,0.0,0.0,0.0,-0.0269,-0.0493,-0.0535,-0.0706,-0.1044,0.0,0.0,-0.097,-0.098,-0.0942,-0.1022,-0.2316,-0.3058,-0.3061,-0.3098,-0.3173,-0.3326,-0.3468,-0.3548,-0.3611,-0.3614,-0.3614,-0.357,-0.357,-0.3482,-0.3585,-0.355,-0.367,-0.3791,-0.3724,-0.3746,-0.3904,-0.4016,-0.4016,-0.4016,-0.4016,-0.4318,-0.5168,-0.5218,-0.522,-0.477,-0.457,-0.4416,-0.4116,-0.4016,-0.4216,-0.4468,-0.4618,-0.482,-0.527,-0.542,-0.542,-0.537,-0.557,-0.527,-0.5218,-0.527,-0.562,-0.5872,-0.6071,-0.6022,-0.6365,-0.6732,-0.6897,-0.6957,-0.6938,-0.6885,-0.6892,-0.689,-0.6871,-0.6915,-0.7061,-0.6987,-0.6849,-0.6662,-0.6532,-0.6383,-0.6493,-0.6694,0.15,0.1484,0.1474,0.1508,0.149,0.148,0.0,0.1472,0.1502,0.1493,0.0,0.0,0.1468,0.1513,0.1513,0.1513,0.1468,0.1467,0.1467,0.1234,0.0271,0.0,0.0,0.0,0.0,0.0,0.0,0.0,0.0,0.0,0.0,0.0,0.0,0.0,0.0,0.0,0.0,0.0,0.0,0.0,0.0,0.0,0.0,0.0,0.0,0.0,0.0,-0.13,-0.1934,-0.1977,-0.1978,-0.1992,-0.2151,-0.2177,-0.228,-0.228,-0.2236,-0.2191,-0.2281,-0.2102,-0.2244,-0.2264,-0.2258,-0.2257,-0.235,-0.2397,-0.2438,-0.2507,-0.2464,-0.2514,-0.2464,-0.2514,-0.2514,-0.2514,-0.3565,-0.3665,-0.3414,-0.2764,-0.2514,-0.2364,-0.2413,-0.2714,-0.3115,-0.3265,-0.3516,-0.3815,-0.4016,-0.4016,-0.4016,-0.4066,-0.3966,-0.3915,-0.4316,-0.4416,-0.4166,-0.4166,-0.4116,-0.4704,-0.5327,-0.5509,-0.5633,-0.5524,-0.5475,-0.556,-0.5575,-0.5531,-0.562,-0.6691,-0.7034,-0.6813,-0.6396,-0.6549,-0.6441,-0.6351,-0.6458,0.3966,0.4007,0.3944,0.3774,0.3762,0.3754,0.3685,0.3866,0.3806,0.371,0.3755,0.3594,0.3737,0.3885,0.3539,0.3539,0.3887,0.3685,0.3586,0.3044,0.1701,0.0,0.0,0.0,0.0,0.0,0.0,0.0,0.0,0.0,0.0,0.0,0.0,0.0,0.0,0.0,0.0,0.0,0.0,0.0,0.0,0.0,0.0,0.0,0.0,0.0,0.0,0.0,0.0,0.0,0.0,0.0,0.0,0.0,0.0,0.0,0.0,0.0,0.0,0.0,0.0,0.0,0.0,0.0,0.0,0.0,0.0,0.0,0.0,0.0,0.0,0.0,0.0,0.0,-0.2063,-0.2764,-0.1962,-0.0857,0.0,0.0,0.0,-0.0454,-0.1762,-0.1862,-0.2414,-0.3065,-0.3366,-0.3265,-0.3264,-0.3065,-0.3565,0.0,0.0,-0.2865,-0.2514,-0.2514,-0.2514,-0.2661,-0.3447,-0.3883,-0.4365,-0.4401,-0.437,-0.4441,-0.4461,-0.4372,-0.4639,-0.5617,-0.6148,-0.5846,-0.5888,-0.6359,-0.6508,-0.6363,-0.6281,0.4016,0.4012,0.3995,0.3987,0.3987,0.4014,0.4055,0.4,0.4046,0.4173,0.4064,0.4012,0.414,0.4036,0.4087,0.3987,0.414,0.4136,0.3987,0.3887,0.339,0.2921,0.2843,0.2743,0.2677,0.2556,0.2416,0.2681,0.2592,0.17,0.1344,0.1299,0.0,0.0,0.0,0.0,0.0,0.0,0.0,0.0,0.0,0.0,0.0,0.0,0.0,0.0,0.0,0.0,0.0,0.0,0.0,0.0,0.0,0.0,0.0,0.0,0.0,0.0,0.0,0.0,0.0,0.0,0.0,0.0,0.0,0.0,0.0,0.0,0.0,0.0,0.0,0.0,0.0,0.0,0.0,0.0,0.0,0.0,0.0,0.0,0.0,0.0,0.0,0.0,0.0,0.0,0.0,0.0,0.0,0.0,0.0,0.0,0.0,0.0,-0.0908,-0.0908,-0.0857,-0.0756,-0.1354,-0.214,-0.2906,-0.3685,-0.3737,-0.3816,-0.3708,-0.3616,-0.3703,-0.4237,-0.4395,-0.4742,-0.5034,-0.5394,-0.6159,-0.6337,-0.6205,0.5672,0.567,0.5672,0.567,0.5672,0.567,0.5672,0.566,0.5664,0.5684,0.5669,0.5669,0.5688,0.5685,0.569,0.5688,0.5688,0.5688,0.569,0.5693,0.569,0.5027,0.4173,0.3844,0.3751,0.3709,0.3676,0.3571,0.3436,0.2858,0.2592,0.2464,0.1942,0.1587,0.0,0.1588,0.1589,0.0,0.1531,0.1522,0.1522,0.1523,0.0,0.0,0.0723,0.0593,0.0,0.0,0.0,0.0,0.0,0.0,0.0,0.0,0.0,0.0,0.0,0.0,0.0,0.0,0.0,0.0,0.0,0.0,0.0,0.0,0.0,0.0,0.0,0.0,0.0,0.0,0.0,0.0,0.0,0.0,0.0,0.0,0.0,0.0,0.0,0.0,0.0,0.0,0.0,0.0,0.0,0.0,0.0,0.0,0.0,0.0,0.0,0.0,0.0,0.0,0.0,0.0,0.0,0.0,0.0,0.0,0.0,0.0,0.0,-0.2769,-0.2637,-0.2814,-0.3421,-0.3771,-0.4083,-0.4404,-0.5023,-0.5712,-0.5698,0.7988,0.7988,0.7988,0.7988,0.7885,0.7988,0.7736,0.7889,0.7726,0.7773,0.777,0.7882,0.7595,0.7988,0.7483,0.7872,0.7819,0.7588,0.7707,0.7651,0.7483,0.6643,0.4984,0.4797,0.465,0.4566,0.4121,0.4242,0.434,0.4103,0.387,0.3763,0.3765,0.3692,0.3421,0.3557,0.3743,0.3502,0.3329,0.3262,0.3262,0.3217,0.2811,0.2229,0.2069,0.1679,0.0991,0.0,0.0,0.0,0.009,0.0,0.0,0.0,0.0,0.0,0.0,0.0,0.0,0.0,0.0,0.0,0.0,0.0,0.0,0.0,0.0,0.0,0.0,0.0,0.0,0.0,0.0,0.0,0.0,0.0,0.0,0.0,0.0,0.0,0.0,0.0,0.0,0.0,0.0,0.0,0.0,0.0,0.0,0.0,0.0,0.0,0.0,0.0,0.0,0.0,0.0,0.0,0.0,0.0,0.0,0.0,0.0,0.0,0.0,-0.1302,-0.0897,-0.1343,-0.2188,-0.2703,-0.2959,-0.3162,-0.3481,-0.4303,-0.4601,0.7988,0.7988,0.7988,0.7988,0.7988,0.7988,0.7988,0.7988,0.7988,0.7988,0.7988,0.7988,0.7988,0.7988,0.7988,0.7988,0.7988,0.7988,0.7988,0.7988,0.7988,0.7816,0.7012,0.6798,0.6789,0.6617,0.6718,0.6694,0.6499,0.5683,0.5332,0.5239,0.4642,0.4009,0.4103,0.4291,0.3962,0.3959,0.4032,0.4111,0.4154,0.4107,0.3923,0.3511,0.3437,0.3355,0.3225,0.3136,0.2651,0.1602,0.0,0.0,0.0,0.0,0.0,0.0,0.0,0.0,0.0,0.0,0.0,0.0,0.0,0.0,0.0,0.0,0.0,0.0,0.0,0.0,0.0,0.0,0.0,0.0,0.0,0.0,0.0,0.0,0.0,0.0,0.0,0.0,0.0,0.0,0.0,0.0,0.0,0.0,0.0,0.0,0.0,0.0,0.0,0.0,0.0,0.0,0.0,0.0,0.0,0.0,0.0,0.0,0.0,0.0,0.0,0.0,0.0,-0.0135,-0.1075,-0.1422,0.0,-0.2191,-0.256,-0.3191,-0.3635,0.7988,0.7988,0.7988,0.7988,0.7988,0.7988,0.7988,0.7988,0.7988,0.7988,0.7988,0.7988,0.7988,0.7988,0.7988,0.7988,0.7988,0.7988,0.7988,0.7988,0.7988,0.7988,0.7982,0.7957,0.7845,0.7709,0.7574,0.7604,0.7406,0.7029,0.6629,0.6649,0.5982,0.5958,0.5769,0.5721,0.5867,0.5849,0.5716,0.5695,0.5695,0.5695,0.5301,0.4753,0.4334,0.4007,0.39,0.3952,0.3611,0.2927,0.2243,0.121,0.0,0.0,0.0,0.0,0.0,0.0,0.0,0.0,0.0,0.0,0.0,0.0,0.0,0.0,0.0,0.0,0.0,0.0,0.0,0.0,0.0,0.0,0.0,0.0,0.0,0.0,0.0,0.0,0.0,0.0,0.0,0.0,0.0,0.0,0.0,0.0,0.0,0.0,0.0,0.0,0.0,0.0,0.0,0.0,0.0,0.0,0.0,0.0,0.0,0.0,0.0,0.0,0.0,0.0,0.0,0.0,0.0,0.0,0.0,0.0,-0.1627,-0.2052,-0.2482,0.7988,0.7988,0.7988,0.7988,0.7988,0.7988,0.7988,0.7988,0.7988,0.7988,0.7988,0.7988,0.7988,0.7988,0.7988,0.7988,0.7988,0.7988,0.7988,0.7988,0.7988,0.7988,0.7985,0.7961,0.7914,0.7838,0.7756,0.7702,0.7695,0.7672,0.748,0.7604,0.7687,0.7401,0.765,0.78,0.7505,0.7392,0.7324,0.7324,0.7413,0.7413,0.6933,0.6209,0.5494,0.5031,0.5027,0.4945,0.4606,0.4318,0.4268,0.2965,0.1363,0.0633,0.0,0.0,0.0,0.0,0.0,0.0,0.0,0.0605,0.0,0.0,0.0,0.0,0.0,0.0,0.0,0.0,0.0,0.0,0.0,0.0,0.0,0.0,0.0,0.0,0.0,0.0,0.0,0.0,0.0,0.0,0.0,0.0,0.0,0.0,0.0,0.0,0.0,0.0,0.0,0.0,0.0,0.0,0.0,0.0,0.0,0.0,0.0,0.0,0.0,0.0,0.0,0.0,0.0,0.0,0.0,0.0,0.0,0.0,0.0,0.0,-0.1428,0.7988,0.7988,0.7988,0.7988,0.7988,0.7988,0.7988,0.7988,0.7988,0.7988,0.7988,0.7988,0.7988,0.7988,0.7988,0.7988,0.7988,0.7988,0.7988,0.7988,0.7988,0.7988,0.7988,0.7988,0.7965,0.7961,0.7901,0.788,0.7887,0.7917,0.7867,0.7953,0.7921,0.7938,0.7934,0.7948,0.7931,0.7921,0.7884,0.787,0.787,0.7874,0.7835,0.7381,0.6976,0.6997,0.7114,0.7182,0.683,0.5829,0.5675,0.4802,0.3727,0.3336,0.3242,0.2997,0.2956,0.2815,0.2865,0.3115,0.3265,0.3314,0.3065,0.3115,0.2914,0.2314,0.1762,0.1411,0.0807,0.0,0.0,0.0,0.0,0.0,0.0,0.0,0.0,0.0,0.0,0.0,0.0,0.0,0.0,0.0,0.0,0.0,0.0,0.0,0.0,0.0,0.0,0.0,0.0,0.0,0.0,0.0,0.0,0.0,0.0,0.0,0.0,0.0,0.0,0.0,0.0,0.0,0.0,0.0,0.0,0.0,0.0,0.0,0.0,0.0,0.0,0.7988,0.7988,0.7988,0.7988,0.7988,0.7988,0.7988,0.7988,0.7988,0.7988,0.7988,0.7988,0.7988,0.7988,0.7988,0.7988,0.7988,0.7988,0.7988,0.7988,0.7988,0.7988,0.7988,0.7988,0.7988,0.7985,0.7988,0.7988,0.7988,0.7982,0.7988,0.7985,0.7988,0.7988,0.7988,0.7982,0.7988,0.7988,0.7988,0.7988,0.7988,0.7988,0.7988,0.7988,0.7988,0.7988,0.7988,0.7988,0.7686,0.7182,0.7033,0.6678,0.6224,0.5872,0.542,0.4416,0.4116,0.4066,0.4016,0.4016,0.3915,0.3966,0.4066,0.4016,0.3865,0.3366,0.3015,0.2815,0.2715,0.2063,0.0,0.1963,0.2063,0.2063,0.2013,0.1963,0.2013,0.2013,0.1862,0.1611,0.0,0.0,0.0,0.0,0.0,0.0,0.0,0.0,0.0,0.0,0.0,0.0,0.0,0.0,0.0,0.0,0.0,0.0,0.0,0.0,0.0,0.0,0.0,0.0,0.0,0.0,0.0,0.0,0.0,0.0,0.0,0.0,0.0,0.0,0.0,0.8478,0.8038,0.8577,0.8478,0.8088,0.8336,0.8233,0.8038,0.7988,0.7988,0.7988,0.7988,0.7988,0.7988,0.7988,0.7988,0.7988,0.7988,0.7988,0.7988,0.7988,0.7988,0.7988,0.7988,0.7988,0.7988,0.7988,0.7988,0.7988,0.7988,0.7988,0.7988,0.7988,0.7988,0.7988,0.7988,0.7988,0.7988,0.7988,0.7988,0.7988,0.7988,0.7988,0.7988,0.7988,0.7988,0.7988,0.7988,0.7988,0.7889,0.7889,0.7889,0.7988,0.7988,0.698,0.527,0.4818,0.4818,0.4868,0.4968,0.522,0.527,0.492,0.4868,0.4768,0.4818,0.4266,0.4116,0.3865,0.3717,0.3565,0.3865,0.3815,0.3815,0.3765,0.3915,0.3665,0.3565,0.3416,0.2765,0.1611,0.0,0.0,0.0,0.0,0.0,0.0,0.0,0.0,0.0,0.0,0.0,0.0,0.0,0.0,0.0,0.0,0.0,0.0,0.0,0.0,0.0,0.0,0.0,0.0,0.0,0.0,0.0,0.0,0.0,0.0,0.0,0.0,0.0,0.0,1.0092,0.8237,1.0485,1.0145,0.8432,0.9316,0.9069,0.8187,0.8233,0.7988,0.8329,0.8137,0.8233,0.8283,0.8233,0.8137,0.8184,0.8382,0.8478,0.8528,0.8428,0.8428,0.8184,0.7988,0.8432,0.8577,0.8382,0.7988,0.8233,0.8283,0.7988,0.7988,0.7988,0.7988,0.7988,0.7988,0.7988,0.7988,0.7988,0.7988,0.7988,0.7988,0.7988,0.7988,0.7988,0.7988,0.7988,0.7988,0.7988,0.7988,0.7988,0.7988,0.7988,0.7988,0.7939,0.7584,0.7534,0.7481,0.7229,0.708,0.703,0.698,0.7129,0.7434,0.693,0.6179,0.5372,0.4066,0.4166,0.4366,0.4518,0.4216,0.4116,0.4316,0.4618,0.4468,0.4316,0.512,0.4968,0.4768,0.3869,0.3717,0.0,0.0,0.0,0.0,0.3366,0.2665,0.2162,0.1912,0.1661,0.0,0.0,0.0,0.0,0.0,0.0,0.0,0.0,0.0,0.0,0.0,0.0,0.0,0.0,0.0,0.0,0.0,0.0,0.0,0.0,0.0,0.0,0.0,0.0,1.2571,1.0337,1.1458,1.1263,1.0337,1.0877,1.0779,1.0284,1.0194,1.0194,1.019,1.019,1.0194,1.0092,1.019,1.0239,1.019,1.0096,1.019,1.0092,1.0092,1.0141,1.0288,1.019,1.0194,1.0047,1.019,1.0382,0.9846,0.8676,0.7988,0.8038,0.8038,0.7988,0.7988,0.7988,0.7988,0.7988,0.7988,0.7988,0.7988,0.7988,0.7988,0.7988,0.7988,0.7988,0.7988,0.7988,0.7988,0.7988,0.7988,0.7988,0.7988,0.7988,0.7988,0.7988,0.7939,0.7939,0.7939,0.7988,0.7988,0.7988,0.7988,0.7889,0.7839,0.7487,0.6933,0.6376,0.6274,0.6224,0.6124,0.6274,0.6276,0.6226,0.5872,0.5974,0.5972,0.6226,0.6528,0.6326,0.6174,0.5872,0.5418,0.4818,0.4518,0.4368,0.4218,0.3767,0.3416,0.3214,0.2964,0.0,0.0,0.0,0.0,0.0,0.0,0.0,0.0,0.0,0.0,0.0,0.0,0.0,0.0,0.0,0.0,0.0,0.0,0.0,0.0,0.0,0.0,0.0,0.0,1.4824,1.3002,1.2894,1.2528,1.1945,1.2231,1.2145,1.1848,1.1799,1.1848,1.1896,1.1799,1.1799,1.1896,1.175,1.1604,1.1799,1.1896,1.1896,1.1896,1.1896,1.175,1.1556,1.1702,1.175,1.1945,1.1507,1.1556,1.1019,0.9899,0.8627,0.8482,0.8726,0.8333,0.8038,0.7988,0.7988,0.7988,0.7988,0.7988,0.7988,0.7988,0.7988,0.7988,0.7988,0.7988,0.7988,0.7988,0.7988,0.7988,0.7988,0.7988,0.7988,0.7988,0.7988,0.7988,0.7988,0.7988,0.7988,0.7988,0.7988,0.7988,0.7988,0.7988,0.7988,0.7988,0.7988,0.7686,0.7686,0.7786,0.7988,0.7839,0.7637,0.7584,0.7637,0.7889,0.7939,0.7537,0.7385,0.7232,0.7182,0.7484,0.6877,0.5922,0.542,0.5168,0.4968,0.4768,0.4568,0.4416,0.3966,0.3615,0.3466,0.3316,0.2914,0.2314,0.1712,0.121,0.0757,0.0,0.0,0.0,0.0,0.0,0.0,0.0,0.0,0.0,0.0,0.0,0.0,0.0,0.0,0.0,0.0,1.6388,1.5976,1.561,1.4142,1.2139,1.3253,1.306,1.2285,1.2091,1.2139,1.2285,1.2042,1.2285,1.2139,1.2382,1.2285,1.2047,1.1945,1.2237,1.2237,1.1945,1.2285,1.2431,1.2431,1.2237,1.2237,1.2479,1.2382,1.1848,1.1409,1.0288,0.9801,0.941,0.892,0.8382,0.7988,0.7988,0.7988,0.7988,0.7988,0.7988,0.7988,0.7988,0.7988,0.7988,0.7988,0.7988,0.7988,0.7988,0.7988,0.7988,0.7988,0.7988,0.7988,0.7988,0.7988,0.7988,0.7988,0.7988,0.7988,0.7988,0.7988,0.7988,0.7988,0.7988,0.7988,0.7988,0.7988,0.7988,0.7988,0.7988,0.7988,0.7988,0.7988,0.7995,0.8019,0.8012,0.7942,0.7839,0.7939,0.7988,0.7988,0.7988,0.6927,0.6678,0.6476,0.6526,0.6326,0.5722,0.547,0.4818,0.4416,0.4316,0.4168,0.4017,0.3616,0.3267,0.2766,0.2213,0.2013,0.0,0.0,0.0,0.0,0.0,0.0,0.0,0.0,0.0,0.0,0.0,0.0,0.0,0.0,0.0,1.664,1.6533,1.6413,1.5564,1.4322,1.4854,1.4758,1.437,1.4322,1.4322,1.4226,1.4322,1.4322,1.4274,1.4274,1.4322,1.4322,1.4322,1.4226,1.4274,1.4322,1.4274,1.4274,1.4178,1.437,1.4226,1.4226,1.4274,1.4274,1.3253,1.2958,1.2231,1.0235,0.8726,0.8088,0.8233,0.8184,0.8137,0.8088,0.8041,0.7988,0.7988,0.7988,0.7988,0.7988,0.7988,0.7988,0.7988,0.7988,0.7988,0.7988,0.7988,0.7988,0.7988,0.7988,0.7988,0.7988,0.7988,0.7988,0.7988,0.7988,0.7988,0.7988,0.7988,0.7988,0.7992,0.7988,0.7988,0.8005,0.8029,0.7998,0.7992,0.7988,0.7988,0.8019,0.8113,0.813,0.8076,0.8133,0.817,0.8046,0.7988,0.7988,0.7889,0.7836,0.7836,0.7885,0.7786,0.703,0.6578,0.6024,0.5772,0.5722,0.5472,0.5322,0.5122,0.4922,0.437,0.3717,0.3416,0.3115,0.0,0.0,0.0,0.126,0.0,0.0,0.0,0.0,0.0,0.0,0.0,0.0,0.0,0.0,1.6914,1.684,1.6834,1.65,1.5999,1.5959,1.5858,1.5832,1.573,1.5825,1.5825,1.5825,1.5825,1.5825,1.573,1.5683,1.5581,1.5581,1.5683,1.5635,1.5581,1.5825,1.5825,1.5683,1.5439,1.5825,1.5825,1.5683,1.5486,1.5384,1.4459,1.2856,1.096,0.9702,0.9361,0.9164,0.9164,0.9167,0.9167,0.9167,0.9262,0.8821,0.8676,0.8577,0.8333,0.7988,0.7988,0.7988,0.7988,0.7988,0.7988,0.7988,0.7988,0.7988,0.7988,0.7988,0.7992,0.7992,0.7992,0.7988,0.7988,0.7988,0.7988,0.7988,0.7995,0.8025,0.813,0.813,0.8096,0.8116,0.816,0.8204,0.8218,0.8248,0.8241,0.8275,0.8289,0.8292,0.8299,0.8313,0.8238,0.8201,0.8208,0.8218,0.8076,0.8049,0.7988,0.7939,0.7736,0.7484,0.7484,0.7332,0.7381,0.7083,0.6783,0.6528,0.6276,0.6027,0.5422,0.482,0.427,0.3265,0.2714,0.2764,0.2464,0.1762,0.136,0.1159,0.0605,0.0,0.0,0.0,0.0,0.0,0.0,1.7434,1.7199,1.7192,1.6857,1.6362,1.6266,1.6119,1.5939,1.5905,1.5892,1.5885,1.5865,1.5845,1.5838,1.5825,1.5825,1.5825,1.5825,1.5825,1.5825,1.5825,1.5825,1.5825,1.5825,1.5825,1.5825,1.5825,1.5825,1.5778,1.5092,1.4316,1.395,1.2705,1.1634,1.1755,1.175,1.175,1.1707,1.1556,1.1409,1.1116,1.0342,1.0047,0.9756,0.9164,0.8772,0.8772,0.8482,0.8432,0.8432,0.8088,0.8038,0.7988,0.8012,0.8022,0.8069,0.8025,0.8019,0.8008,0.8002,0.8025,0.8039,0.8113,0.8073,0.8106,0.8167,0.8262,0.8265,0.8343,0.8418,0.8448,0.8448,0.8425,0.8408,0.8394,0.8421,0.8431,0.8408,0.8456,0.8487,0.8511,0.8514,0.8511,0.8421,0.8282,0.8184,0.8025,0.7995,0.8015,0.7988,0.7988,0.7988,0.7988,0.7786,0.7434,0.7736,0.7637,0.7385,0.6983,0.6276,0.5572,0.472,0.4318,0.4266,0.3615,0.2916,0.2413,0.2012,0.136,0.0706,0.0151,0.0,0.0,0.0,0.0,1.7528,1.7494,1.7487,1.7259,1.6898,1.664,1.65,1.642,1.6393,1.6306,1.6152,1.6126,1.5992,1.5885,1.5858,1.5865,1.5852,1.5825,1.5825,1.5838,1.5832,1.5825,1.5825,1.5825,1.5825,1.5825,1.5825,1.5832,1.5778,1.522,1.5153,1.4968,1.4558,1.3696,1.2424,1.1896,1.1896,1.1896,1.1848,1.1848,1.1901,1.157,1.1287,1.1296,1.0712,1.0422,1.0278,0.9751,0.9409,0.921,0.8866,0.8222,0.8189,0.8223,0.8191,0.8218,0.8252,0.8333,0.8333,0.833,0.8286,0.8258,0.8258,0.8299,0.8343,0.837,0.8456,0.8473,0.8479,0.8513,0.8528,0.8476,0.8465,0.8462,0.8469,0.8537,0.8554,0.8496,0.8528,0.854,0.8577,0.854,0.8523,0.8574,0.8479,0.8384,0.8292,0.8197,0.8191,0.8039,0.7992,0.7988,0.7988,0.7988,0.7988,0.7988,0.7988,0.7736,0.7686,0.7534,0.6778,0.5974,0.6074,0.6074,0.5068,0.4067,0.3717,0.3267,0.2163,0.141,0.0857,0.0,0.0,0.0,0.0,1.7589,1.7589,1.7589,1.7475,1.732,1.6987,1.6814,1.672,1.67,1.6593,1.6453,1.642,1.6339,1.6186,1.6132,1.6084,1.6126,1.6019,1.5985,1.5965,1.5858,1.5838,1.5825,1.5845,1.5825,1.5832,1.5852,1.5858,1.6005,1.5992,1.5969,1.606,1.6319,1.5319,1.417,1.3845,1.3739,1.3831,1.3869,1.3849,1.3624,1.3226,1.2936,1.2798,1.2451,1.2093,1.1935,1.1527,1.0929,1.0571,0.9824,0.8981,0.8925,0.8572,0.8495,0.8432,0.8411,0.8472,0.8462,0.8537,0.8489,0.8452,0.8482,0.8479,0.8503,0.8523,0.855,0.8574,0.8598,0.8625,0.8628,0.8621,0.8615,0.8618,0.8642,0.871,0.871,0.8659,0.8648,0.8706,0.871,0.8655,0.8618,0.8659,0.8672,0.8598,0.852,0.8418,0.8309,0.8201,0.8049,0.8032,0.8012,0.8002,0.7998,0.7988,0.7988,0.7988,0.7988,0.7988,0.7839,0.7033,0.7484,0.7686,0.6678,0.5772,0.5222,0.452,0.3316,0.2363,0.1662,0.0,0.0,0.0,0.0,1.7589,1.7589,1.7589,1.7582,1.7528,1.732,1.7065,1.676,1.676,1.6754,1.672,1.672,1.6653,1.6667,1.6667,1.6633,1.6587,1.6373,1.6313,1.6233,1.6106,1.5999,1.5952,1.5911,1.6019,1.5945,1.5959,1.6146,1.6266,1.6279,1.6413,1.6587,1.6667,1.631,1.6097,1.6016,1.5887,1.5673,1.5611,1.5555,1.5337,1.5053,1.4745,1.4456,1.401,1.3556,1.3252,1.2953,1.2776,1.2332,1.1527,1.0922,1.0219,0.9306,0.8849,0.8506,0.8523,0.854,0.857,0.8676,0.8703,0.8662,0.8594,0.8533,0.856,0.8662,0.8706,0.8747,0.8784,0.8852,0.8896,0.8882,0.8872,0.8872,0.8876,0.8896,0.8899,0.8886,0.8882,0.8893,0.8886,0.8859,0.8838,0.8855,0.8801,0.8784,0.8696,0.8577,0.8465,0.8343,0.8245,0.811,0.813,0.8079,0.8019,0.8025,0.7988,0.7988,0.7988,0.7988,0.7939,0.7889,0.7889,0.7889,0.7939,0.7434,0.6578,0.5522,0.4368,0.3516,0.2916,0.0,0.0,0.0,0.0,1.7589,1.7589,1.7589,1.7589,1.7575,1.7495,1.7408,1.7335,1.7321,1.7235,1.7065,1.7072,1.6927,1.6714,1.67,1.672,1.6693,1.6633,1.66,1.652,1.6433,1.644,1.6426,1.64,1.6426,1.6426,1.6433,1.644,1.6553,1.658,1.6607,1.67,1.6941,1.7052,1.7088,1.7215,1.6954,1.676,1.6754,1.6687,1.6633,1.6249,1.6093,1.5802,1.5657,1.5295,1.5239,1.4554,1.435,1.4015,1.292,1.199,1.0647,1.0302,1.004,0.8849,0.8811,0.8811,0.8815,0.8845,0.8862,0.8855,0.8804,0.8818,0.8825,0.8821,0.8855,0.8876,0.8889,0.8923,0.8937,0.8937,0.8937,0.8937,0.8937,0.8937,0.8937,0.8937,0.8937,0.8937,0.8937,0.8937,0.8937,0.8927,0.8879,0.8851,0.8814,0.874,0.8621,0.8499,0.8381,0.8292,0.8245,0.8204,0.8157,0.815,0.8035,0.7988,0.8008,0.8012,0.7988,0.7939,0.7988,0.7988,0.7988,0.7889,0.7637,0.6526,0.5472,0.502,0.437,0.3017,0.0,0.0,0.0,1.7589,1.7589,1.7589,1.7589,1.7589,1.7589,1.7589,1.7589,1.7589,1.7468,1.7387,1.7373,1.7221,1.7108,1.7088,1.7081,1.7074,1.6947,1.6887,1.686,1.678,1.668,1.6693,1.6727,1.6667,1.6707,1.674,1.6714,1.6854,1.7014,1.7068,1.7101,1.732,1.734,1.7355,1.7428,1.7368,1.7174,1.7061,1.6987,1.6954,1.6974,1.7041,1.7027,1.7027,1.7027,1.6976,1.6074,1.5926,1.5676,1.459,1.3539,1.2451,1.2215,1.1218,1.0214,0.9834,0.9449,0.9071,0.8916,0.8933,0.8937,0.8937,0.8868,0.8865,0.891,0.8916,0.8927,0.893,0.8937,0.8937,0.8937,0.8937,0.8937,0.8937,0.8937,0.8937,0.8937,0.8937,0.8937,0.8937,0.8937,0.8937,0.8937,0.8937,0.8878,0.8871,0.8821,0.8767,0.8662,0.8533,0.8418,0.8384,0.835,0.8303,0.8258,0.8211,0.8174,0.8157,0.8143,0.8032,0.7995,0.8002,0.7995,0.7988,0.7889,0.7839,0.7487,0.6731,0.6279,0.5777,0.4772,0.3419,0.0,0.0,1.7589,1.7589,1.7589,1.7589,1.7589,1.7589,1.7589,1.7589,1.7589,1.7582,1.7615,1.7575,1.7542,1.7448,1.7455,1.7468,1.7395,1.7313,1.7233,1.7226,1.7014,1.6914,1.6894,1.68,1.6941,1.6847,1.6854,1.7041,1.7208,1.7328,1.7435,1.7628,1.7601,1.7522,1.7528,1.7555,1.7508,1.7462,1.7402,1.7368,1.734,1.7454,1.7589,1.7542,1.7528,1.7528,1.7542,1.7562,1.7589,1.7087,1.6474,1.5518,1.466,1.3697,1.2384,1.1801,1.1324,1.0511,0.9809,0.9482,0.9099,0.9047,0.8937,0.896,0.8977,0.8947,0.8885,0.8937,0.8937,0.8981,0.8994,0.8964,0.8892,0.8964,0.8974,0.8957,0.8937,0.8937,0.8937,0.8937,0.8937,0.8937,0.8937,0.8937,0.8937,0.8937,0.8878,0.8871,0.8831,0.8788,0.8699,0.857,0.853,0.8503,0.8476,0.8431,0.8377,0.8388,0.835,0.831,0.8225,0.815,0.8015,0.8029,0.8042,0.8002,0.7889,0.764,0.754,0.7388,0.6883,0.6381,0.5225,0.3768,0.2815,1.7589,1.7589,1.7589,1.7589,1.7589,1.7589,1.7589,1.7589,1.7589,1.7589,1.7589,1.7589,1.7589,1.7589,1.7589,1.7589,1.7601,1.7541,1.7534,1.7501,1.7328,1.7241,1.7328,1.7268,1.7315,1.7375,1.7395,1.7341,1.7435,1.7542,1.7589,1.7582,1.7589,1.7589,1.7589,1.7589,1.7589,1.7635,1.7629,1.7629,1.7641,1.7581,1.7589,1.7589,1.7589,1.7589,1.7589,1.7589,1.7589,1.7417,1.7312,1.6493,1.5411,1.4126,1.3264,1.2832,1.2724,1.1923,1.108,1.0543,1.0173,0.9348,0.9085,0.9077,0.9025,0.8974,0.8895,0.8954,0.8974,0.9032,0.9055,0.9015,0.8932,0.9011,0.9028,0.8994,0.896,0.8954,0.8954,0.8947,0.8947,0.8937,0.8937,0.8937,0.8937,0.8937,0.8937,0.8878,0.8878,0.8879,0.8866,0.876,0.8693,0.8659,0.8635,0.8598,0.854,0.8482,0.8438,0.8401,0.8364,0.8286,0.8208,0.817,0.8153,0.8143,0.8062,0.7952,0.7902,0.7922,0.7819,0.7222,0.6892,0.5777,0.472,1.7589,1.7589,1.7589,1.7589,1.7589,1.7589,1.7589,1.7589,1.7589,1.7589,1.7589,1.7589,1.7589,1.7589,1.7589,1.7589,1.7589,1.7582,1.7608,1.7575,1.7589,1.7555,1.7589,1.7589,1.7549,1.7582,1.7582,1.7562,1.7589,1.7589,1.7589,1.7595,1.7595,1.7609,1.7602,1.7602,1.7682,1.7782,1.7782,1.7842,1.7869,1.7776,1.7615,1.7589,1.7595,1.7602,1.7589,1.7589,1.7589,1.7589,1.7529,1.7312,1.6499,1.5849,1.4984,1.4443,1.4083,1.3689,1.2721,1.205,1.1589,1.0632,1.0182,1.0511,0.9286,0.9191,0.9184,0.9184,0.9184,0.9232,0.9235,0.9208,0.9205,0.9222,0.9222,0.9201,0.915,0.911,0.9089,0.9059,0.9018,0.8937,0.8937,0.8937,0.8937,0.8937,0.8937,0.8937,0.8937,0.8937,0.8937,0.892,0.8828,0.8808,0.8804,0.8757,0.8703,0.8645,0.8584,0.8523,0.8472,0.8411,0.8353,0.8326,0.8306,0.8296,0.8252,0.8194,0.8157,0.8133,0.811,0.8032,0.7691,0.7413,0.6545,1.7589,1.7589,1.7589,1.7589,1.7589,1.7589,1.7589,1.7589,1.7589,1.7589,1.7589,1.7589,1.7589,1.7589,1.7589,1.7589,1.7589,1.7589,1.7589,1.7589,1.7589,1.7589,1.7589,1.7589,1.7589,1.7589,1.7589,1.7589,1.7589,1.7589,1.7595,1.7615,1.7649,1.7669,1.7682,1.7736,1.7876,1.8043,1.813,1.8237,1.815,1.8009,1.7849,1.7742,1.7695,1.7695,1.7709,1.7716,1.7716,1.7702,1.7749,1.7656,1.7596,1.7222,1.6788,1.615,1.5922,1.5232,1.4361,1.4022,1.3179,1.2493,1.2223,1.1508,1.0308,0.9863,0.9856,0.947,0.947,0.9446,0.9446,0.9374,0.9378,0.9395,0.9391,0.9371,0.931,0.9256,0.9275,0.9238,0.911,0.9015,0.8974,0.8974,0.8957,0.8954,0.894,0.8937,0.8937,0.8937,0.8937,0.8937,0.8896,0.8899,0.8865,0.8824,0.8753,0.8791,0.8726,0.8652,0.8587,0.8554,0.8523,0.8503,0.8482,0.8428,0.8421,0.8387,0.8357,0.8313,0.8296,0.8269,0.8167,0.7927,0.7965,1.7589,1.7589,1.7589,1.7589,1.7589,1.7589,1.7589,1.7589,1.7589,1.7589,1.7589,1.7589,1.7589,1.7589,1.7589,1.7589,1.7589,1.7589,1.7589,1.7589,1.7589,1.7589,1.7589,1.7589,1.7589,1.7595,1.7609,1.7602,1.7702,1.7662,1.7729,1.7889,1.7956,1.8063,1.8283,1.8297,1.8277,1.8384,1.841,1.8477,1.849,1.8397,1.837,1.8323,1.8317,1.8317,1.8323,1.8323,1.8323,1.8257,1.8103,1.8103,1.8096,1.8063,1.7731,1.7572,1.7393,1.6906,1.6142,1.5831,1.5095,1.3945,1.3595,1.3116,1.2164,1.1532,1.1091,0.9986,0.9905,0.9697,0.9614,0.9449,0.9439,0.949,0.9507,0.9456,0.9401,0.9374,0.9351,0.9327,0.9296,0.9201,0.9117,0.9096,0.9052,0.9032,0.8974,0.8967,0.894,0.8937,0.8947,0.8944,0.8944,0.8937,0.8878,0.8875,0.8831,0.8831,0.8876,0.8801,0.8747,0.872,0.8693,0.8665,0.8584,0.8509,0.8513,0.8577,0.8506,0.8462,0.8448,0.8421,0.8364,0.8306,0.8248]},{"header":{"parameterUnit":"m.s-1","parameterCategory":1,"la1":31.0,"la2":29.5877,"lo1":-88.7671,"lo2":-86.6584,"dy":0.0162,"dx":0.0185,"nx":115,"ny":88,"refTime":"2024-06-11T18:00:00:Z","depth":0,"parameterNumber":3,"parameterNumberName":"V-component_of_WINDS"},"data":[0.0,0.0,0.0,0.0,0.0,0.0,0.0,0.0,0.0,0.0,0.0,0.0,0.0,0.0,0.0,0.0,0.0,0.0,0.0,0.0,0.0,0.0,0.0,0.0,0.0,0.0,0.0,0.0,0.0,0.0,0.0,0.0,0.0,0.0,0.0,0.0,0.0,0.0,0.0,0.0,0.0,0.0,0.0,0.0,0.0,0.0,0.0,0.0,0.0,0.0,0.0,0.0,0.0,0.0,0.0,0.0,0.0,0.0,0.0,0.0,0.0,0.0,0.0,0.0,0.0,0.0,0.0,0.0,0.0,0.0,0.0,0.0,0.0,0.0,0.0,0.0,0.0,0.0,0.0,0.0,0.0,0.0,0.0,0.0,0.0,0.0,0.0,0.0,0.0,0.0,0.0,0.0,0.0,0.0,0.0,0.0,0.0,0.0,0.0,0.0,0.0,0.0,0.0,0.0,0.0,0.0,0.0,0.0,0.0,0.0,0.0,0.0,0.0,0.0,0.0,0.0,0.0,0.0,0.0,0.0,0.0,0.0,0.0,0.0,0.0,0.0,0.0,0.0,0.0,0.0,0.0,0.0,0.0,0.0,0.0,0.0,0.0,0.0,0.0,0.0,0.0,0.0,0.0,0.0,0.0,0.0,0.0,0.0,0.0,0.0,0.0,0.0,0.0,0.0,0.0,0.0,0.0,0.0,0.0,0.0,0.0,0.0,0.0,0.0,0.0,0.0,0.0,0.0,0.0,0.0,0.0,0.0,0.0,0.0,0.0,0.0,0.0,0.0,0.0,0.0,0.0,0.0,0.0,0.0,0.0,0.0,0.0,0.0,0.0,0.0,0.0,0.0,0.0,0.0,0.0,0.0,0.0,0.0,0.0,0.0,0.0,0.0,0.0,0.0,0.0,0.0,0.0,0.0,0.0,0.0,0.0,0.0,0.0,0.0,0.0,0.0,0.0,0.0,0.0,0.0,0.0,0.0,0.0,0.0,0.0,0.0,0.0,0.0,0.0,0.0,0.0,0.0,0.0,0.0,0.0,0.0,0.0,0.0,0.0,0.0,0.0,0.0,0.0,0.0,0.0,0.0,0.0,0.0,0.0,0.0,0.0,0.0,0.0,0.0,0.0,0.0,0.0,0.0,0.0,0.0,0.0,0.0,0.0,0.0,0.0,0.0,0.0,0.0,0.0,0.0,0.0,0.0,0.0,0.0,0.0,0.0,0.0,0.0,0.0,0.0,0.0,0.0,0.0,0.0,0.0,0.0,0.0,0.0,0.0,0.0,0.0,0.0,0.0,0.0,0.0,0.0,0.0,0.0,0.0,0.0,0.0,0.0,0.0,0.0,0.0,0.0,0.0,0.0,0.0,0.0,0.0,0.0,0.0,0.0,0.0,0.0,0.0,0.0,0.0,0.0,0.0,0.0,0.0,0.0,0.0,0.0,0.0,0.0,0.0,0.0,0.0,0.0,0.0,0.0,0.0,0.0,0.0,0.0,0.0,0.0,0.0,0.0,0.0,0.0,0.0,0.0,0.0,0.0,0.0,0.0,0.0,0.0,0.0,0.0,0.0,0.0,0.0,0.0,0.0,0.0,0.0,0.0,0.0,0.0,0.0,0.0,0.0,0.0,0.0,0.0,0.0,0.0,0.0,0.0,0.0,0.0,0.0,0.0,0.0,0.0,0.0,0.0,0.0,0.0,0.0,0.0,0.0,0.0,0.0,0.0,0.0,0.0,0.0,0.0,0.0,0.0,0.0,0.0,0.0,0.0,0.0,0.0,0.0,0.0,0.0,0.0,0.0,0.0,0.0,0.0,0.0,0.0,0.0,0.0,0.0,0.0,0.0,0.0,0.0,0.0,0.0,0.0,0.0,0.0,0.0,0.0,0.0,0.0,0.0,0.0,0.0,0.0,0.0,0.0,0.0,0.0,0.0,0.0,0.0,0.0,0.0,0.0,0.0,0.0,0.0,0.0,0.0,0.0,0.0,0.0,0.0,0.0,0.0,0.0,0.0,0.0,0.0,0.0,0.0,0.0,0.0,0.0,0.0,0.0,0.0,0.0,0.0,0.0,0.0,0.0,0.0,0.0,0.0,0.0,0.0,0.0,0.0,0.0,0.0,0.0,0.0,0.0,0.0,0.0,0.0,0.0,0.0,0.0,0.0,0.0,0.0,0.0,0.0,0.0,0.0,0.0,0.0,0.0,0.0,0.0,0.0,0.0,0.0,0.0,0.0,0.0,0.0,0.0,0.0,0.0,0.0,0.0,0.0,0.0,0.0,0.0,0.0,0.0,0.0,0.0,0.0,0.0,0.0,0.0,0.0,0.0,0.0,0.0,0.0,0.0,0.0,0.0,0.0,0.0,0.0,0.0,0.0,0.0,0.0,0.0,0.0,0.0,0.0,0.0,0.0,0.0,0.0,0.0,0.0,0.0,0.0,0.0,0.0,0.0,0.0,0.0,0.0,0.0,0.0,0.0,0.0,0.0,0.0,0.0,0.0,0.0,0.0,0.0,0.0,0.0,0.0,0.0,0.0,0.0,0.0,0.0,0.0,0.0,0.0,0.0,0.0,0.0,0.0,0.0,0.0,0.0,0.0,0.0,0.0,0.0,0.0,0.0,0.0,0.0,0.0,0.0,0.0,0.0,0.0,0.0,0.0,0.0,0.0,0.0,0.0,0.0,0.0,0.0,0.0,0.0,0.0,0.0,0.0,0.0,0.0,0.0,0.0,0.0,0.0,0.0,0.0,0.0,0.0,0.0,0.0,0.0,0.0,0.0,0.0,0.0,0.0,0.0,0.0,0.0,0.0,0.0,0.0,0.0,0.0,0.0,0.0,0.0,0.0,0.0,0.0,0.0,0.0,0.0,0.0,0.0,0.0,0.0,0.0,0.0,0.0,0.0,0.0,0.0,0.0,0.0,0.0,0.0,0.0,0.0,0.0,0.0,0.0,0.0,0.0,0.0,0.0,0.0,0.0,0.0,0.0,0.0,0.0,0.0,0.0,0.0,0.0,0.0,0.0,0.0,0.0,0.0,0.0,0.0,0.0,0.0,0.0,0.0,0.0,0.0,0.0,0.0,0.0,0.0,0.0,0.0,0.0,0.0,0.0,0.0,0.0,0.0,0.0,0.0,0.0,0.0,0.0,0.0,0.0,0.0,0.0,0.0,0.0,0.0,0.0,0.0,0.0,0.0,0.0,0.0,0.0,0.0,0.0,0.0,0.0,0.0,0.0,0.0,0.0,0.0,0.0,0.0,0.0,0.0,0.0,0.0,0.0,0.0,0.0,0.0,0.0,0.0,0.0,0.0,0.0,0.0,0.0,0.0,0.0,0.0,0.0,0.0,0.0,0.0,0.0,0.0,0.0,0.0,0.0,0.0,0.0,0.0,0.0,0.0,0.0,0.0,0.0,0.0,0.0,0.0,0.0,0.0,0.0,0.0,0.0,0.0,0.0,0.0,0.0,0.0,0.0,0.0,0.0,0.0,0.0,0.0,0.0,0.0,0.0,0.0,0.0,0.0,0.0,0.0,0.0,0.0,0.0,0.0,0.0,0.0,0.0,0.0,0.0,0.0,0.0,0.0,0.0,0.0,0.0,0.0,0.0,0.0,0.0,0.0,0.0,0.0,0.0,0.0,0.0,0.0,0.0,0.0,0.0,0.0,0.0,0.0,0.0,0.0,0.0,0.0,0.0,0.0,0.0,0.0,0.0,0.0,0.0,0.0,0.0,0.0,0.0,0.0,0.0,0.0,0.0,0.0,0.0,0.0,0.0,0.0,0.0,0.0,0.0,0.0,0.0,0.0,0.0,0.0,0.0,0.0,0.0,0.0,0.0,0.0,0.0,0.0,0.0,0.0,0.0,0.0,0.0,0.0,0.0,0.0,0.0,0.0,0.0,0.0,0.0,0.0,0.0,0.0,0.0,0.0,0.0,0.0,0.0,0.0,0.0,0.0,0.0,0.0,0.0,0.0,0.0,0.0,0.0,0.0,0.0,0.0,0.0,0.0,0.0,0.0,0.0,0.0,0.0,0.0,0.0,0.0,0.0,0.0,0.0,0.0,0.0,0.0,0.0,0.0,0.0,0.0,0.0,0.0,0.0,0.0,0.0,0.0,0.0,0.0,0.0,0.0,0.0,0.0,0.0,0.0,0.0,0.0,0.0,0.0,0.0,0.0,0.0,0.0,0.0,0.0,0.0,0.0,0.0,0.0,0.0,0.0,0.0,0.0,0.0,0.0,0.0,0.0,0.0,0.0,0.0,0.0,0.0,0.0,2.6465,0.0,0.0,0.0,0.0,0.0,0.0,0.0,0.0,0.0,0.0,0.0,0.0,0.0,0.0,0.0,0.0,0.0,0.0,0.0,0.0,0.0,0.0,0.0,0.0,0.0,0.0,0.0,0.0,0.0,0.0,0.0,0.0,0.0,0.0,0.0,0.0,0.0,0.0,0.0,0.0,0.0,0.0,0.0,0.0,0.0,0.0,0.0,0.0,0.0,0.0,0.0,0.0,0.0,0.0,0.0,0.0,0.0,0.0,0.0,0.0,0.0,0.0,0.0,0.0,0.0,0.0,0.0,0.0,0.0,0.0,0.0,0.0,0.0,0.0,0.0,0.0,0.0,0.0,0.0,0.0,0.0,0.0,0.0,0.0,0.0,0.0,0.0,0.0,0.0,0.0,0.0,0.0,0.0,0.0,0.0,0.0,0.0,0.0,0.0,0.0,0.0,0.0,0.0,0.0,0.0,0.0,0.0,0.0,0.0,0.0,2.9232,2.9214,2.8563,2.7745,2.6791,0.0,0.0,0.0,0.0,0.0,0.0,0.0,0.0,0.0,0.0,0.0,0.0,0.0,0.0,0.0,0.0,0.0,0.0,0.0,0.0,0.0,0.0,0.0,0.0,0.0,0.0,0.0,0.0,0.0,0.0,0.0,0.0,0.0,0.0,0.0,0.0,0.0,0.0,0.0,0.0,0.0,0.0,0.0,0.0,0.0,0.0,0.0,0.0,0.0,0.0,0.0,0.0,0.0,0.0,0.0,0.0,0.0,0.0,0.0,0.0,0.0,0.0,0.0,0.0,0.0,0.0,0.0,0.0,0.0,0.0,0.0,0.0,0.0,0.0,0.0,0.0,0.0,0.0,0.0,0.0,0.0,0.0,0.0,0.0,0.0,0.0,0.0,0.0,0.0,0.0,0.0,0.0,0.0,0.0,0.0,0.0,0.0,0.0,0.0,0.0,0.0,0.0,0.0,0.0,0.0,0.0,0.0,0.0,0.0,0.0,0.0,0.0,2.9295,2.8493,2.7296,0.0,0.0,0.0,0.0,0.0,0.0,0.0,0.0,0.0,0.0,0.0,0.0,0.0,0.0,0.0,0.0,0.0,0.0,0.0,0.0,0.0,0.0,0.0,0.0,0.0,0.0,0.0,0.0,0.0,0.0,0.0,0.0,0.0,0.0,0.0,0.0,0.0,0.0,0.0,0.0,0.0,0.0,0.0,0.0,0.0,0.0,0.0,0.0,0.0,0.0,0.0,0.0,0.0,0.0,0.0,0.0,0.0,0.0,0.0,0.0,0.0,0.0,0.0,0.0,0.0,0.0,0.0,0.0,0.0,0.0,0.0,0.0,0.0,0.0,0.0,0.0,0.0,0.0,0.0,0.0,0.0,0.0,0.0,0.0,0.0,0.0,0.0,0.0,0.0,0.0,0.0,0.0,0.0,0.0,0.0,0.0,0.0,0.0,0.0,0.0,0.0,0.0,0.0,0.0,0.0,0.0,0.0,0.0,0.0,0.0,3.0064,3.0836,3.0788,0.0,2.8449,0.0,0.0,0.0,0.0,0.0,0.0,0.0,0.0,0.0,0.0,0.0,0.0,0.0,0.0,0.0,0.0,0.0,0.0,0.0,0.0,0.0,0.0,0.0,0.0,0.0,0.0,0.0,0.0,0.0,0.0,0.0,0.0,0.0,0.0,0.0,0.0,0.0,0.0,0.0,0.0,0.0,0.0,0.0,0.0,0.0,0.0,0.0,0.0,0.0,0.0,0.0,0.0,0.0,0.0,0.0,0.0,0.0,0.0,0.0,0.0,0.0,0.0,0.0,0.0,0.0,0.0,0.0,0.0,0.0,0.0,0.0,0.0,0.0,0.0,0.0,0.0,0.0,0.0,0.0,0.0,0.0,0.0,0.0,0.0,0.0,0.0,0.0,0.0,0.0,0.0,0.0,0.0,0.0,0.0,0.0,0.0,0.0,0.0,0.0,0.0,0.0,0.0,0.0,0.0,0.0,0.0,0.0,0.0,0.0,0.0,3.0831,3.1181,3.022,2.9443,0.0,0.0,0.0,0.0,0.0,0.0,0.0,0.0,0.0,0.0,0.0,0.0,0.0,0.0,0.0,0.0,0.0,0.0,0.0,0.0,0.0,0.0,0.0,0.0,0.0,0.0,0.0,0.0,0.0,0.0,0.0,0.0,0.0,0.0,0.0,0.0,0.0,0.0,0.0,0.0,0.0,0.0,0.0,0.0,0.0,0.0,0.0,0.0,0.0,0.0,0.0,0.0,0.0,0.0,0.0,0.0,0.0,0.0,0.0,0.0,0.0,0.0,0.0,0.0,0.0,0.0,0.0,0.0,0.0,0.0,0.0,0.0,0.0,0.0,0.0,0.0,0.0,0.0,0.0,0.0,0.0,0.0,0.0,0.0,0.0,0.0,0.0,0.0,0.0,0.0,0.0,0.0,0.0,0.0,0.0,0.0,0.0,0.0,0.0,0.0,0.0,0.0,0.0,0.0,0.0,0.0,0.0,0.0,0.0,0.0,3.1155,3.1443,3.1385,3.0478,2.9588,2.8794,0.0,0.0,0.0,0.0,0.0,0.0,0.0,0.0,0.0,0.0,0.0,0.0,0.0,0.0,0.0,0.0,0.0,0.0,0.0,0.0,0.0,0.0,0.0,0.0,0.0,0.0,0.0,0.0,0.0,0.0,0.0,0.0,0.0,0.0,0.0,0.0,0.0,0.0,0.0,0.0,0.0,0.0,0.0,0.0,0.0,0.0,0.0,0.0,0.0,0.0,0.0,0.0,0.0,0.0,0.0,0.0,0.0,0.0,0.0,0.0,0.0,0.0,0.0,0.0,0.0,0.0,0.0,0.0,0.0,0.0,0.0,0.0,0.0,0.0,0.0,0.0,0.0,0.0,0.0,0.0,0.0,0.0,0.0,0.0,0.0,0.0,0.0,0.0,0.0,0.0,0.0,0.0,0.0,0.0,0.0,0.0,0.0,0.0,0.0,0.0,0.0,0.0,0.0,0.0,0.0,0.0,0.0,0.0,0.0,3.209,3.1781,3.1815,3.2435,3.1293,0.0,0.0,0.0,0.0,0.0,0.0,0.0,0.0,0.0,0.0,0.0,0.0,0.0,0.0,0.0,0.0,0.0,0.0,0.0,0.0,0.0,0.0,0.0,0.0,0.0,0.0,0.0,0.0,0.0,0.0,0.0,0.0,0.0,0.0,0.0,0.0,0.0,0.0,0.0,0.0,0.0,0.0,0.0,0.0,0.0,0.0,0.0,0.0,0.0,0.0,0.0,0.0,0.0,0.0,0.0,0.0,0.0,0.0,0.0,0.0,0.0,0.0,0.0,0.0,0.0,0.0,0.0,0.0,0.0,0.0,0.0,0.0,0.0,0.0,0.0,0.0,0.0,0.0,0.0,0.0,0.0,0.0,0.0,0.0,0.0,0.0,0.0,0.0,0.0,0.0,0.0,0.0,0.0,0.0,0.0,0.0,0.0,0.0,0.0,0.0,0.0,0.0,0.0,0.0,0.0,0.0,0.0,0.0,0.0,3.1394,3.1705,3.2407,3.3402,3.1677,3.0292,0.0,0.0,0.0,0.0,0.0,0.0,0.0,0.0,0.0,0.0,0.0,0.0,0.0,0.0,0.0,0.0,0.0,0.0,0.0,0.0,0.0,0.0,0.0,0.0,0.0,0.0,0.0,0.0,0.0,0.0,0.0,0.0,0.0,0.0,0.0,0.0,0.0,0.0,0.0,0.0,0.0,0.0,0.0,0.0,0.0,0.0,0.0,0.0,0.0,0.0,0.0,0.0,0.0,0.0,0.0,0.0,0.0,0.0,0.0,0.0,0.0,0.0,0.0,0.0,0.0,0.0,0.0,0.0,0.0,0.0,0.0,0.0,0.0,0.0,0.0,0.0,0.0,0.0,0.0,0.0,0.0,0.0,0.0,0.0,0.0,0.0,0.0,0.0,0.0,0.0,0.0,0.0,0.0,0.0,0.0,0.0,0.0,0.0,0.0,0.0,0.0,0.0,0.0,0.0,0.0,0.0,0.0,0.0,0.0,3.1453,0.0,3.3065,0.0,3.1389,2.9874,0.0,0.0,0.0,0.0,0.0,0.0,0.0,0.0,0.0,0.0,0.0,0.0,0.0,0.0,0.0,0.0,0.0,0.0,0.0,0.0,0.0,0.0,0.0,0.0,0.0,0.0,0.0,0.0,0.0,0.0,0.0,0.0,0.0,0.0,0.0,0.0,0.0,0.0,0.0,0.0,0.0,0.0,0.0,0.0,0.0,0.0,0.0,0.0,0.0,0.0,0.0,0.0,0.0,0.0,0.0,0.0,0.0,0.0,0.0,0.0,0.0,0.0,0.0,0.0,0.0,0.0,0.0,0.0,0.0,0.0,0.0,0.0,0.0,0.0,0.0,0.0,0.0,0.0,0.0,0.0,0.0,0.0,0.0,0.0,0.0,0.0,0.0,0.0,0.0,0.0,0.0,0.0,0.0,0.0,0.0,0.0,0.0,0.0,0.0,0.0,0.0,0.0,0.0,0.0,0.0,0.0,0.0,0.0,3.1461,3.3086,3.3965,3.3632,3.2028,3.1875,3.0285,0.0,0.0,0.0,0.0,0.0,0.0,0.0,0.0,0.0,0.0,0.0,0.0,0.0,0.0,0.0,0.0,0.0,0.0,0.0,0.0,0.0,0.0,0.0,0.0,0.0,0.0,0.0,0.0,0.0,0.0,0.0,0.0,0.0,0.0,0.0,0.0,0.0,0.0,0.0,0.0,0.0,0.0,0.0,0.0,0.0,0.0,0.0,0.0,0.0,0.0,0.0,0.0,0.0,0.0,0.0,0.0,0.0,0.0,0.0,0.0,0.0,0.0,0.0,0.0,0.0,0.0,0.0,0.0,0.0,0.0,0.0,0.0,0.0,0.0,0.0,0.0,0.0,0.0,0.0,0.0,0.0,0.0,0.0,0.0,0.0,0.0,0.0,0.0,0.0,0.0,0.0,0.0,0.0,0.0,0.0,0.0,0.0,0.0,0.0,0.0,0.0,0.0,0.0,0.0,0.0,0.0,0.0,0.0,0.0,3.2318,3.3154,3.3641,3.3636,3.1976,3.056,0.0,0.0,0.0,0.0,0.0,0.0,0.0,0.0,0.0,0.0,0.0,0.0,0.0,0.0,0.0,0.0,0.0,0.0,0.0,0.0,0.0,0.0,0.0,0.0,0.0,0.0,0.0,0.0,0.0,0.0,0.0,0.0,0.0,0.0,0.0,0.0,0.0,0.0,0.0,0.0,0.0,0.0,0.0,0.0,0.0,0.0,0.0,0.0,0.0,0.0,0.0,0.0,0.0,0.0,0.0,0.0,0.0,0.0,0.0,0.0,0.0,0.0,0.0,0.0,0.0,0.0,0.0,0.0,0.0,0.0,0.0,0.0,0.0,0.0,0.0,0.0,0.0,0.0,0.0,0.0,0.0,0.0,0.0,0.0,0.0,0.0,0.0,0.0,0.0,0.0,0.0,0.0,0.0,0.0,0.0,0.0,0.0,0.0,0.0,0.0,0.0,0.0,0.0,0.0,0.0,0.0,0.0,0.0,0.0,3.2524,3.3523,3.4194,3.4412,3.226,3.0808,3.0143,0.0,0.0,0.0,0.0,0.0,0.0,0.0,0.0,0.0,0.0,0.0,0.0,0.0,0.0,0.0,0.0,0.0,0.0,0.0,0.0,0.0,0.0,0.0,0.0,0.0,0.0,0.0,0.0,0.0,0.0,0.0,0.0,0.0,0.0,0.0,0.0,0.0,0.0,0.0,0.0,0.0,0.0,0.0,0.0,0.0,0.0,0.0,0.0,0.0,0.0,0.0,0.0,0.0,0.0,0.0,0.0,0.0,0.0,0.0,0.0,0.0,0.0,0.0,0.0,0.0,0.0,0.0,0.0,0.0,0.0,0.0,0.0,0.0,0.0,0.0,0.0,0.0,0.0,0.0,0.0,0.0,0.0,0.0,0.0,0.0,0.0,0.0,0.0,0.0,0.0,0.0,0.0,0.0,0.0,0.0,0.0,0.0,0.0,0.0,0.0,0.0,0.0,0.0,0.0,0.0,0.0,0.0,0.0,3.3325,3.4735,3.5085,3.4364,3.2715,3.1111,0.0,0.0,0.0,0.0,0.0,0.0,0.0,0.0,0.0,0.0,0.0,0.0,0.0,0.0,0.0,0.0,0.0,0.0,0.0,0.0,0.0,0.0,0.0,0.0,0.0,0.0,0.0,0.0,0.0,0.0,0.0,0.0,0.0,0.0,0.0,0.0,0.0,0.0,0.0,0.0,0.0,0.0,0.0,0.0,0.0,0.0,0.0,0.0,0.0,0.0,0.0,0.0,0.0,0.0,0.0,0.0,0.0,0.0,0.0,0.0,0.0,0.0,0.0,0.0,0.0,0.0,0.0,0.0,0.0,0.0,0.0,0.0,0.0,0.0,0.0,0.0,0.0,0.0,0.0,0.0,0.0,0.0,0.0,0.0,0.0,0.0,0.0,0.0,0.0,0.0,0.0,0.0,0.0,0.0,0.0,0.0,0.0,0.0,0.0,0.0,0.0,0.0,0.0,0.0,0.0,0.0,0.0,0.0,0.0,3.2591,3.3473,3.4252,3.4837,3.3256,3.2009,0.0,0.0,0.0,0.0,0.0,0.0,0.0,0.0,0.0,0.0,0.0,0.0,0.0,0.0,0.0,0.0,0.0,0.0,0.0,0.0,0.0,0.0,0.0,0.0,0.0,0.0,0.0,0.0,0.0,0.0,0.0,0.0,0.0,0.0,0.0,0.0,0.0,0.0,0.0,0.0,0.0,0.0,0.0,0.0,0.0,0.0,0.0,0.0,0.0,0.0,0.0,0.0,0.0,0.0,0.0,0.0,0.0,0.0,0.0,0.0,0.0,0.0,0.0,0.0,0.0,0.0,0.0,0.0,0.0,0.0,0.0,0.0,0.0,0.0,0.0,0.0,0.0,0.0,0.0,0.0,0.0,0.0,0.0,0.0,0.0,0.0,0.0,0.0,0.0,0.0,0.0,0.0,0.0,0.0,0.0,0.0,0.0,0.0,0.0,0.0,0.0,0.0,0.0,0.0,0.0,0.0,0.0,0.0,3.2732,3.218,3.2265,3.2713,3.3484,3.2556,3.1943,0.0,0.0,0.0,0.0,0.0,0.0,0.0,0.0,0.0,0.0,0.0,0.0,0.0,0.0,0.0,0.0,0.0,0.0,0.0,0.0,0.0,0.0,0.0,0.0,0.0,0.0,0.0,0.0,0.0,0.0,0.0,0.0,0.0,0.0,0.0,0.0,0.0,0.0,0.0,0.0,0.0,0.0,0.0,0.0,0.0,0.0,0.0,0.0,0.0,0.0,0.0,0.0,0.0,0.0,0.0,0.0,0.0,0.0,0.0,0.0,0.0,0.0,0.0,0.0,0.0,0.0,0.0,0.0,0.0,0.0,0.0,0.0,0.0,0.0,0.0,0.0,0.0,0.0,0.0,0.0,0.0,0.0,0.0,0.0,0.0,0.0,0.0,0.0,0.0,0.0,0.0,0.0,0.0,0.0,0.0,0.0,0.0,0.0,0.0,0.0,0.0,0.0,0.0,0.0,0.0,0.0,0.0,0.0,3.2215,3.1899,3.1113,3.0835,3.1091,3.1205,3.1275,0.0,0.0,0.0,0.0,0.0,0.0,0.0,0.0,0.0,0.0,0.0,0.0,0.0,0.0,0.0,0.0,0.0,0.0,0.0,0.0,0.0,0.0,0.0,0.0,0.0,0.0,0.0,0.0,0.0,0.0,0.0,0.0,0.0,0.0,0.0,0.0,0.0,0.0,0.0,0.0,0.0,0.0,0.0,0.0,0.0,0.0,0.0,0.0,0.0,0.0,0.0,0.0,0.0,0.0,0.0,0.0,0.0,0.0,0.0,0.0,0.0,0.0,0.0,0.0,0.0,0.0,0.0,0.0,0.0,0.0,0.0,0.0,0.0,0.0,0.0,0.0,0.0,0.0,0.0,0.0,0.0,0.0,0.0,0.0,0.0,0.0,0.0,0.0,0.0,0.0,0.0,0.0,0.0,0.0,0.0,0.0,0.0,0.0,0.0,0.0,0.0,0.0,0.0,0.0,0.0,0.0,0.0,0.0,3.1293,3.0617,2.9867,2.9621,2.9955,3.0472,3.0931,0.0,0.0,0.0,0.0,0.0,0.0,0.0,0.0,0.0,0.0,0.0,0.0,0.0,0.0,0.0,0.0,0.0,0.0,0.0,0.0,0.0,0.0,0.0,0.0,0.0,0.0,0.0,0.0,0.0,0.0,0.0,0.0,0.0,0.0,0.0,0.0,0.0,0.0,0.0,0.0,0.0,0.0,0.0,0.0,0.0,0.0,0.0,0.0,3.674,0.0,0.0,0.0,0.0,0.0,0.0,0.0,0.0,0.0,0.0,0.0,0.0,0.0,0.0,0.0,0.0,0.0,0.0,0.0,0.0,0.0,0.0,0.0,0.0,0.0,0.0,0.0,0.0,0.0,0.0,0.0,0.0,0.0,0.0,0.0,0.0,0.0,0.0,0.0,0.0,0.0,0.0,0.0,0.0,0.0,0.0,0.0,0.0,0.0,0.0,0.0,0.0,0.0,0.0,0.0,0.0,0.0,0.0,0.0,3.0352,2.9899,2.8809,2.835,2.8518,2.919,3.0012,0.0,0.0,0.0,0.0,0.0,0.0,0.0,0.0,0.0,0.0,0.0,0.0,0.0,0.0,0.0,0.0,0.0,0.0,0.0,0.0,0.0,0.0,0.0,0.0,0.0,0.0,0.0,0.0,0.0,0.0,0.0,0.0,0.0,0.0,0.0,0.0,0.0,0.0,0.0,0.0,0.0,0.0,0.0,0.0,0.0,0.0,0.0,0.0,0.0,0.0,0.0,0.0,0.0,0.0,0.0,0.0,0.0,0.0,0.0,0.0,0.0,0.0,0.0,0.0,0.0,0.0,0.0,0.0,0.0,0.0,0.0,0.0,0.0,0.0,0.0,0.0,0.0,0.0,0.0,0.0,0.0,0.0,0.0,0.0,0.0,0.0,0.0,0.0,0.0,0.0,0.0,0.0,0.0,0.0,0.0,0.0,0.0,0.0,0.0,0.0,0.0,0.0,0.0,0.0,0.0,0.0,0.0,2.9782,2.9265,2.9334,2.7806,2.7049,2.7175,2.7798,2.8763,3.0109,0.0,0.0,0.0,0.0,0.0,0.0,0.0,0.0,0.0,0.0,0.0,0.0,0.0,0.0,0.0,0.0,0.0,0.0,0.0,0.0,0.0,0.0,0.0,0.0,0.0,0.0,0.0,0.0,0.0,0.0,0.0,0.0,0.0,0.0,0.0,0.0,0.0,0.0,3.3861,3.6406,0.0,0.0,0.0,0.0,0.0,0.0,0.0,0.0,3.8937,0.0,0.0,0.0,0.0,0.0,0.0,0.0,0.0,0.0,0.0,0.0,0.0,0.0,0.0,0.0,0.0,0.0,0.0,0.0,0.0,0.0,0.0,0.0,0.0,0.0,0.0,0.0,0.0,0.0,0.0,0.0,0.0,0.0,0.0,0.0,0.0,0.0,0.0,0.0,0.0,0.0,0.0,0.0,0.0,0.0,0.0,0.0,0.0,0.0,0.0,0.0,0.0,0.0,0.0,0.0,0.0,3.1166,2.8783,2.7811,2.8377,2.6541,2.5898,2.6605,2.6752,2.7293,2.825,0.0,0.0,0.0,0.0,0.0,0.0,0.0,0.0,0.0,0.0,0.0,0.0,0.0,0.0,0.0,0.0,0.0,0.0,0.0,0.0,0.0,0.0,0.0,0.0,0.0,0.0,0.0,0.0,0.0,0.0,0.0,0.0,0.0,0.0,0.0,0.0,0.0,0.0,0.0,3.7488,3.8322,0.0,0.0,0.0,0.0,0.0,0.0,0.0,0.0,3.9376,0.0,0.0,0.0,0.0,0.0,0.0,0.0,0.0,0.0,0.0,0.0,0.0,0.0,0.0,0.0,0.0,0.0,0.0,0.0,0.0,0.0,0.0,0.0,0.0,0.0,0.0,0.0,0.0,0.0,0.0,0.0,0.0,0.0,0.0,0.0,0.0,0.0,0.0,0.0,0.0,0.0,0.0,0.0,0.0,0.0,0.0,0.0,0.0,0.0,0.0,0.0,0.0,0.0,0.0,0.0,3.0258,2.8563,2.783,2.8127,2.6231,2.551,2.6214,2.6421,2.6851,0.0,0.0,0.0,0.0,0.0,0.0,0.0,0.0,0.0,0.0,0.0,0.0,0.0,0.0,0.0,0.0,0.0,0.0,0.0,0.0,0.0,0.0,0.0,0.0,0.0,0.0,0.0,0.0,0.0,0.0,0.0,0.0,0.0,0.0,0.0,0.0,0.0,0.0,0.0,0.0,3.741,3.7947,3.9471,0.0,0.0,0.0,0.0,0.0,0.0,3.8769,3.952,0.0,0.0,0.0,0.0,0.0,0.0,0.0,0.0,0.0,0.0,0.0,0.0,0.0,0.0,0.0,0.0,0.0,0.0,0.0,0.0,0.0,0.0,0.0,0.0,0.0,0.0,0.0,0.0,0.0,0.0,0.0,0.0,0.0,0.0,0.0,0.0,0.0,0.0,0.0,0.0,0.0,0.0,0.0,0.0,0.0,0.0,0.0,0.0,0.0,0.0,0.0,0.0,0.0,0.0,0.0,2.9263,2.8417,2.7924,2.7777,2.5979,2.5297,2.5834,2.6109,2.6539,0.0,0.0,0.0,0.0,0.0,0.0,0.0,0.0,0.0,0.0,0.0,0.0,0.0,0.0,0.0,0.0,0.0,0.0,0.0,0.0,0.0,0.0,0.0,0.0,0.0,0.0,0.0,0.0,0.0,0.0,0.0,0.0,0.0,0.0,0.0,0.0,0.0,0.0,0.0,0.0,0.0,3.7539,3.8689,3.7729,0.0,0.0,0.0,0.0,3.7728,3.8544,0.0,0.0,0.0,0.0,0.0,0.0,0.0,0.0,0.0,0.0,0.0,0.0,0.0,0.0,0.0,0.0,0.0,0.0,0.0,0.0,0.0,0.0,0.0,0.0,0.0,0.0,0.0,0.0,0.0,0.0,0.0,0.0,0.0,0.0,0.0,0.0,0.0,0.0,0.0,0.0,0.0,0.0,0.0,0.0,0.0,0.0,0.0,0.0,0.0,0.0,0.0,0.0,0.0,0.0,0.0,0.0,2.8486,2.7679,2.7008,2.6478,2.5206,2.4736,2.5278,2.5338,2.5803,0.0,0.0,0.0,0.0,0.0,0.0,0.0,0.0,0.0,0.0,0.0,0.0,0.0,0.0,0.0,0.0,0.0,0.0,0.0,0.0,0.0,0.0,0.0,0.0,0.0,0.0,0.0,0.0,0.0,0.0,0.0,0.0,0.0,0.0,0.0,0.0,0.0,0.0,0.0,0.0,0.0,3.6927,3.6466,3.6202,3.606,0.0,0.0,3.606,3.6167,3.6899,0.0,0.0,0.0,0.0,0.0,0.0,0.0,0.0,0.0,0.0,0.0,0.0,0.0,0.0,0.0,0.0,0.0,0.0,0.0,0.0,0.0,0.0,0.0,0.0,0.0,0.0,0.0,0.0,0.0,0.0,0.0,0.0,0.0,0.0,0.0,0.0,0.0,0.0,0.0,0.0,0.0,0.0,0.0,0.0,0.0,0.0,0.0,0.0,0.0,0.0,0.0,0.0,0.0,0.0,0.0,2.8283,2.8032,2.7143,2.6548,2.6262,2.4766,2.4348,2.5182,2.5202,2.5672,0.0,0.0,0.0,0.0,0.0,0.0,0.0,0.0,0.0,0.0,0.0,0.0,0.0,0.0,0.0,0.0,0.0,0.0,0.0,0.0,0.0,0.0,0.0,0.0,0.0,0.0,0.0,0.0,0.0,0.0,0.0,0.0,0.0,0.0,0.0,0.0,0.0,0.0,0.0,0.0,0.0,0.0,3.6592,3.6234,0.0,0.0,0.0,3.6074,3.657,0.0,0.0,0.0,0.0,0.0,0.0,0.0,0.0,0.0,0.0,0.0,0.0,0.0,0.0,0.0,0.0,0.0,0.0,0.0,0.0,0.0,0.0,0.0,0.0,0.0,0.0,0.0,0.0,0.0,0.0,0.0,0.0,0.0,0.0,0.0,0.0,0.0,0.0,0.0,0.0,0.0,0.0,0.0,0.0,0.0,0.0,0.0,0.0,0.0,0.0,0.0,0.0,0.0,0.0,0.0,0.0,0.0,2.7519,2.6968,2.6474,2.6006,2.4694,2.4328,2.4989,2.5128,0.0,0.0,0.0,0.0,0.0,0.0,0.0,0.0,0.0,0.0,0.0,0.0,0.0,0.0,0.0,0.0,0.0,0.0,0.0,0.0,0.0,0.0,0.0,0.0,0.0,0.0,0.0,2.6259,0.0,0.0,0.0,0.0,0.0,0.0,0.0,0.0,0.0,0.0,0.0,0.0,0.0,0.0,3.5517,3.6404,3.5983,3.5814,0.0,0.0,3.5492,3.5989,3.616,3.6297,0.0,0.0,0.0,0.0,0.0,0.0,0.0,0.0,0.0,0.0,0.0,0.0,0.0,0.0,0.0,0.0,0.0,0.0,0.0,0.0,0.0,0.0,0.0,0.0,0.0,0.0,0.0,0.0,0.0,0.0,0.0,0.0,0.0,0.0,0.0,0.0,0.0,0.0,0.0,0.0,0.0,0.0,0.0,0.0,0.0,0.0,0.0,0.0,0.0,0.0,0.0,0.0,0.0,0.0,0.0,2.6793,2.7383,2.6868,2.5336,2.516,2.4875,2.4471,2.495,2.5123,0.0,0.0,0.0,0.0,0.0,0.0,0.0,0.0,0.0,0.0,0.0,0.0,0.0,0.0,0.0,0.0,0.0,0.0,0.0,0.0,0.0,0.0,0.0,0.0,0.0,0.0,0.0,0.0,0.0,0.0,0.0,0.0,0.0,0.0,0.0,0.0,0.0,0.0,0.0,0.0,0.0,3.589,3.4819,3.4688,3.4724,0.0,3.4195,3.3555,3.3016,3.3407,3.3928,3.4499,0.0,0.0,0.0,0.0,0.0,0.0,0.0,0.0,0.0,0.0,0.0,0.0,0.0,0.0,0.0,0.0,0.0,0.0,0.0,0.0,0.0,0.0,0.0,0.0,0.0,0.0,0.0,0.0,0.0,0.0,0.0,0.0,0.0,0.0,0.0,0.0,0.0,0.0,0.0,0.0,0.0,0.0,0.0,0.0,0.0,0.0,0.0,0.0,0.0,0.0,0.0,0.0,0.0,2.6101,2.6279,2.6224,2.5707,2.4768,2.4389,2.4415,2.4891,2.5086,2.545,0.0,0.0,0.0,0.0,0.0,0.0,0.0,0.0,0.0,0.0,0.0,0.0,0.0,0.0,0.0,0.0,0.0,0.0,0.0,0.0,0.0,0.0,0.0,0.0,0.0,0.0,0.0,0.0,2.8289,2.8913,2.9531,0.0,0.0,0.0,0.0,0.0,0.0,0.0,0.0,0.0,0.0,3.5202,3.517,3.52,0.0,0.0,3.4726,3.4601,3.3925,3.4366,3.4875,3.5093,3.5197,0.0,0.0,0.0,0.0,0.0,0.0,0.0,0.0,0.0,0.0,0.0,0.0,0.0,0.0,0.0,0.0,0.0,0.0,0.0,0.0,0.0,0.0,0.0,0.0,0.0,0.0,0.0,0.0,0.0,0.0,0.0,0.0,0.0,0.0,0.0,0.0,0.0,0.0,0.0,0.0,0.0,0.0,0.0,0.0,0.0,0.0,0.0,0.0,0.0,0.0,0.0,0.0,2.5815,2.6192,2.5707,2.5182,2.4652,2.4116,2.4137,2.4692,2.4875,2.5185,0.0,0.0,0.0,0.0,0.0,0.0,0.0,0.0,0.0,0.0,0.0,0.0,0.0,0.0,0.0,0.0,0.0,0.0,0.0,0.0,0.0,0.0,0.0,0.0,0.0,0.0,0.0,0.0,2.8563,2.9326,3.0988,0.0,0.0,0.0,0.0,0.0,0.0,0.0,0.0,0.0,0.0,3.503,3.5515,3.527,3.4823,3.4358,3.4526,3.4465,3.3784,3.4608,3.5284,3.5325,0.0,0.0,0.0,0.0,0.0,0.0,0.0,0.0,0.0,0.0,0.0,0.0,0.0,0.0,0.0,0.0,0.0,0.0,0.0,0.0,0.0,0.0,0.0,0.0,0.0,0.0,0.0,2.8166,0.0,0.0,2.8212,0.0,0.0,0.0,0.0,0.0,0.0,0.0,0.0,0.0,0.0,0.0,0.0,0.0,0.0,0.0,0.0,0.0,0.0,0.0,0.0,0.0,0.0,2.5947,2.6657,2.6209,2.5707,2.5182,2.4672,2.4178,2.373,2.4158,2.41,2.3448,0.0,0.0,0.0,0.0,0.0,0.0,0.0,0.0,0.0,0.0,0.0,0.0,0.0,0.0,0.0,0.0,0.0,0.0,0.0,0.0,0.0,0.0,0.0,0.0,0.0,0.0,2.8558,2.8932,2.9938,0.0,0.0,0.0,0.0,0.0,0.0,0.0,0.0,0.0,0.0,3.5442,3.5566,3.56,3.4512,3.3751,3.3691,3.3104,3.2441,3.1874,3.3398,3.4659,0.0,0.0,0.0,0.0,0.0,0.0,0.0,0.0,0.0,0.0,0.0,0.0,0.0,0.0,0.0,0.0,0.0,0.0,0.0,0.0,0.0,0.0,0.0,0.0,0.0,0.0,0.0,2.9824,2.9507,0.0,0.0,0.0,0.0,0.0,0.0,0.0,0.0,0.0,0.0,0.0,3.0962,3.0448,0.0,0.0,0.0,0.0,0.0,0.0,0.0,0.0,0.0,0.0,0.0,0.0,2.5815,2.6211,2.6085,2.5742,2.5221,2.5012,2.5012,2.5202,2.5047,2.4509,2.3597,0.0,0.0,0.0,0.0,0.0,0.0,0.0,0.0,0.0,0.0,0.0,0.0,0.0,0.0,0.0,0.0,0.0,0.0,0.0,0.0,0.0,0.0,0.0,0.0,0.0,3.0128,0.0,0.0,0.0,0.0,0.0,0.0,0.0,0.0,0.0,0.0,0.0,3.5428,3.5454,3.5542,3.5616,3.5616,3.5224,3.4773,0.0,0.0,0.0,0.0,0.0,0.0,0.0,0.0,0.0,0.0,0.0,0.0,0.0,0.0,3.9074,3.795,3.7761,3.7495,3.6553,0.0,0.0,0.0,0.0,0.0,0.0,0.0,0.0,0.0,0.0,0.0,0.0,0.0,0.0,3.0467,0.0,3.021,0.0,0.0,0.0,0.0,0.0,0.0,0.0,0.0,3.1182,3.1586,3.1806,3.1568,3.1733,0.0,3.1696,3.0779,0.0,0.0,0.0,0.0,0.0,0.0,0.0,0.0,2.6068,2.6245,2.6085,2.5834,2.5486,2.5297,2.5354,2.5689,2.5186,2.4644,2.4098,2.4265,2.3961,0.0,0.0,0.0,0.0,0.0,0.0,0.0,0.0,0.0,0.0,0.0,0.0,0.0,0.0,0.0,0.0,0.0,0.0,0.0,0.0,0.0,0.0,0.0,3.0522,0.0,0.0,0.0,0.0,0.0,0.0,0.0,0.0,0.0,3.5656,3.564,3.5717,3.5994,3.5769,3.5701,3.5994,0.0,0.0,0.0,0.0,0.0,0.0,0.0,3.6532,3.698,3.7351,3.7381,3.688,3.7291,3.7806,3.8093,0.0,0.0,3.8196,3.8047,3.7934,3.7475,3.7118,3.6921,3.7088,3.674,3.6161,0.0,0.0,0.0,0.0,0.0,0.0,0.0,0.0,3.1507,3.1054,0.0,3.0338,0.0,0.0,0.0,0.0,0.0,3.1794,0.0,0.0,3.2963,3.3366,3.2711,3.3403,3.377,3.3807,3.3752,3.3348,3.2564,3.1843,0.0,0.0,0.0,0.0,0.0,0.0,2.6776,2.6725,2.6312,2.6064,2.6013,2.554,2.5259,2.524,2.4772,2.4585,2.4769,2.44,2.4269,2.4461,2.3814,0.0,0.0,0.0,0.0,0.0,0.0,0.0,0.0,0.0,0.0,0.0,0.0,0.0,0.0,0.0,0.0,0.0,0.0,0.0,0.0,2.9739,0.0,0.0,0.0,0.0,0.0,0.0,0.0,0.0,0.0,0.0,3.5414,3.5939,3.6492,3.6746,0.0,0.0,0.0,0.0,3.4644,3.4679,3.4628,3.4599,3.4647,3.6377,3.7774,3.7826,0.0,0.0,3.7049,3.7347,3.771,3.7543,3.807,3.8706,3.8905,3.8922,3.8898,3.8604,3.8053,3.7839,3.7804,3.7081,3.6192,3.584,0.0,0.0,0.0,0.0,3.3605,3.344,3.3922,3.3348,3.2669,3.1904,3.1904,0.0,0.0,0.0,0.0,0.0,0.0,3.1935,3.2271,3.2742,3.3115,3.3458,3.3697,3.3807,3.3807,3.3807,3.3678,3.3458,3.3238,3.1965,2.9836,0.0,0.0,0.0,0.0,2.8339,2.7537,2.7347,2.7025,2.6504,2.635,2.6105,2.5797,2.5962,2.5653,2.4839,2.5044,2.4978,2.4526,2.4288,0.0,0.0,0.0,0.0,0.0,0.0,0.0,0.0,0.0,0.0,0.0,0.0,0.0,0.0,0.0,0.0,0.0,0.0,0.0,3.0595,3.0411,3.1201,0.0,0.0,0.0,0.0,0.0,0.0,0.0,0.0,0.0,3.6835,3.674,3.6724,0.0,0.0,3.6332,3.5994,3.5582,3.5502,3.6044,3.6084,0.0,3.6797,3.7399,3.7997,3.8508,3.8379,3.7889,3.6965,3.6502,3.6243,3.6173,3.6348,3.6641,3.7126,3.7969,3.8325,3.7775,3.7041,3.6756,3.7183,3.6381,3.5295,3.7698,3.7147,3.6009,3.5826,3.6156,3.4853,3.4546,3.4931,3.4156,3.3532,3.306,3.306,3.2619,3.188,3.188,0.0,0.0,0.0,3.2614,3.3073,3.306,3.333,3.3788,3.3807,3.3807,3.3807,3.3807,3.3807,3.3807,3.3807,3.2797,3.0865,0.0,0.0,2.9894,2.9683,2.923,2.8545,2.8353,2.7909,2.7165,2.6843,2.6573,2.628,2.6367,2.6149,2.5596,2.5698,2.5631,2.5372,2.51,2.4729,0.0,0.0,0.0,0.0,0.0,0.0,0.0,0.0,0.0,0.0,0.0,2.9996,2.9519,0.0,0.0,0.0,2.9769,3.0595,3.2192,3.221,0.0,0.0,0.0,0.0,0.0,0.0,0.0,3.7854,3.8187,3.833,3.8307,3.8116,3.7803,3.731,3.6981,3.6721,3.6535,0.0,3.6212,3.6653,3.6715,3.6832,3.7267,3.7606,3.7946,3.8408,3.7918,3.7188,3.6451,3.5926,3.5616,3.5616,3.5616,3.5677,3.6028,3.6755,3.7341,3.7185,3.6404,3.5976,3.6568,3.5347,3.4128,3.8707,3.8579,3.7092,3.645,3.6321,3.5463,3.5059,3.4949,3.4215,3.388,3.3807,3.3807,3.3421,3.2803,3.2784,0.0,3.2839,3.3555,3.3844,3.3807,3.3807,3.3807,3.3807,3.3807,3.3807,3.3807,3.3807,3.3807,3.3807,3.3807,3.344,3.2711,3.2392,3.2184,3.2022,3.0616,2.9811,2.9676,2.9332,2.8741,2.7908,2.7165,2.6776,2.6793,2.6313,2.6262,2.6657,2.6297,2.6262,2.664,2.6049,2.5643,2.5559,0.0,0.0,0.0,0.0,0.0,0.0,0.0,0.0,0.0,0.0,0.0,0.0,0.0,0.0,0.0,3.1109,0.0,3.366,3.4527,0.0,0.0,0.0,3.6725,3.7603,3.834,3.8624,3.8194,0.0,0.0,3.97,3.9834,3.9468,3.8139,3.736,3.7077,3.7652,3.7127,3.6781,3.6729,3.6785,3.6816,3.6956,3.7404,3.7808,3.7788,3.7269,3.6575,3.5842,3.5633,3.5616,3.5616,3.5616,3.5622,3.5616,3.5701,3.592,3.6862,3.6005,3.5268,3.5672,3.4274,3.2913,3.8707,3.8655,3.8285,3.7771,3.7144,3.634,3.5605,3.5004,3.4802,3.438,3.3807,3.3807,3.4014,3.4417,3.4435,3.4435,3.4435,3.4637,3.438,3.3825,3.3807,3.3807,3.3807,3.3807,3.3807,3.3807,3.3807,3.3807,3.3807,3.3807,3.3715,3.3532,3.3428,3.2939,3.208,3.2244,3.1714,3.0439,3.0352,2.9762,2.8757,2.7943,2.7519,2.7536,2.6893,2.659,2.6708,2.659,2.659,2.6674,2.6522,2.6184,2.5609,2.527,0.0,0.0,0.0,0.0,0.0,0.0,0.0,0.0,0.0,3.1513,3.0301,0.0,3.2014,0.0,3.2761,3.3385,3.3752,3.4541,0.0,0.0,3.7217,3.7786,3.9166,3.9496,3.9813,4.0286,4.0817,4.1085,4.0972,4.1176,4.063,3.8787,3.8013,3.7297,3.6343,3.6552,3.6817,3.6838,3.7237,3.7616,3.7569,3.7743,3.7655,3.7155,3.6914,3.6541,3.5735,3.5616,3.5616,3.5616,3.5616,3.5616,3.5616,3.5616,3.5689,3.5817,3.4857,3.4168,3.5102,3.3412,3.191,3.8707,3.8707,3.8707,3.823,3.7456,3.7033,3.6138,3.5059,3.5408,3.4908,3.3825,3.4174,3.4582,3.5018,3.5546,3.5761,3.5724,3.5386,3.4992,3.4535,3.4015,3.3807,3.3807,3.3807,3.3807,3.3807,3.3807,3.3807,3.3807,3.3807,3.3959,3.4325,3.399,3.3639,3.3342,3.3252,3.2734,3.1812,3.1079,3.0404,2.9761,2.883,2.818,2.7807,2.7757,2.7402,2.6725,2.6996,2.7029,2.6725,2.6708,2.6774,2.6868,2.6592,2.6461,0.0,0.0,0.0,0.0,0.0,0.0,0.0,0.0,0.0,0.0,0.0,3.328,3.3647,3.4431,3.5069,3.5418,3.6174,3.7004,3.7951,3.8028,3.867,4.0267,4.0432,4.0744,4.1535,4.1736,4.1778,4.1814,4.1695,4.1103,3.9615,3.895,3.8,3.6582,3.6789,3.7178,3.688,3.7415,3.777,3.7483,3.7398,3.7263,3.688,3.6502,3.6096,3.5684,3.5616,3.5616,3.5616,3.5616,3.5616,3.5616,3.5616,3.5667,3.574,3.4848,3.426,3.4781,3.3392,3.2221,3.8765,3.8747,3.8807,3.8357,3.7634,3.7712,3.6799,3.5257,3.6025,3.5496,3.4118,3.4823,3.5174,3.5334,3.644,3.6914,3.6876,3.6191,3.5742,3.5506,3.4531,3.4026,3.3934,3.3934,3.3889,3.3855,3.3855,3.3829,3.3807,3.3807,3.4197,3.4917,3.4307,3.4307,3.4935,3.3942,3.3349,3.3181,3.1696,3.0942,3.0924,2.9866,2.8952,2.8304,2.8747,2.839,2.7078,2.7624,2.7658,2.7061,2.7095,2.7652,2.8628,2.8134,2.8228,0.0,2.8959,0.0,0.0,0.0,0.0,0.0,0.0,0.0,0.0,3.3697,3.4523,3.5114,3.6032,3.6835,3.7437,3.823,3.8707,3.8707,3.8707,3.9297,4.0728,4.0948,4.126,4.2047,4.2139,4.2176,4.2252,4.185,4.127,4.0563,4.0061,3.9159,3.7607,3.7546,3.7505,3.6801,3.7178,3.7229,3.6772,3.6637,3.662,3.6535,3.6113,3.5616,3.5616,3.5616,3.5616,3.5616,3.5616,3.5616,3.5616,3.565,3.5893,3.627,3.5444,3.4774,3.4724,3.3823,3.2944,3.9022,3.9068,3.9327,3.8982,3.8286,3.8925,3.8122,3.6396,3.6545,3.6211,3.5517,3.5667,3.6081,3.6746,3.7661,3.809,3.809,3.7921,3.7122,3.5811,3.5606,3.513,3.4556,3.4537,3.4386,3.4135,3.4123,3.4006,3.3807,3.3807,3.4197,3.4986,3.4839,3.4857,3.4972,0.0,0.0,0.0,3.2505,3.2155,3.2137,3.1364,3.0873,3.0698,2.9642,0.0,2.8672,2.8795,2.8798,2.8672,2.9268,0.0,0.0,0.0,0.0,0.0,0.0,0.0,0.0,0.0,0.0,0.0,3.3421,3.3403,3.3623,3.5564,3.6593,3.6156,3.7386,3.8046,3.7566,3.823,3.8707,3.8707,3.8707,3.9074,4.001,4.012,4.0432,4.1222,4.1315,4.1572,4.2178,4.2201,4.1901,4.1361,4.1195,4.0568,3.9209,3.8247,3.7195,3.6124,3.6254,3.6084,3.5859,3.5921,3.6022,3.5802,3.5735,3.5644,3.5667,3.5644,3.5622,3.5644,3.5616,3.5644,3.5644,3.5941,3.6308,3.6374,3.5978,3.5592,3.5359,3.4111,3.3017,3.9358,0.0,3.9541,3.9365,0.0,3.9441,3.9139,3.8384,3.8204,3.7513,3.6507,3.6489,3.6734,3.7187,3.8593,3.9243,3.9206,3.8828,3.7954,3.6729,3.6145,3.5469,3.4694,3.4694,3.4603,3.4445,3.4464,3.4386,3.4255,3.4244,3.4791,3.5835,3.546,3.5385,3.5605,3.4821,3.4096,3.3512,3.306,3.284,3.2807,3.2241,3.1771,3.1397,3.1009,0.0,0.0,0.0,0.0,0.0,0.0,0.0,0.0,0.0,0.0,3.1982,3.2032,3.2121,3.2343,3.2702,3.3341,3.4312,3.5147,3.5638,3.5638,3.6795,3.7492,3.7514,3.8248,3.8542,3.8157,3.8469,3.8707,3.8707,3.8707,3.9019,3.9735,3.9882,4.0212,4.093,4.1113,4.1407,4.2194,4.2304,4.2201,4.1956,4.1903,4.1434,4.0214,3.9471,3.8699,3.7692,3.7182,3.6832,3.6468,3.6378,3.6378,3.6399,3.6378,3.6378,3.6378,3.6399,3.6378,3.6416,3.6378,3.6399,3.6399,3.6606,3.6845,3.7007,3.6481,3.5954,3.5824,3.4691,3.3541,3.9679,3.969,3.9735,3.9748,3.9767,3.9757,3.9913,4.0129,0.0,0.0,0.0,3.7504,3.7485,3.7609,3.9376,4.0186,4.0129,3.9488,3.8637,3.7644,3.6711,3.578,3.4851,3.4851,3.4803,3.4764,3.4764,3.4734,3.4694,3.4694,3.5404,3.6596,3.6111,3.6012,3.6306,3.4718,3.3863,3.385,3.349,3.3321,3.327,3.2934,3.244,3.1829,3.2282,3.1958,3.077,3.1291,3.1344,3.0752,3.0823,3.1365,3.2303,3.2403,3.282,3.3707,3.3807,3.3807,3.3825,3.4546,3.5133,3.5426,3.6853,3.7658,3.7529,3.7639,3.7988,3.8652,3.8707,3.8707,3.8707,3.8707,3.8707,3.8707,3.8707,3.8998,3.966,3.9915,4.0274,4.0917,4.1156,4.1501,4.2271,4.2336,4.2378,4.2488,4.2527,4.2166,4.1107,4.0566,4.0023,3.936,3.8755,3.8323,3.7829,3.7453,3.7422,3.7379,3.7276,3.7209,3.7209,3.7209,3.7209,3.7114,3.7209,3.7171,3.7173,3.7229,3.7451,3.7825,3.7004,3.6198,3.6173,3.5311,3.4202,4.0022,4.0042,4.0285,4.037,4.037,4.037,4.0406,4.0391,3.9668,3.921,3.8988,3.8988,3.8988,3.9045,3.9999,4.043,4.043,4.0323,3.9438,3.797,3.7767,3.6888,3.5422,3.5383,3.5254,3.5043,3.5053,3.4926,3.4714,3.4694,3.5503,3.6847,3.6922,3.69,3.6825,3.5091,3.4128,3.4135,3.3858,3.3721,3.3707,3.3666,3.3565,3.3451,3.288,3.251,3.2305,3.2383,3.2396,3.2305,3.2921,3.3387,3.3538,3.3556,3.3638,3.3788,3.3807,3.3807,3.3825,3.4546,3.5628,3.7019,3.801,3.8248,3.7584,3.8138,3.8579,3.8707,3.8719,3.8707,3.8707,3.8719,3.8735,3.8719,3.8723,3.8844,3.9287,3.9919,4.0509,4.0947,4.1287,4.1835,4.253,4.2546,4.2682,4.3164,4.3319,4.3221,4.2715,4.112,3.9864,3.9609,3.952,3.9378,3.9192,3.8667,3.837,3.822,3.7728,3.7394,3.734,3.734,3.7322,3.7247,3.7322,3.7284,3.7267,3.7542,3.779,3.7943,3.7462,3.7037,3.6505,3.5575,3.4654,4.0321,4.0319,4.0438,4.0496,4.0496,4.0496,4.0496,4.0477,4.0112,3.9708,3.9323,3.9304,3.9304,3.9381,4.015,4.0496,4.0496,4.0496,3.9611,3.8065,3.8007,3.7103,3.5596,3.55,3.5439,3.5312,3.5312,3.5258,3.5138,3.5149,3.5881,3.7213,3.7175,3.7101,3.6977,3.534,3.4486,3.4456,3.4024,3.3807,3.3807,3.3807,3.3807,3.3788,3.344,3.3256,3.3256,3.3256,3.3256,3.3256,3.3732,3.4006,3.4018,3.4177,3.4302,3.4302,3.4302,3.4489,3.4911,3.6136,3.7355,3.8518,3.8965,3.9059,3.8699,3.8809,3.8923,3.8937,3.9073,3.9195,3.9195,3.9176,3.9176,3.9195,3.9195,3.9423,3.999,4.0384,4.0892,4.1486,4.2121,4.2656,4.3031,4.3334,4.3643,4.4039,4.4095,4.4095,4.408,4.3113,4.1957,4.1252,4.1053,4.0854,4.0492,4.0149,3.9715,3.9281,3.8937,3.8503,3.816,3.8017,3.8017,3.8016,3.7981,3.8034,3.8017,3.8167,3.83,3.8277,3.7857,3.7349,3.689,3.5922,3.4696,4.0669,4.0496,4.0496,4.0496,4.0496,4.0496,4.0496,4.0496,4.0496,4.0169,3.9631,3.9573,3.9573,3.965,4.0227,4.0496,4.0496,4.0496,3.97,3.8392,3.8277,3.7507,3.6135,3.5885,3.5769,3.5731,3.5596,3.55,3.55,3.55,3.6228,3.7455,3.7604,3.7497,3.7288,3.5797,3.4973,3.4773,3.4279,3.4005,3.4005,3.4005,3.4005,3.4005,3.3986,3.4005,3.3986,3.4005,3.4005,3.4018,3.4213,3.4323,3.4315,3.4561,3.4694,3.4713,3.4864,3.5421,3.6413,3.7659,3.8754,3.9542,3.9611,3.9599,3.9587,3.9457,3.9289,3.9269,3.9633,3.9833,3.9689,4.0002,4.0101,3.995,4.0082,4.0502,4.1162,4.1431,4.1825,4.2542,4.3234,4.3698,4.3818,4.421,4.451,4.4535,4.4593,4.4593,4.4593,4.4593,4.4055,4.324,4.2756,4.2456,4.183,4.1477,4.1097,4.0506,4.0052,3.9546,3.9067,3.8841,3.8692,3.8627,3.8643,3.8611,3.8658,3.8658,3.8658,3.8606,3.8196,3.7713,3.7125,3.5771,3.4531,4.1208,4.0554,4.0512,4.0496,4.0512,4.0504,4.0512,4.0512,4.0496,4.0458,4.0365,4.04,4.035,4.04,4.0466,4.0504,4.0512,4.0496,4.0011,3.9222,3.9188,3.8688,3.7663,3.6957,3.6584,3.6495,3.5886,3.5579,3.5515,3.5571,3.6339,3.7882,3.8712,3.8669,3.7867,3.6746,3.5784,3.5089,3.4764,3.4622,3.4622,3.4622,3.4641,3.463,3.4612,3.4641,3.458,3.4612,3.4612,3.4622,3.4614,3.4653,3.4663,3.4694,3.4723,3.4761,3.5404,3.6489,3.7972,3.832,3.8795,3.9497,3.9634,3.9634,3.9645,3.9851,3.988,3.9819,4.0339,4.0443,3.9818,4.0941,4.1498,4.0961,4.1404,4.2037,4.2413,4.3143,4.3759,4.4045,4.4504,4.4911,4.4832,4.4754,4.4657,4.4707,4.472,4.4707,4.4707,4.4707,4.4682,4.4355,4.4092,4.3815,4.3512,4.2809,4.2267,4.1946,4.0832,4.012,3.9761,3.92,3.8704,3.8877,3.878,3.8792,3.8762,3.8707,3.875,3.88,3.8531,3.8128,3.6721,3.5262,3.4169,4.1466,4.071,4.0666,4.0685,4.0685,4.0666,4.0685,4.0666,4.0666,4.0685,4.0685,4.0685,4.0659,4.0623,4.0616,4.0636,4.0666,4.0666,4.0245,3.9518,3.946,3.9014,3.8205,3.7836,3.7405,3.6896,3.6527,3.6115,3.5863,3.6568,3.7379,3.8015,3.888,3.9104,3.8719,3.7798,3.6888,3.6075,3.5938,3.566,3.5187,3.487,3.4694,3.4694,3.4694,3.4694,3.4694,3.4694,3.4694,3.4704,3.4841,3.4944,3.4944,3.5069,3.5373,3.5897,3.7167,3.8207,3.8886,3.9364,3.9785,4.0119,4.0138,4.0119,4.0119,4.0267,4.0468,4.0883,4.1227,4.1437,4.1667,4.2307,4.2536,4.2288,4.2517,4.2938,4.355,4.3923,4.4353,4.4962,4.5255,4.54,4.5371,4.5273,4.5211,4.5201,4.5182,4.515,4.5171,4.5182,4.5182,4.515,4.4889,4.4587,4.4368,4.4041,4.3463,4.2851,4.1969,4.1147,4.0466,3.9784,3.9242,3.9216,3.9195,3.9195,3.9268,3.9229,3.9229,3.9147,3.8643,3.8083,3.6982,3.5739,3.4809,4.2148,4.119,4.0918,4.0797,4.0797,4.0797,4.0797,4.0797,4.0797,4.0797,4.0797,4.0797,4.0792,4.0781,4.0742,4.0743,4.0813,4.0797,4.049,3.9953,3.9933,3.9606,3.9006,3.8718,3.8325,3.7718,3.7209,3.6664,3.6264,3.7437,3.8244,3.8524,3.9303,3.9593,3.9342,3.8724,3.8022,3.7166,3.6897,3.6466,3.5837,3.5236,3.4926,3.4926,3.4926,3.4926,3.4907,3.4926,3.4926,3.4926,3.5113,3.5207,3.5215,3.5583,3.6308,3.7353,3.8584,3.94,3.9631,4.0169,4.0496,4.0496,4.0496,4.0612,4.0804,4.0862,4.1373,4.2338,4.2489,4.2742,4.297,4.3489,4.3682,4.3508,4.3585,4.4028,4.4566,4.4643,4.4913,4.5479,4.5538,4.5594,4.5594,4.5577,4.554,4.554,4.5577,4.5594,4.5594,4.5577,4.5577,4.5586,4.5362,4.5099,4.4793,4.4536,4.426,4.3706,4.2806,4.1782,4.1208,4.0373,3.9599,3.9439,3.9564,3.9587,3.9481,3.9529,3.9573,3.9392,3.8788,3.7898,3.7145,3.6088,3.5107,4.3592,4.2019,4.1155,4.0851,4.0801,4.0828,4.0805,4.0839,4.0809,4.0805,4.0813,4.0813,4.087,4.0959,4.0857,4.0797,4.0805,4.0816,4.0781,4.0703,4.0715,4.0708,4.0645,3.9914,3.9496,3.9179,3.79,3.7131,3.7024,3.7879,3.8712,3.9501,4.0243,4.0314,3.9731,3.9567,3.9067,3.8169,3.7422,3.6853,3.6561,3.5865,3.5498,3.5441,3.5446,3.5412,3.5439,3.5446,3.5446,3.5472,3.5446,3.5479,3.5563,3.6262,3.743,3.888,3.9246,3.965,4.0285,4.0458,4.0496,4.0496,4.0496,4.0835,4.1527,4.1623,4.2316,4.397,4.397,4.3797,4.3508,4.447,4.4932,4.4393,4.496,4.5364,4.5479,4.5402,4.5518,4.5594,4.5594,4.5594,4.5594,4.5594,4.5594,4.5594,4.5594,4.5594,4.5594,4.5594,4.5594,4.5594,4.554,4.5467,4.5129,4.4924,4.4713,4.424,4.3346,4.2143,4.1517,4.0901,4.0181,3.9656,3.9735,3.9735,3.9645,3.9615,3.9615,3.925,3.8269,3.7463,3.707,3.5737,3.4877,4.3886,4.2285,4.1953,4.1542,4.1073,4.1054,4.1073,4.1054,4.1054,4.1054,4.1054,4.1055,4.1099,4.1127,4.108,4.1054,4.1055,4.1054,4.1054,4.1054,4.1054,4.1054,4.1015,4.0724,4.0295,3.9727,3.9163,3.8507,3.8027,3.8761,3.9321,3.9668,4.0392,4.0626,4.0396,4.0373,3.9949,3.9166,3.8758,3.8076,3.7012,3.6605,3.6217,3.5636,3.5559,3.55,3.55,3.55,3.55,3.55,3.55,3.5731,3.6327,3.7603,3.8604,3.9246,3.9785,4.0189,4.0458,4.0496,4.0496,4.0496,4.0496,4.0889,4.1585,4.1854,4.2508,4.3882,4.4325,4.4316,4.4767,4.5287,4.5498,4.5267,4.5402,4.5594,4.5594,4.5594,4.5594,4.5594,4.5594,4.5594,4.5612,4.5594,4.5594,4.5594,4.5594,4.5594,4.5594,4.5594,4.5594,4.5594,4.5594,4.5568,4.5476,4.5352,4.5138,4.4755,4.4039,4.3101,4.2364,4.1217,4.0387,4.0129,4.0082,4.0072,4.0053,4.0063,3.9986,3.9252,3.8258,3.7441,3.6935,3.5766,3.5125,4.4316,4.3242,4.2617,4.209,4.1582,4.1289,4.1191,4.1191,4.1191,4.1191,4.1191,4.1191,4.1191,4.1191,4.1191,4.1191,4.1191,4.1191,4.1191,4.1191,4.1191,4.1191,4.1191,4.1191,4.0879,4.0332,4.0019,3.9512,3.9029,3.9475,3.9891,4.0155,4.0691,4.0922,4.0922,4.0922,4.0624,4.0123,3.9786,3.8997,3.7939,3.7546,3.7154,3.6627,3.6459,3.6242,3.6004,3.6242,3.6397,3.6397,3.6397,3.6783,3.7653,3.8729,3.9522,3.9805,4.0275,4.0597,4.0597,4.0578,4.0604,4.0617,4.0894,4.1377,4.2201,4.2575,4.3426,4.445,4.4817,4.5119,4.5525,4.5687,4.5673,4.5618,4.5594,4.561,4.5668,4.5645,4.5685,4.5687,4.5708,4.5691,4.5653,4.5645,4.5651,4.5612,4.5594,4.5594,4.5594,4.5594,4.5594,4.5594,4.5594,4.5594,4.554,4.5485,4.5475,4.5139,4.4497,4.3714,4.2835,4.1643,4.0823,4.0612,4.0496,4.0496,4.0496,4.0496,4.0054,3.9373,3.8531,3.7655,3.6865,3.5941,3.5381,4.5019,4.4668,4.3144,4.2519,4.2344,4.1719,4.1308,4.1406,4.1308,4.1328,4.1367,4.123,4.1191,4.1191,4.1191,4.1191,4.1191,4.1191,4.1191,4.1191,4.1191,4.1191,4.1191,4.1191,4.1191,4.1035,4.0332,3.9961,3.9922,4.0,4.0371,4.1016,4.1113,4.1152,4.1191,4.1152,4.1106,4.0792,4.018,3.9689,3.9503,3.8718,3.8257,3.8173,3.8179,3.7861,3.7115,3.7773,3.8054,3.8116,3.812,3.8675,3.9214,3.9614,3.9976,4.0559,4.0785,4.0789,4.0785,4.0773,4.0764,4.0881,4.1528,4.2289,4.3112,4.3961,4.4783,4.5507,4.5745,4.5857,4.5852,4.5867,4.5817,4.5657,4.564,4.5692,4.5763,4.5803,4.582,4.5862,4.5862,4.5857,4.5814,4.5803,4.5756,4.5669,4.564,4.5629,4.5645,4.5653,4.5618,4.5618,4.5645,4.5661,4.5629,4.5593,4.5601,4.5466,4.472,4.3951,4.3104,4.2047,4.1143,4.0777,4.0516,4.0496,4.0496,4.0419,3.9919,3.9265,3.8488,3.7623,3.6594,3.5744,3.5507,4.5547,4.498,4.4433,4.3828,4.3301,4.3027,4.293,4.2851,4.2305,4.2051,4.1933,4.1445,4.1191,4.1211,4.1191,4.1211,4.1191,4.1191,4.1211,4.123,4.1211,4.1191,4.1191,4.1191,4.1191,4.1172,4.0937,4.0781,4.0762,4.0781,4.0976,4.1172,4.1191,4.1191,4.1191,4.1191,4.1171,4.111,4.0875,4.0462,3.9869,3.9551,3.9141,3.864,3.907,3.9246,3.901,3.8563,3.8316,3.8355,3.8293,3.8698,3.9509,4.0143,4.0548,4.0758,4.0797,4.0797,4.0801,4.0801,4.0828,4.0976,4.1626,4.2478,4.333,4.4238,4.5079,4.5771,4.5899,4.5899,4.5899,4.5899,4.5891,4.5803,4.5797,4.5817,4.5866,4.5886,4.5862,4.589,4.5899,4.5881,4.5877,4.5862,4.5861,4.5811,4.5794,4.5794,4.5799,4.5776,4.5811,4.5797,4.5811,4.5769,4.5757,4.5731,4.5738,4.5652,4.5046,4.4172,4.3312,4.2603,4.1701,4.0908,4.0631,4.0515,4.0508,4.0304,3.9881,3.9092,3.8272,3.7284,3.6199,3.5684,3.5468,4.5835,4.5327,4.5015,4.4584,4.4037,4.3744,4.3594,4.351,4.3021,4.2767,4.2656,4.2266,4.2025,4.2023,4.2023,4.2023,4.2025,4.2006,4.2006,4.1896,4.1347,4.1211,4.1191,4.1191,4.1191,4.1191,4.1191,4.1191,4.1191,4.1191,4.1191,4.1191,4.1191,4.1191,4.1191,4.1191,4.1191,4.1191,4.1191,4.0937,4.0508,4.0371,4.0117,3.9726,4.0098,4.0351,4.0332,3.9705,3.9366,3.9364,3.9384,3.9657,4.0196,4.0684,4.0933,4.0933,4.0955,4.0957,4.0952,4.0962,4.1111,4.1462,4.2205,4.3066,4.3921,4.4799,4.556,4.5928,4.6047,4.6045,4.6047,4.6045,4.6045,4.6045,4.5936,4.5928,4.5947,4.6011,4.6045,4.6072,4.605,4.6014,4.5988,4.5978,4.5959,4.5916,4.5899,4.5899,4.5899,4.5894,4.5903,4.5907,4.5872,4.5862,4.5885,4.5885,4.589,4.5716,4.5431,4.4465,4.3524,4.3045,4.2303,4.1189,4.0635,4.0641,4.0629,4.0526,4.015,3.9138,3.8218,3.738,3.6526,3.5788,3.5491,4.5903,4.5802,4.5082,4.4822,4.4686,4.402,4.3771,4.3638,4.3506,4.3494,4.3471,4.3249,4.3257,4.3322,4.3156,4.3156,4.3342,4.3202,4.3152,4.2861,4.2114,4.1484,4.1367,4.1367,4.1289,4.1152,4.1152,4.1152,4.1133,4.1152,4.1191,4.1172,4.1191,4.1191,4.1191,4.1191,4.1191,4.1191,4.1191,4.1152,4.1113,4.1133,4.1113,4.1035,4.1074,4.1074,4.1035,4.0937,4.1016,4.1133,4.0937,4.0937,4.1133,4.1191,4.1172,4.1152,4.1191,4.1269,4.1269,4.1348,4.166,4.2422,4.3242,4.4101,4.4805,4.5566,4.6113,4.623,4.625,4.6269,4.6269,4.6269,4.625,4.6269,4.6106,4.6011,4.6091,4.6222,4.625,4.6269,4.6289,4.6267,4.6119,4.6115,4.6069,4.5992,4.5971,4.5978,4.5958,4.5992,4.5936,4.5957,4.5996,4.6024,4.6045,4.6045,4.6045,4.5978,4.571,4.495,4.3826,4.3234,4.2471,4.1383,4.0733,4.0743,4.0713,4.0609,4.0236,3.9412,3.8537,3.7749,3.6911,3.6084,3.5622,4.5899,4.586,4.5665,4.5568,4.5568,4.5311,4.5209,4.5155,4.4563,4.4355,4.4228,4.3664,4.3495,4.3406,4.3441,4.3391,4.3495,4.3456,4.3391,4.3342,4.307,4.2439,4.1974,4.1844,4.1535,4.1053,4.0964,4.0908,4.0914,4.1,4.1052,4.1054,4.1191,4.123,4.1191,4.123,4.1191,4.1191,4.1191,4.1191,4.1191,4.1191,4.1191,4.1191,4.123,4.123,4.1211,4.1191,4.1191,4.1191,4.1191,4.1191,4.1191,4.123,4.1269,4.1269,4.1289,4.1523,4.1973,4.209,4.248,4.3301,4.4101,4.4746,4.498,4.5801,4.623,4.6289,4.6289,4.6289,4.6289,4.6289,4.6289,4.6289,4.6211,4.6191,4.623,4.6269,4.6289,4.6289,4.6289,4.6269,4.625,4.623,4.6211,4.6172,4.6152,4.6172,4.6133,4.6133,4.6113,4.6172,4.6211,4.6211,4.6221,4.6221,4.6222,4.6224,4.5976,4.5594,4.4338,4.3202,4.2178,4.1034,4.0848,4.0817,4.0789,4.0737,4.0131,3.9698,3.8894,3.8077,3.705,3.6168,3.5874,4.5783,4.5763,4.5783,4.5763,4.5783,4.5763,4.5783,4.5686,4.5311,4.5073,4.4956,4.4563,4.4324,4.4305,4.4343,4.4324,4.4324,4.4324,4.4343,4.4363,4.4343,4.3696,4.2844,4.2345,4.1824,4.1357,4.0988,4.0821,4.0813,4.0877,4.0914,4.102,4.138,4.1552,4.1601,4.1571,4.1591,4.1523,4.1261,4.1026,4.1026,4.1046,4.1074,4.1191,4.1439,4.1793,4.2168,4.2266,4.1973,4.1426,4.1191,4.1191,4.123,4.1543,4.1699,4.1719,4.2031,4.248,4.2812,4.2969,4.3359,4.4101,4.4785,4.5156,4.5527,4.6035,4.6289,4.6289,4.6289,4.6289,4.6289,4.6289,4.6289,4.6289,4.6289,4.6289,4.6289,4.6289,4.6289,4.6289,4.6289,4.6289,4.6289,4.6289,4.6289,4.6289,4.6269,4.6269,4.6269,4.6289,4.6289,4.6289,4.6289,4.6269,4.6269,4.6269,4.6269,4.6269,4.6211,4.5859,4.4629,4.3281,4.2246,4.1348,4.1074,4.0883,4.0911,4.088,4.0637,4.0077,3.9261,3.8656,3.7832,3.6845,3.6491,4.5594,4.5594,4.5594,4.5594,4.5593,4.5594,4.5618,4.5612,4.556,4.5533,4.5513,4.5573,4.5384,4.5594,4.5324,4.5516,4.5505,4.5346,4.5445,4.5415,4.5324,4.4783,4.374,4.2936,4.2461,4.2116,4.1377,4.1228,4.1296,4.1202,4.1127,4.1451,4.198,4.2202,4.2284,4.2253,4.2256,4.214,4.1723,4.1454,4.1454,4.1457,4.1506,4.1659,4.2117,4.2721,4.325,4.3437,4.293,4.1543,4.1465,4.1621,4.168,4.2226,4.248,4.2617,4.3105,4.3555,4.3789,4.3848,4.4219,4.498,4.5176,4.543,4.6035,4.6269,4.6289,4.6289,4.6289,4.6289,4.6289,4.6289,4.6289,4.6289,4.6289,4.6289,4.6289,4.6289,4.6289,4.6289,4.6289,4.6289,4.6289,4.6289,4.6289,4.6289,4.6289,4.6289,4.6289,4.6289,4.6289,4.6289,4.6289,4.6289,4.6289,4.6289,4.6289,4.6289,4.6289,4.5879,4.4668,4.3457,4.248,4.1738,4.1367,4.1151,4.1103,4.1033,4.0898,4.0554,3.9812,3.962,3.9299,3.8137,3.7472,4.5594,4.5594,4.5594,4.5594,4.5594,4.5594,4.5594,4.5594,4.5594,4.5594,4.5594,4.5594,4.5594,4.5594,4.5594,4.5594,4.5594,4.5594,4.5594,4.5594,4.5594,4.5486,4.4905,4.4167,4.3477,4.299,4.2717,4.2563,4.2534,4.2453,4.2656,4.2668,4.2815,4.3115,4.3106,4.3088,4.3119,4.308,4.2857,4.2693,4.265,4.2654,4.2691,4.2825,4.3066,4.3229,4.3396,4.3481,4.3337,4.3173,4.3125,4.3125,4.3047,4.3262,4.3418,4.3496,4.3633,4.4062,4.4551,4.4766,4.5078,4.5781,4.5918,4.6094,4.6211,4.6289,4.6289,4.6289,4.6289,4.6289,4.6289,4.6289,4.6289,4.6289,4.6289,4.6289,4.6289,4.6289,4.6289,4.6289,4.6289,4.6289,4.6289,4.6289,4.6289,4.6289,4.6289,4.6289,4.6289,4.6289,4.6289,4.6289,4.6289,4.6289,4.6289,4.6289,4.6289,4.6289,4.6289,4.6211,4.498,4.4004,4.3164,4.2344,4.1601,4.1484,4.1465,4.1191,4.106,4.0717,4.0391,4.0135,3.9722,3.8912,3.8638,4.5594,4.5594,4.5594,4.5594,4.5594,4.5594,4.5594,4.5594,4.5594,4.5594,4.5594,4.5594,4.5594,4.5594,4.5594,4.5594,4.5594,4.5594,4.5594,4.5594,4.5594,4.5594,4.5556,4.5124,4.4489,4.372,4.3228,4.3124,4.3099,4.3162,4.3067,4.3202,4.3595,4.3776,4.3821,4.3827,4.3828,4.3692,4.3414,4.3259,4.3259,4.3259,4.3565,4.3845,4.4006,4.4135,4.4576,4.461,4.4639,4.465,4.467,4.4358,4.3906,4.4082,4.4277,4.4336,4.4766,4.5058,4.5527,4.5625,4.5801,4.623,4.6289,4.6289,4.6289,4.6289,4.6289,4.6289,4.6289,4.6289,4.6289,4.6289,4.6289,4.6289,4.6289,4.6289,4.6289,4.6289,4.6289,4.6289,4.6289,4.6289,4.6289,4.6289,4.6289,4.6289,4.6289,4.6289,4.6289,4.6289,4.6289,4.6289,4.6289,4.6289,4.6289,4.6289,4.6289,4.6289,4.6289,4.623,4.5703,4.4844,4.4023,4.3203,4.2402,4.1992,4.1894,4.1582,4.1269,4.1016,4.0742,4.0488,4.028,3.9986,3.9864,4.5594,4.5594,4.5594,4.5594,4.5594,4.5594,4.5594,4.5594,4.5594,4.5594,4.5594,4.5594,4.5594,4.5594,4.5594,4.5594,4.5594,4.5594,4.5594,4.5594,4.5594,4.5594,4.5575,4.5441,4.5171,4.4451,4.3989,4.3682,4.3643,4.3508,4.3819,4.3679,4.416,4.4526,4.4523,4.4517,4.4548,4.4468,4.4063,4.3766,4.3712,4.3712,4.4087,4.453,4.4742,4.5032,4.5445,4.5612,4.5745,4.5891,4.5896,4.5235,4.4628,4.4644,4.5137,4.5137,4.5664,4.5918,4.5996,4.6113,4.6152,4.6246,4.623,4.623,4.6211,4.623,4.625,4.6269,4.6269,4.6289,4.6289,4.6289,4.6289,4.6289,4.6289,4.6289,4.6289,4.6289,4.6289,4.6289,4.6289,4.6289,4.6289,4.6289,4.6289,4.6289,4.6289,4.6289,4.6289,4.6289,4.6289,4.6289,4.6289,4.6289,4.6289,4.6289,4.6289,4.6289,4.6289,4.625,4.6172,4.5683,4.4863,4.4043,4.334,4.2851,4.2324,4.1933,4.1621,4.1367,4.1113,4.0859,4.0898,4.1055,4.0893,4.5594,4.5594,4.5594,4.5594,4.5594,4.5594,4.5594,4.5594,4.5594,4.5594,4.5594,4.5594,4.5594,4.5594,4.5594,4.5594,4.5594,4.5594,4.5594,4.5594,4.5594,4.5594,4.5594,4.5594,4.546,4.5441,4.5094,4.4979,4.5017,4.519,4.4902,4.5105,4.521,4.5306,4.5287,4.5364,4.5267,4.521,4.4998,4.4921,4.4921,4.494,4.5007,4.5321,4.5326,4.5461,4.5561,4.5669,4.5703,4.5822,4.5802,4.5686,4.5453,4.5562,4.5647,4.5722,4.5862,4.6027,4.6024,4.5988,4.5978,4.5955,4.5992,4.5988,4.6001,4.6075,4.6138,4.617,4.6223,4.6269,4.6289,4.625,4.6269,4.6289,4.6269,4.6269,4.6269,4.6269,4.625,4.625,4.6269,4.6289,4.6289,4.6289,4.6289,4.6289,4.6289,4.6289,4.6289,4.6289,4.6289,4.6289,4.6289,4.6289,4.6289,4.6289,4.6289,4.6289,4.6289,4.6289,4.625,4.625,4.5703,4.4883,4.4101,4.3457,4.291,4.2422,4.1914,4.1601,4.1406,4.1211,4.1172,4.1133,4.1094,4.5594,4.5594,4.5594,4.5594,4.5594,4.5594,4.5594,4.5594,4.5594,4.5594,4.5594,4.5594,4.5594,4.5594,4.5594,4.5594,4.5594,4.5594,4.5594,4.5594,4.5594,4.5594,4.5594,4.5594,4.5594,4.5575,4.5594,4.5594,4.5594,4.5556,4.5594,4.5575,4.5594,4.5594,4.5594,4.5556,4.5594,4.5594,4.5594,4.5594,4.5594,4.5594,4.5594,4.5594,4.5594,4.5594,4.5594,4.5594,4.5627,4.5669,4.5692,4.5706,4.5731,4.5757,4.5794,4.5862,4.589,4.5894,4.5899,4.5899,4.5907,4.5903,4.5894,4.5899,4.5912,4.5971,4.5995,4.6027,4.6033,4.6087,4.6074,4.611,4.6087,4.6087,4.6108,4.611,4.6108,4.6108,4.6115,4.6144,4.6211,4.6269,4.6289,4.6289,4.6289,4.6289,4.6289,4.6289,4.6269,4.6269,4.6269,4.6289,4.6289,4.6289,4.6289,4.6289,4.6289,4.6289,4.6289,4.6289,4.6289,4.6289,4.6191,4.5762,4.498,4.418,4.3691,4.3262,4.2558,4.1855,4.1562,4.1348,4.125,4.1172,4.1152,4.5466,4.5586,4.5448,4.5466,4.5577,4.5532,4.5531,4.5586,4.5594,4.5594,4.5594,4.5594,4.5594,4.5594,4.5594,4.5594,4.5594,4.5594,4.5594,4.5594,4.5594,4.5594,4.5594,4.5594,4.5594,4.5594,4.5594,4.5594,4.5594,4.5594,4.5594,4.5594,4.5594,4.5594,4.5594,4.5594,4.5594,4.5594,4.5594,4.5594,4.5594,4.5594,4.5594,4.5594,4.5594,4.5594,4.5594,4.5594,4.5594,4.5612,4.5612,4.5612,4.5594,4.5594,4.5681,4.5811,4.5841,4.5841,4.5836,4.5825,4.5817,4.5811,4.585,4.5836,4.5846,4.5841,4.5876,4.589,4.5912,4.5944,4.5936,4.5912,4.5916,4.5916,4.592,4.5907,4.5928,4.5936,4.5967,4.603,4.6144,4.6172,4.6152,4.6152,4.6133,4.6133,4.6133,4.6172,4.6172,4.6211,4.6211,4.6269,4.6289,4.6289,4.6289,4.6289,4.6289,4.6289,4.6289,4.6289,4.6289,4.6289,4.6191,4.6113,4.582,4.5078,4.4609,4.4004,4.3242,4.2539,4.1894,4.1465,4.1308,4.1211,4.1172,4.5055,4.555,4.4966,4.5063,4.5495,4.5282,4.5332,4.5559,4.5531,4.5594,4.5494,4.5568,4.5531,4.5522,4.5531,4.5568,4.554,4.5504,4.5466,4.5457,4.5475,4.5475,4.554,4.5594,4.5495,4.5448,4.5504,4.5594,4.5531,4.5522,4.5594,4.5594,4.5594,4.5594,4.5594,4.5594,4.5594,4.5594,4.5594,4.5594,4.5594,4.5594,4.5594,4.5594,4.5594,4.5594,4.5594,4.5594,4.5594,4.5594,4.5594,4.5594,4.5594,4.5594,4.5603,4.5624,4.5632,4.5621,4.5642,4.5665,4.5673,4.5681,4.5658,4.5648,4.5688,4.5776,4.5819,4.5894,4.5885,4.5867,4.5872,4.5881,4.589,4.5872,4.5862,4.5877,4.5872,4.5828,4.5825,4.5846,4.5951,4.5944,4.5937,4.5937,4.5937,4.5957,4.5971,4.6036,4.6062,4.6093,4.6122,4.6172,4.6191,4.6191,4.623,4.625,4.6269,4.6289,4.6289,4.6289,4.6289,4.6289,4.6289,4.6191,4.5996,4.5801,4.5234,4.457,4.3867,4.3262,4.2676,4.1973,4.1308,4.1269,4.1387,4.4387,4.5,4.4707,4.4757,4.5,4.4872,4.4896,4.4992,4.5052,4.5052,4.5033,4.5033,4.5052,4.5055,4.5033,4.5022,4.5033,4.5074,4.5033,4.5055,4.5055,4.5044,4.5011,4.5033,4.5052,4.5085,4.5033,4.4969,4.511,4.5429,4.5594,4.5586,4.5586,4.5594,4.5594,4.5594,4.5594,4.5594,4.5594,4.5594,4.5594,4.5594,4.5594,4.5594,4.5594,4.5594,4.5594,4.5594,4.5594,4.5594,4.5594,4.5594,4.5594,4.5594,4.5594,4.5594,4.5603,4.5603,4.5603,4.5594,4.5594,4.5594,4.5594,4.5612,4.562,4.566,4.5708,4.5729,4.5724,4.5731,4.5744,4.5724,4.5743,4.575,4.5757,4.5764,4.5745,4.575,4.5728,4.5736,4.5737,4.5757,4.5774,4.5841,4.5872,4.5886,4.59,4.5939,4.5967,4.5962,4.5998,4.6035,4.6055,4.6055,4.6113,4.6152,4.623,4.625,4.6289,4.6289,4.6289,4.6289,4.6289,4.6289,4.6191,4.5957,4.5683,4.5195,4.4531,4.4004,4.3476,4.2773,4.2129,4.1933,4.1914,4.4304,4.4608,4.4416,4.4419,4.458,4.4482,4.4546,4.4606,4.4618,4.4606,4.4593,4.4618,4.4618,4.4593,4.4631,4.467,4.4618,4.4593,4.4593,4.4593,4.4593,4.4631,4.4682,4.4644,4.4631,4.458,4.4695,4.4682,4.4818,4.5118,4.5438,4.5485,4.5419,4.5513,4.5586,4.5594,4.5594,4.5594,4.5594,4.5594,4.5594,4.5594,4.5594,4.5594,4.5594,4.5594,4.5594,4.5594,4.5594,4.5594,4.5594,4.5594,4.5594,4.5594,4.5594,4.5594,4.5594,4.5594,4.5594,4.5594,4.5594,4.5594,4.5594,4.5594,4.5594,4.5594,4.5594,4.5627,4.5627,4.561,4.5594,4.562,4.5635,4.5624,4.5635,4.5612,4.5603,4.5651,4.5657,4.5661,4.5669,4.564,4.5676,4.5751,4.5794,4.5803,4.5825,4.5846,4.5867,4.5862,4.5903,4.5932,4.5963,4.5974,4.6001,4.6075,4.614,4.6195,4.6244,4.625,4.623,4.6269,4.6289,4.6289,4.6289,4.6211,4.5976,4.5605,4.5215,4.4648,4.4082,4.3594,4.3105,4.2851,4.2617,4.5332,4.465,4.393,4.4014,4.4527,4.4209,4.4266,4.4487,4.454,4.4527,4.4487,4.4553,4.4487,4.4527,4.446,4.4487,4.4572,4.458,4.4501,4.4501,4.458,4.4487,4.4447,4.4447,4.4501,4.4501,4.4433,4.446,4.4606,4.472,4.5011,4.514,4.5243,4.5362,4.5504,4.5594,4.5594,4.5594,4.5594,4.5594,4.5594,4.5594,4.5594,4.5594,4.5594,4.5594,4.5594,4.5594,4.5594,4.5594,4.5594,4.5594,4.5594,4.5594,4.5594,4.5594,4.5594,4.5594,4.5594,4.5594,4.5594,4.5594,4.5594,4.5594,4.5594,4.5594,4.5594,4.5594,4.5594,4.5594,4.5594,4.5594,4.5594,4.5594,4.5633,4.5768,4.5729,4.5622,4.562,4.5603,4.5594,4.5594,4.5594,4.5669,4.5706,4.5715,4.5708,4.5736,4.5776,4.5788,4.5841,4.5862,4.5872,4.5905,4.5918,4.5952,4.5997,4.605,4.608,4.6108,4.6094,4.6172,4.625,4.625,4.623,4.6269,4.6269,4.5976,4.5605,4.5176,4.4746,4.4414,4.3906,4.3476,4.3398,4.5718,4.5424,4.5094,4.4568,4.3915,4.3758,4.3791,4.3899,4.3915,4.3915,4.3946,4.3915,4.3915,4.3931,4.3931,4.3915,4.3915,4.3915,4.3946,4.3931,4.3915,4.3931,4.3931,4.3962,4.3899,4.3946,4.3946,4.3931,4.3931,4.4209,4.4276,4.4482,4.5003,4.5419,4.5577,4.5531,4.554,4.5568,4.5577,4.5605,4.5594,4.5594,4.5594,4.5594,4.5594,4.5594,4.5594,4.5594,4.5594,4.5594,4.5594,4.5594,4.5594,4.5594,4.5594,4.5594,4.5594,4.5594,4.5594,4.5594,4.5594,4.5594,4.5594,4.5594,4.5594,4.5614,4.5594,4.5594,4.5691,4.5825,4.5652,4.5614,4.5594,4.5594,4.5768,4.6009,4.6105,4.6095,4.6124,4.6336,4.5922,4.5594,4.5594,4.5612,4.5601,4.5601,4.5593,4.561,4.5673,4.572,4.5757,4.577,4.5776,4.5807,4.5825,4.5847,4.5869,4.5906,4.5944,4.5967,4.5988,4.6074,4.6152,4.6152,4.6174,4.6191,4.623,4.625,4.6035,4.5683,4.5547,4.543,4.4844,4.4199,4.4121,4.6471,4.6269,4.625,4.5333,4.3956,4.3846,4.3717,4.3497,4.3513,4.3479,4.3479,4.3479,4.3479,4.3479,4.3513,4.3531,4.3546,4.3546,4.3531,4.3548,4.3546,4.3479,4.3479,4.3531,4.3597,4.3479,4.3479,4.3531,4.358,4.3595,4.3849,4.4285,4.4792,4.5161,4.5253,4.5293,4.5293,4.5312,4.5312,4.5312,4.5273,4.5381,4.5429,4.5448,4.5513,4.5594,4.5594,4.5594,4.5594,4.5594,4.5594,4.5594,4.5594,4.5594,4.5594,4.5594,4.5614,4.5614,4.5614,4.5594,4.5594,4.5594,4.5594,4.5594,4.5633,4.5806,4.6105,4.6105,4.621,4.6326,4.6278,4.6528,4.6605,4.6778,4.674,4.6932,4.7009,4.7028,4.7067,4.7144,4.6721,4.6509,4.6547,4.6605,4.6095,4.5941,4.5594,4.5603,4.5618,4.564,4.564,4.5645,4.5637,4.5685,4.573,4.5728,4.5743,4.5777,4.5813,4.5861,4.5915,4.5978,4.6014,4.6011,4.6047,4.6119,4.6152,4.6177,4.6226,4.625,4.6074,4.5898,4.5762,4.5176,4.4961,4.7736,4.7094,4.7076,4.6159,4.4801,4.469,4.4287,4.3791,4.3699,4.3663,4.3644,4.3589,4.3534,4.3516,4.3479,4.3479,4.3479,4.3479,4.3479,4.3479,4.3479,4.3479,4.3479,4.3479,4.3479,4.3479,4.3479,4.3479,4.3496,4.3677,4.3896,4.4075,4.4491,4.4783,4.465,4.4631,4.4631,4.4663,4.4682,4.472,4.4793,4.5019,4.5085,4.5169,4.5293,4.5391,4.5391,4.5485,4.5495,4.5495,4.5577,4.5586,4.5594,4.5729,4.5787,4.5759,4.5806,4.5768,4.571,4.5671,4.5806,4.5883,4.6009,4.6075,4.597,4.6317,4.6855,4.6874,4.7317,4.774,4.7913,4.7913,4.7778,4.7682,4.7605,4.7759,4.7817,4.7682,4.7654,4.7827,4.7962,4.7981,4.7962,4.7759,4.6971,4.6413,4.5806,4.5633,4.5748,4.5594,4.5594,4.5594,4.5594,4.561,4.5648,4.5618,4.5635,4.5657,4.57,4.5743,4.5795,4.5871,4.5891,4.5876,4.5932,4.6021,4.605,4.6089,4.6152,4.6225,4.6289,4.6191,4.6172,4.6074,4.5723,4.8159,4.7901,4.7883,4.7259,4.6269,4.5718,4.5333,4.5112,4.5039,4.48,4.4378,4.4305,4.3938,4.3644,4.3571,4.3589,4.3552,4.3479,4.3479,4.3516,4.3497,4.3479,4.3479,4.3479,4.3479,4.3479,4.3479,4.3497,4.3496,4.3736,4.3697,4.3781,4.4475,4.4625,4.4611,4.4593,4.4593,4.4593,4.4606,4.4606,4.4612,4.4739,4.4852,4.4889,4.5052,4.5141,4.5194,4.539,4.5482,4.5523,4.5611,4.5751,4.5856,4.6049,4.6451,4.6605,4.6797,4.7259,4.7259,4.724,4.699,4.6836,4.6836,4.7067,4.7317,4.7471,4.7654,4.775,4.8086,4.8279,4.8058,4.8067,4.8009,4.799,4.8029,4.8413,4.8509,4.8182,4.8058,4.8432,4.8644,4.8432,4.8336,4.8625,4.8086,4.7548,4.7028,4.649,4.6451,4.5883,4.5614,4.5594,4.5594,4.5594,4.5594,4.5594,4.5594,4.5618,4.5627,4.5632,4.5691,4.5764,4.5751,4.5751,4.5814,4.5914,4.5944,4.5997,4.6082,4.615,4.6203,4.6269,4.625,4.623,4.6152,4.8324,4.8324,4.8324,4.8012,4.7424,4.6673,4.6195,4.5938,4.5883,4.559,4.5204,4.5112,4.4892,4.447,4.4323,4.4341,4.4305,4.4011,4.392,4.3864,4.3571,4.3516,4.3479,4.3534,4.3479,4.3497,4.3552,4.3571,4.3975,4.3938,4.4175,4.4578,4.4837,4.5127,4.5112,4.511,4.4939,4.489,4.4838,4.4946,4.4913,4.5011,4.5298,4.5378,4.5475,4.5531,4.5532,4.5597,4.5744,4.5788,4.5974,4.6205,4.6455,4.6819,4.727,4.7519,4.7702,4.8048,4.799,4.8413,4.8144,4.7932,4.8105,4.8086,4.8221,4.8336,4.849,4.8625,4.8759,4.8913,4.8933,4.8894,4.8856,4.8875,4.9009,4.9394,4.9394,4.9106,4.9048,4.9375,4.9394,4.9086,4.8875,4.9106,4.9183,4.8759,4.8317,4.774,4.7124,4.6509,4.5941,4.5845,4.5729,4.5671,4.5652,4.5594,4.5594,4.5594,4.5594,4.5594,4.562,4.5692,4.564,4.5627,4.5706,4.577,4.5836,4.5891,4.5974,4.6053,4.6142,4.6211,4.6269,4.6289,4.6289,4.8324,4.8324,4.8324,4.8306,4.8159,4.7424,4.6727,4.6049,4.6049,4.603,4.5938,4.5938,4.5755,4.5792,4.5792,4.57,4.5571,4.4984,4.4819,4.4599,4.425,4.3956,4.3828,4.3863,4.4011,4.3809,4.3846,4.436,4.469,4.4727,4.5094,4.5571,4.5792,4.5899,4.5933,4.6023,4.5654,4.5357,4.5337,4.5335,4.5183,4.5649,4.5892,4.6025,4.6183,4.6319,4.6407,4.6511,4.6661,4.6841,4.7106,4.731,4.7567,4.7873,4.8039,4.824,4.8336,4.8432,4.8606,4.9202,4.9356,4.9125,4.874,4.8394,4.8548,4.9125,4.9375,4.9606,4.9817,5.0202,5.0452,5.0375,5.0317,5.0317,5.0337,5.0452,5.0471,5.0394,5.0375,5.0433,5.0394,5.024,5.0125,5.0221,4.9913,4.9817,4.9317,4.8644,4.8009,4.7317,4.6759,4.6287,4.6105,4.5817,4.5768,4.5806,4.5594,4.5594,4.5594,4.5594,4.5603,4.5612,4.5612,4.5612,4.5603,4.5648,4.572,4.5801,4.5886,4.5959,4.6021,4.6133,4.6211,4.6289,4.6289,4.8324,4.8324,4.8324,4.8324,4.8288,4.8067,4.7829,4.7627,4.759,4.7352,4.6727,4.6746,4.6507,4.592,4.5883,4.5938,4.5865,4.57,4.5608,4.5388,4.5149,4.5168,4.5131,4.5057,4.5131,4.5131,4.5149,4.5168,4.548,4.5553,4.5626,4.5883,4.6544,4.6691,4.6948,4.7297,4.6581,4.6049,4.603,4.5847,4.57,4.6045,4.6245,4.6386,4.6456,4.6556,4.6554,4.669,4.6754,4.6753,4.6986,4.7212,4.7533,4.8208,4.8802,4.9865,4.9971,4.9971,4.999,5.0164,5.026,5.0221,4.9933,5.001,5.0048,5.0029,5.0221,5.0337,5.0414,5.0606,5.0683,5.0683,5.0683,5.0683,5.0683,5.0683,5.0683,5.0683,5.0683,5.0683,5.0683,5.0683,5.0683,5.0625,5.0356,5.0519,5.0308,4.9567,4.8894,4.8202,4.7528,4.7028,4.6759,4.6528,4.6259,4.622,4.5864,4.5594,4.571,4.5729,4.5594,4.5603,4.5594,4.5594,4.5594,4.5612,4.5635,4.5708,4.5807,4.5839,4.5906,4.6034,4.6133,4.6191,4.6269,4.8324,4.8324,4.8324,4.8324,4.8324,4.8324,4.8324,4.8324,4.8324,4.7994,4.7608,4.7571,4.7315,4.7003,4.6948,4.6929,4.6911,4.6562,4.6397,4.6324,4.6104,4.5828,4.5865,4.5957,4.5792,4.5902,4.5993,4.592,4.6305,4.6746,4.6893,4.6985,4.7424,4.748,4.7682,4.7884,4.7719,4.7186,4.6874,4.6673,4.6581,4.6636,4.6819,4.6783,4.6783,4.6783,4.6801,4.7016,4.7086,4.7191,4.7538,4.7807,4.8143,4.8767,4.9326,5.0202,5.0298,5.0371,5.048,5.0567,5.0664,5.0683,5.0683,5.0616,5.0596,5.0529,5.0567,5.0625,5.0644,5.0683,5.0683,5.0683,5.0683,5.0683,5.0683,5.0683,5.0683,5.0683,5.0683,5.0683,5.0683,5.0683,5.0683,5.0683,5.0683,5.0673,5.0635,5.0346,4.9721,4.9125,4.8394,4.774,4.7548,4.7355,4.7086,4.6836,4.6567,4.6355,4.6259,4.6182,4.5845,4.5633,4.5671,4.5633,4.5594,4.5612,4.562,4.566,4.5718,4.5763,4.5809,4.5885,4.6006,4.6094,4.6152,4.8324,4.8324,4.8324,4.8324,4.8324,4.8324,4.8324,4.8324,4.8324,4.8306,4.8232,4.8288,4.8196,4.7939,4.7957,4.7994,4.7792,4.7406,4.7186,4.7168,4.6746,4.6471,4.6416,4.6159,4.6544,4.6287,4.6305,4.6819,4.7278,4.7609,4.7902,4.8268,4.8195,4.8141,4.8159,4.8233,4.8104,4.7976,4.781,4.7719,4.748,4.7791,4.8324,4.8196,4.8159,4.8159,4.8196,4.8251,4.8324,4.8421,4.853,4.866,4.8904,4.9183,4.9671,4.9873,5.0043,5.026,5.0462,5.0544,5.0634,5.0663,5.0683,5.0818,5.0914,5.0741,5.0712,5.0683,5.0683,5.0933,5.101,5.0837,5.075,5.0837,5.0894,5.0798,5.0683,5.0683,5.0683,5.0683,5.0683,5.0683,5.0683,5.0683,5.0683,5.0683,5.0673,5.0635,5.0404,4.9837,4.9336,4.8606,4.8375,4.8221,4.8067,4.7817,4.7509,4.7269,4.7058,4.6827,4.6644,4.622,4.5748,4.5825,4.5902,4.5671,4.5612,4.5654,4.5671,4.5676,4.5715,4.5768,4.5856,4.5959,4.6027,4.8324,4.8324,4.8324,4.8324,4.8324,4.8324,4.8324,4.8324,4.8324,4.8324,4.8324,4.8324,4.8324,4.8324,4.8324,4.8324,4.8195,4.803,4.8012,4.792,4.7609,4.737,4.7609,4.7443,4.7572,4.7737,4.7792,4.7645,4.7902,4.8196,4.8324,4.8306,4.8324,4.8324,4.8324,4.8324,4.8324,4.8453,4.8434,4.8434,4.8305,4.814,4.8324,4.8324,4.8324,4.8324,4.8324,4.8324,4.8324,4.8345,4.8383,4.8586,4.8878,4.9265,4.9504,4.9617,4.9645,4.9904,5.0238,5.0413,5.0569,5.0748,5.0875,5.1154,5.1183,5.0894,5.077,5.0779,5.0894,5.1221,5.1356,5.1125,5.0981,5.1106,5.1202,5.101,5.0818,5.0779,5.0779,5.0741,5.0741,5.0683,5.0683,5.0683,5.0683,5.0683,5.0683,5.0673,5.0673,5.0356,5.0279,4.9683,4.9298,4.9106,4.8971,4.8759,4.8432,4.8105,4.7855,4.7644,4.7432,4.699,4.6547,4.6336,4.624,4.6182,4.6018,4.568,4.5689,4.5804,4.5802,4.592,4.5773,4.5809,4.5871,4.8324,4.8324,4.8324,4.8324,4.8324,4.8324,4.8324,4.8324,4.8324,4.8324,4.8324,4.8324,4.8324,4.8324,4.8324,4.8324,4.8324,4.8306,4.8213,4.8288,4.8324,4.8233,4.8324,4.8324,4.8214,4.8306,4.8306,4.8251,4.8324,4.8324,4.8324,4.8343,4.8343,4.8379,4.8361,4.8361,4.8581,4.8857,4.8857,4.9022,4.9095,4.8838,4.8398,4.8324,4.8343,4.8361,4.8324,4.8324,4.8324,4.8324,4.8325,4.8383,4.8604,4.8779,4.9011,4.9152,4.9317,4.957,5.0089,5.0436,5.0704,5.1113,5.1483,5.1955,5.2327,5.2125,5.2087,5.2087,5.2087,5.2356,5.2375,5.2222,5.2202,5.2299,5.2299,5.2183,5.1895,5.1664,5.1548,5.1375,5.1144,5.0683,5.0683,5.0683,5.0683,5.0683,5.0683,5.0683,5.0683,5.0683,5.0683,5.0587,5.0067,4.9952,4.9933,4.9663,4.9356,4.9029,4.8682,4.8336,4.8048,4.7702,4.7375,4.7221,4.7105,4.7048,4.6797,4.6471,4.6259,4.6422,4.6287,4.6142,4.5962,4.583,4.5844,4.8324,4.8324,4.8324,4.8324,4.8324,4.8324,4.8324,4.8324,4.8324,4.8324,4.8324,4.8324,4.8324,4.8324,4.8324,4.8324,4.8324,4.8324,4.8324,4.8324,4.8324,4.8324,4.8324,4.8324,4.8324,4.8324,4.8324,4.8324,4.8324,4.8324,4.8343,4.8398,4.8489,4.8545,4.8581,4.8728,4.9114,4.9572,4.9811,5.0105,4.9866,4.9481,4.904,4.8746,4.8618,4.8618,4.8655,4.8673,4.8673,4.8636,4.8765,4.884,4.8841,4.8974,4.9104,4.9338,4.9555,5.0017,5.0498,5.0775,5.1424,5.2037,5.2422,5.2723,5.3031,5.3215,5.3176,5.3365,5.3365,5.3231,5.3231,5.3164,5.3183,5.328,5.326,5.3145,5.2799,5.2491,5.2269,5.2058,5.1664,5.1125,5.0894,5.0894,5.0798,5.0779,5.0702,5.0683,5.0683,5.0683,5.0683,5.0683,5.0452,5.0471,5.0596,5.0366,4.9962,4.9856,4.949,4.9067,4.8702,4.8509,4.8336,4.8221,4.8105,4.7798,4.7759,4.7567,4.7394,4.7144,4.7048,4.6894,4.6614,4.6437,4.6054,4.8324,4.8324,4.8324,4.8324,4.8324,4.8324,4.8324,4.8324,4.8324,4.8324,4.8324,4.8324,4.8324,4.8324,4.8324,4.8324,4.8324,4.8324,4.8324,4.8324,4.8324,4.8324,4.8324,4.8324,4.8324,4.8343,4.8379,4.8361,4.8636,4.8526,4.871,4.9317,4.9334,4.9627,5.0233,5.027,5.0215,5.0508,5.0582,5.0765,5.0802,5.0545,5.0472,5.0343,5.0325,5.0325,5.0343,5.0343,5.0343,5.016,4.9738,4.9738,4.9719,4.9627,4.9726,4.9969,5.0156,5.0528,5.1002,5.1182,5.179,5.2273,5.2567,5.285,5.3217,5.3677,5.391,5.4543,5.4438,5.396,5.3836,5.3587,5.353,5.3818,5.3914,5.3626,5.3318,5.3164,5.3029,5.2895,5.2722,5.2183,5.1702,5.1587,5.1337,5.1221,5.0894,5.0856,5.0702,5.0683,5.0741,5.0721,5.0721,5.0683,5.0673,5.0654,5.0404,5.0404,5.0337,4.9913,4.9606,4.9452,4.9298,4.9144,4.8682,4.8259,4.8279,4.8644,4.824,4.799,4.7913,4.7759,4.7432,4.7105,4.6778]}]]